GFSSE_prec_cthk_000.txt.gz
RH
50 49 45 43 43 42 44 45 46 45 55 69 66 60 58 60 67 66 68 66 60 58 52 51 49 40 33 31 27 23 20 21 21 20 20 21 19 19 18 16 16 28 21
48 47 47 48 51 44 43 44 48 52 52 60 71 73 71 78 85 75 71 71 65 64 67 60 55 44 40 32 31 27 24 23 23 20 21 21 20 19 19 20 21 31 22
45 46 45 41 43 42 43 41 44 55 55 57 72 73 67 75 83 96 84 81 75 75 74 58 57 59 55 43 37 33 28 25 26 22 23 33 34 21 23 23 22 24 22
47 49 49 43 43 44 41 39 41 43 49 56 57 71 78 79 74 78 96 83 87 81 76 63 59 62 61 46 40 37 34 31 30 28 28 36 39 27 26 26 27 29 26
50 50 47 48 46 45 44 42 40 38 38 39 42 55 68 74 82 81 83 82 88 81 78 74 76 68 54 47 43 35 37 42 36 35 42 37 43 40 32 29 33 36 34
55 54 49 48 46 47 46 44 45 45 41 39 36 41 52 70 76 84 93 84 84 76 71 77 72 65 61 49 47 39 40 38 39 41 41 39 41 46 39 32 45 45 37
54 54 52 45 44 42 39 39 43 43 42 41 41 38 35 38 43 52 84 85 81 78 73 72 60 60 56 59 46 45 46 43 43 47 48 46 45 47 46 36 39 38 35
49 48 46 42 39 34 34 35 35 36 40 40 44 42 42 43 44 50 45 53 56 53 54 54 59 62 45 51 55 56 55 51 52 53 52 56 57 51 54 47 36 34 29
34 35 35 35 34 33 32 33 32 32 32 31 39 45 49 47 50 48 43 43 42 44 52 54 52 58 53 54 57 60 66 63 66 68 63 59 54 51 57 62 46 39 32
35 34 30 29 30 31 31 32 31 30 31 29 27 29 39 52 60 59 68 66 59 58 60 63 60 59 62 62 68 68 73 73 73 71 72 69 62 50 55 67 59 41 35
27 28 29 30 30 32 34 33 31 29 28 30 31 32 35 39 55 73 75 80 80 79 75 70 66 66 65 62 64 65 66 71 80 79 77 74 64 58 55 60 61 49 35
22 24 27 29 32 34 34 31 32 35 37 37 39 40 40 47 53 66 85 95 97 92 91 92 86 78 72 70 65 67 69 70 79 80 81 75 67 62 56 67 55 53 36
29 28 26 30 36 41 36 39 41 39 40 44 44 44 47 50 56 68 77 87 92 93 96 91 99 97 88 83 75 73 74 75 77 83 79 87 73 68 61 53 54 53 41
36 38 37 36 37 37 36 36 37 36 35 36 40 44 48 52 55 54 57 69 86 93 94 92 94 93 95 90 80 78 82 89 87 89 89 93 83 68 64 55 58 51 44
32 30 27 26 24 24 24 23 23 24 24 24 23 22 20 19 19 21 25 32 49 69 87 84 80 87 90 86 82 75 77 79 81 84 88 92 92 77 67 59 54 48 42
21 19 20 20 21 21 20 18 17 16 16 17 17 14 13 13 14 16 18 22 28 35 44 56 67 73 76 83 83 81 83 80 75 76 74 83 88 85 68 62 60 57 51
16 17 18 18 17 16 16 16 16 15 16 17 16 17 17 17 16 15 15 16 19 21 26 34 40 54 55 65 64 73 74 70 70 66 71 69 78 89 77 65 62 61 66
19 19 19 19 19 19 18 18 18 19 20 21 21 22 22 21 19 20 20 18 17 17 18 23 28 32 42 60 56 57 54 63 64 68 66 73 78 81 88 72 59 55 66
21 22 21 21 21 21 21 21 22 22 24 24 25 26 26 25 25 26 26 24 22 19 17 19 24 30 30 31 40 48 48 44 51 60 59 66 74 82 89 88 69 50 63
26 27 27 27 27 27 27 28 29 30 32 33 34 33 31 32 31 32 32 29 29 28 25 21 20 22 28 31 30 31 36 42 51 49 50 59 70 78 89 94 85 59 54
33 33 33 34 34 35 37 39 39 38 38 40 40 38 39 39 39 39 38 38 34 32 31 30 27 25 23 24 25 31 31 33 42 46 44 53 60 73 86 94 94 81 63
34 34 35 36 37 39 41 43 43 42 44 44 44 46 47 47 49 47 46 45 42 36 34 33 32 31 31 29 25 23 31 37 40 44 43 46 47 62 79 89 96 90 73
35 36 38 39 41 42 43 46 47 48 47 48 50 52 55 56 57 56 53 50 47 47 45 39 37 36 34 33 33 33 29 34 36 40 43 48 51 51 64 78 95 95 80
40 41 42 44 46 49 51 52 51 51 52 55 57 59 64 64 60 56 54 54 53 52 50 50 47 41 39 38 36 35 37 30 27 25 37 48 47 52 57 70 82 94 94
41 42 42 46 49 50 50 51 54 58 63 66 67 67 67 66 59 57 57 60 60 57 57 55 53 49 47 45 42 40 37 37 31 31 25 29 48 54 57 66 79 89 97
41 44 46 48 50 51 52 55 58 63 71 73 71 69 68 68 64 62 61 60 60 59 59 58 54 54 52 50 49 48 44 40 36 33 38 30 27 40 52 60 70 81 91

GFSSE_prec_cthk_003.txt.gz
RH
54 54 43 42 41 40 41 46 50 48 48 59 70 65 66 66 72 79 74 68 66 68 69 66 60 55 40 33 31 25 24 21 20 23 23 21 20 18 18 15 16 25 21
49 49 43 42 43 45 43 41 42 48 51 50 55 75 80 85 84 80 76 86 84 81 79 76 73 66 41 37 38 34 31 27 20 21 24 23 19 19 17 17 24 34 20
47 48 45 41 40 40 46 42 44 45 46 57 64 62 79 81 90 94 87 85 84 93 84 88 83 77 68 51 44 38 40 27 25 22 20 29 30 19 19 21 25 29 23
48 51 50 42 41 39 40 38 40 40 45 48 51 59 68 72 70 80 86 74 73 87 93 96 86 80 77 74 60 47 36 31 28 28 26 37 46 32 25 26 25 28 25
51 50 44 43 43 43 41 39 39 41 42 42 47 55 60 64 75 68 78 79 69 76 92 96 85 82 77 74 66 51 37 32 33 31 36 39 40 40 30 30 30 32 32
47 47 43 43 43 42 42 40 39 40 39 40 41 42 46 56 64 66 63 67 68 85 97 98 98 91 79 78 59 57 41 35 36 37 41 41 36 47 41 32 37 41 40
44 43 42 41 39 40 39 38 38 38 37 38 40 39 40 39 44 47 48 57 80 90 93 94 88 93 80 62 55 53 50 38 41 49 55 49 42 40 40 38 39 45 45
46 42 43 36 34 33 33 35 36 36 38 37 39 40 41 43 40 40 41 42 45 58 73 76 73 69 63 62 46 48 49 44 47 50 55 57 55 51 46 43 45 47 46
41 41 39 32 26 25 29 28 30 33 35 36 37 38 41 41 44 38 34 41 49 42 57 64 53 56 57 61 50 49 47 53 53 62 62 61 55 54 55 56 52 46 47
39 35 30 31 34 32 33 30 31 33 35 38 36 33 33 34 31 34 36 39 47 58 58 61 70 66 55 58 57 56 60 64 62 70 74 71 62 57 54 54 65 62 39
27 25 24 28 29 31 33 35 36 36 34 33 31 32 32 37 31 34 36 39 49 60 66 68 70 75 68 61 62 66 70 72 73 72 79 78 70 67 59 51 67 69 55
24 25 27 25 28 30 37 36 38 39 41 42 40 38 42 40 44 47 48 51 53 60 70 75 82 80 80 82 80 75 73 74 74 76 81 82 75 72 65 58 61 68 67
34 32 33 34 36 39 44 43 47 38 40 39 35 35 33 33 34 37 39 48 43 44 60 62 78 91 91 92 94 94 84 80 78 77 78 76 73 76 72 63 56 70 72
38 35 34 30 28 30 37 37 35 33 30 30 28 25 19 16 12 11 12 15 20 26 29 42 78 92 93 93 91 96 94 90 84 79 77 75 72 76 76 71 63 64 68
26 26 23 20 22 24 28 28 28 26 25 22 23 19 23 20 13 14 13 14 16 17 19 25 52 69 90 89 86 92 92 88 83 80 75 73 79 81 82 82 70 66 70
24 21 19 20 21 22 23 22 20 20 19 20 20 18 17 18 16 24 21 19 20 21 23 25 29 46 61 61 82 85 89 90 88 81 77 75 75 78 78 87 85 74 73
20 18 17 18 18 18 18 18 20 19 20 22 22 19 19 21 20 19 23 26 24 20 20 20 21 23 28 47 56 73 82 81 76 79 76 70 65 65 69 72 78 80 75
18 18 21 21 22 22 23 22 23 22 23 25 26 23 22 22 23 23 28 27 25 26 25 23 24 23 26 29 36 47 59 58 71 62 66 60 66 64 62 63 69 77 83
23 25 27 28 29 30 30 31 32 30 30 31 33 34 30 30 29 29 32 32 30 34 32 29 29 26 27 33 31 33 41 41 59 50 56 54 49 48 58 62 67 72 75
29 29 29 32 32 34 35 35 36 38 41 41 43 42 41 41 40 40 40 40 42 43 41 39 37 34 31 29 28 24 27 33 35 45 39 50 51 45 47 55 66 74 77
28 29 31 32 33 35 35 37 40 44 45 47 45 45 46 46 45 46 49 50 50 51 51 50 47 44 40 37 34 30 27 23 24 32 53 47 62 51 42 46 50 64 80
29 30 31 32 34 36 37 39 41 44 47 51 52 50 51 53 56 57 57 58 58 57 58 56 53 51 48 45 42 39 36 34 38 43 41 51 61 55 49 48 46 49 61
32 33 35 36 38 38 40 41 44 46 47 48 49 51 55 59 64 67 70 70 68 67 66 64 62 59 52 51 49 46 42 40 38 35 40 44 46 52 55 52 44 46 50
34 36 37 39 39 41 44 47 49 52 54 57 58 59 63 68 72 76 77 77 76 76 75 72 68 64 62 58 55 53 48 44 42 35 32 28 32 42 50 57 49 46 48
36 38 40 42 44 46 48 51 54 55 61 64 65 71 77 80 81 79 81 81 79 77 76 73 72 70 69 65 66 61 56 51 48 43 36 34 32 28 38 54 55 56 50
43 44 47 48 49 51 55 57 60 61 66 71 72 77 83 80 82 81 81 82 81 77 76 74 72 69 67 64 62 62 61 59 56 53 44 40 37 36 41 33 51 56 56

GFSSE_prec_cthk_006.txt.gz
RH
62 55 47 45 44 48 44 43 46 48 49 54 59 64 65 67 68 72 73 76 71 65 62 62 57 66 49 37 30 24 19 17 19 20 16 17 15 17 18 17 27 24 23
51 48 42 38 37 39 41 44 45 48 52 52 53 58 69 68 61 69 77 81 89 87 79 76 76 74 62 41 34 28 23 20 18 18 19 18 18 17 18 20 24 32 27
49 50 42 40 39 38 40 41 44 48 45 52 55 55 61 70 73 75 75 73 82 83 84 83 86 89 75 49 44 36 33 31 24 20 20 20 24 19 16 19 29 33 38
46 49 44 40 39 37 36 35 36 40 45 51 46 45 59 64 65 70 68 65 55 64 73 76 81 98 89 78 62 48 41 40 28 24 22 36 43 36 29 20 25 31 36
42 40 39 39 39 38 37 36 36 36 38 42 45 56 65 63 69 74 68 66 60 58 62 79 86 98 97 90 85 73 56 42 32 31 32 35 46 39 37 25 25 25 30
38 35 36 35 32 33 34 35 36 36 37 36 39 44 44 49 54 56 57 57 55 53 61 75 82 78 98 96 96 87 70 57 35 37 35 49 44 36 42 35 28 29 31
35 35 35 33 34 33 32 31 34 38 38 38 36 34 32 33 38 42 46 49 51 57 65 67 62 60 83 81 86 80 64 58 39 38 45 53 44 34 36 37 34 35 36
39 37 37 38 35 31 25 23 26 31 33 32 31 33 36 35 34 35 36 36 35 36 41 40 46 62 74 69 71 67 53 52 43 42 56 61 53 52 45 39 35 42 43
42 43 44 34 31 27 25 26 24 25 26 29 32 33 37 35 31 30 31 29 24 21 23 33 39 49 60 68 62 58 49 40 40 44 57 62 60 57 58 51 46 43 49
32 35 34 34 31 23 23 25 25 29 32 32 30 30 32 32 31 29 30 33 35 34 33 36 43 50 55 55 58 57 57 47 44 47 60 68 64 60 58 55 50 53 52
31 26 23 26 29 27 35 29 30 33 31 31 33 33 38 40 40 40 38 45 49 52 55 58 57 53 53 57 59 66 58 60 59 60 68 72 71 70 66 61 55 56 61
27 26 28 28 31 34 44 45 47 42 41 42 44 38 40 40 39 37 33 35 38 40 41 46 59 63 62 63 64 61 67 61 64 71 74 76 75 79 78 74 64 59 60
31 34 35 33 31 35 45 46 52 38 35 35 31 32 31 26 21 19 17 18 18 15 19 21 35 47 46 54 74 78 77 73 67 69 75 80 82 77 81 79 74 67 67
28 27 24 21 17 17 22 27 30 26 24 25 22 18 18 17 14 12 12 12 11 12 13 13 14 18 27 42 86 93 93 90 81 80 80 81 78 81 81 83 82 74 69
20 20 19 14 13 15 18 20 22 22 19 19 16 16 19 20 16 16 15 15 15 16 17 17 17 18 20 31 52 87 82 89 92 89 85 84 82 82 84 82 83 72 72
19 20 19 15 14 16 21 18 18 18 17 17 19 18 18 21 21 26 25 23 21 20 21 25 27 27 25 25 31 43 67 75 85 89 91 88 83 84 82 81 83 74 74
21 21 19 18 20 22 23 24 24 24 25 26 25 22 22 22 23 24 25 28 28 23 23 22 23 26 29 30 27 34 50 61 72 76 82 91 91 84 82 81 80 79 77
24 23 22 22 24 26 28 30 31 32 33 34 34 32 30 30 31 31 34 33 30 33 34 32 30 29 30 31 33 30 31 42 57 71 75 78 81 87 78 77 75 72 75
25 26 26 27 28 30 32 34 34 35 36 36 39 39 39 39 41 42 43 42 40 41 41 41 40 40 40 36 34 35 36 33 37 53 52 65 66 70 62 67 64 65 66
25 26 27 28 28 30 31 32 34 35 37 39 39 41 41 43 43 44 46 47 47 48 47 48 48 48 47 46 43 37 31 27 27 31 32 41 49 58 53 52 53 51 57
26 27 28 29 30 30 33 35 36 37 39 42 45 47 48 48 48 49 52 53 54 55 56 55 54 56 54 53 50 47 42 36 33 30 28 30 38 54 60 55 49 47 49
28 29 31 33 34 35 36 38 39 41 43 46 49 52 52 52 52 57 58 59 63 64 64 64 65 63 61 59 56 53 49 46 41 41 41 42 45 56 68 67 66 53 45
33 35 37 38 38 39 39 42 43 44 49 52 53 56 55 56 62 66 69 72 72 71 72 72 70 68 67 67 65 61 56 52 51 45 43 42 45 48 52 61 76 70 57
38 40 42 43 44 46 47 47 51 51 52 56 59 61 64 66 70 73 76 77 80 78 80 82 80 77 74 69 66 68 65 60 58 53 50 45 41 39 39 45 56 61 65
42 44 46 48 50 53 55 54 54 59 59 63 67 69 71 73 75 75 79 85 88 88 83 82 74 69 71 72 70 68 66 64 63 60 53 52 48 42 38 32 34 43 52
47 47 51 53 54 56 58 60 59 58 63 66 68 69 71 73 76 81 83 86 83 80 81 72 70 69 68 68 68 64 61 61 61 59 55 51 51 47 42 38 34 33 35

GFSSE_prec_cthk_009.txt.gz
RH
59 53 49 51 51 51 54 55 53 49 49 55 55 56 58 58 56 60 57 55 61 59 57 60 63 64 62 52 43 32 27 30 30 28 24 40 36 27 23 18 23 29 31
54 49 48 47 45 45 47 45 47 47 47 50 52 56 58 57 60 59 59 60 65 68 68 65 68 75 74 71 55 41 38 25 19 19 21 20 25 20 15 13 16 21 29
49 47 42 42 43 42 41 43 43 44 48 46 52 48 55 60 59 59 63 64 65 62 57 60 68 80 84 87 70 54 44 34 26 21 19 20 20 18 15 13 15 19 31
47 46 43 44 41 39 38 35 35 37 39 40 37 38 49 59 63 64 65 62 61 60 54 48 58 66 77 88 87 74 59 45 39 27 22 27 26 33 32 20 17 21 27
43 42 40 38 37 36 35 33 31 32 33 36 35 43 50 56 58 61 59 57 56 56 48 47 50 54 61 72 94 96 84 64 49 32 29 33 30 40 36 33 22 24 26
34 33 34 34 34 33 32 31 29 26 29 31 33 34 39 43 48 51 53 50 48 47 52 53 53 58 66 64 64 86 92 75 51 32 36 41 36 41 35 38 30 26 26
33 34 34 34 33 33 31 30 24 23 22 27 30 33 33 30 31 33 37 37 37 40 42 40 44 47 52 58 57 72 78 70 56 45 35 42 45 43 35 35 38 28 28
40 40 41 38 38 34 29 23 22 23 23 25 27 29 30 31 31 32 32 29 29 29 32 30 24 22 27 37 57 69 71 72 63 61 47 47 43 48 45 32 33 32 35
32 34 33 32 29 26 20 21 18 19 23 27 31 32 31 30 30 30 30 29 29 28 26 26 25 27 32 35 44 64 76 71 57 49 48 50 46 53 53 50 46 41 42
31 33 31 28 22 21 19 21 21 25 27 27 27 28 29 30 31 32 35 37 41 44 45 45 46 44 44 44 44 40 46 57 65 52 45 47 51 56 61 60 60 52 51
29 25 24 26 25 25 29 32 34 37 35 32 32 34 37 39 38 34 32 33 36 40 43 42 39 46 54 55 56 53 47 48 53 62 54 50 54 57 64 65 65 56 54
34 28 24 27 30 28 30 30 35 37 41 25 22 22 24 25 22 21 18 18 18 19 20 22 20 28 39 47 48 44 44 52 53 60 68 69 64 63 70 72 70 63 58
28 25 24 22 20 21 24 26 26 27 26 25 22 20 21 19 16 13 10 11 14 17 13 18 18 18 26 30 34 30 40 56 62 60 68 77 78 75 77 80 79 71 67
23 18 17 17 15 15 16 18 18 20 18 16 17 17 16 14 14 14 14 13 14 14 15 17 19 20 20 20 22 30 43 58 82 76 71 76 78 79 81 85 83 78 78
19 18 17 17 13 13 14 17 20 21 21 21 21 19 19 20 20 19 19 20 20 20 20 21 21 22 23 27 29 30 38 56 70 82 86 83 83 80 82 86 90 85 82
19 19 19 19 16 15 17 21 26 28 29 29 27 26 27 27 28 26 28 27 27 27 27 27 28 28 28 27 29 35 40 40 47 56 73 91 93 87 89 90 89 86 87
20 21 23 24 24 23 26 28 29 30 30 30 31 31 31 31 33 33 35 34 34 34 32 32 31 31 32 34 34 33 33 34 48 51 61 69 81 97 94 91 88 84 84
22 22 23 24 24 25 27 28 28 29 31 31 32 34 34 34 36 37 38 39 39 39 40 41 40 38 36 36 35 37 40 39 35 45 55 64 70 86 95 96 91 91 85
25 25 25 25 26 27 28 30 31 31 32 33 35 36 38 38 38 39 42 42 43 43 45 49 51 50 47 44 42 41 40 39 36 33 34 43 61 69 78 93 95 94 89
26 27 27 28 29 32 33 35 36 36 37 38 38 40 40 43 44 44 46 49 50 51 52 53 54 55 55 54 52 49 48 47 44 40 32 26 31 53 63 72 83 85 87
31 32 33 33 35 36 38 40 41 41 41 42 45 47 48 50 53 53 53 53 54 57 59 61 60 60 61 61 59 57 54 52 52 48 46 40 33 35 41 64 67 72 72
35 35 37 39 41 43 44 44 46 47 48 49 51 53 55 56 56 55 58 59 60 61 64 66 68 68 67 66 64 61 58 56 55 54 51 49 46 41 37 41 60 76 73
37 41 43 45 45 46 48 49 50 51 51 53 55 58 60 60 61 61 63 66 67 69 69 71 73 74 73 69 68 66 64 63 60 61 57 53 52 49 46 45 45 67 75
41 43 45 47 49 51 52 52 54 56 56 58 60 63 64 64 64 66 68 73 74 74 74 75 76 75 77 74 65 66 64 63 64 61 62 57 54 53 51 48 45 53 68
45 48 49 52 54 57 58 59 59 60 61 64 66 67 68 68 68 72 76 79 79 80 81 85 84 81 80 76 65 68 70 67 66 64 57 60 57 51 51 50 46 50 54
48 49 53 55 58 57 57 59 59 61 64 69 70 70 71 72 73 75 75 79 82 85 88 91 91 88 81 73 70 66 63 61 59 61 58 55 58 54 48 44 44 44 40

GFSSE_prec_cthk_012.txt.gz
RH
64 60 59 54 49 52 54 59 57 62 54 52 54 52 55 55 56 60 62 65 65 63 63 62 57 59 55 60 53 51 43 34 42 47 33 26 44 58 47 41 43 36 33
57 54 50 47 47 49 48 50 50 47 44 50 49 50 51 52 54 54 60 64 63 63 63 63 68 62 69 63 65 63 49 46 34 33 33 28 29 32 26 21 23 28 29
51 47 45 45 44 45 45 46 46 45 46 47 48 46 50 53 54 60 65 64 63 59 59 58 60 57 76 79 76 70 61 55 49 38 31 26 30 29 22 21 21 21 23
53 48 43 41 40 42 41 40 38 38 41 41 36 39 45 50 58 63 65 66 61 58 56 60 56 54 61 61 64 65 67 61 56 49 34 27 32 36 35 29 22 20 34
44 45 41 39 37 34 33 34 34 33 33 33 29 32 36 44 55 57 57 59 59 53 56 55 52 53 56 56 61 63 64 78 60 49 37 35 32 36 40 31 29 22 30
39 37 32 31 31 32 33 34 34 30 27 23 21 20 30 39 47 51 55 52 50 49 47 52 52 53 54 49 51 50 58 66 63 52 39 33 33 30 34 32 32 27 25
32 34 34 33 32 31 31 31 30 26 23 21 22 20 21 24 30 36 38 36 36 35 34 37 41 40 46 44 44 45 52 66 76 64 49 40 41 34 42 36 34 36 26
36 33 33 35 33 30 28 24 21 18 17 19 21 21 24 26 27 29 28 28 28 28 25 24 25 24 25 27 30 37 55 64 71 67 67 52 49 36 48 41 37 33 31
29 29 30 30 29 26 20 19 19 20 20 20 20 21 21 22 22 23 23 25 27 29 30 32 33 35 36 39 38 41 50 68 74 72 79 70 56 48 46 56 47 37 35
28 29 31 27 24 25 24 26 29 29 30 33 28 22 25 26 29 30 30 28 28 29 31 35 39 45 53 55 53 52 46 50 70 67 71 69 66 56 55 65 63 55 45
34 38 32 29 31 33 31 28 28 30 33 37 27 22 21 22 24 23 21 18 17 21 23 23 23 21 27 36 51 55 59 56 50 51 54 55 63 60 55 62 70 72 61
40 37 32 23 20 19 19 19 18 17 19 20 18 16 15 17 17 15 14 11 11 14 16 17 17 17 19 29 38 43 45 41 40 41 46 55 64 67 69 62 72 73 73
34 30 26 20 16 15 16 17 18 17 17 17 17 17 17 16 16 17 15 13 14 16 17 15 19 18 18 22 26 25 26 31 30 37 44 53 57 70 73 75 72 73 77
27 24 23 18 17 18 17 19 20 22 23 23 25 26 27 25 24 20 19 19 19 19 18 19 21 20 20 21 20 23 26 30 36 42 52 66 66 69 73 80 85 82 83
22 22 20 20 21 19 21 22 26 27 29 29 29 29 29 28 29 29 28 27 27 26 26 27 27 28 28 28 26 25 28 31 37 45 58 63 78 73 77 86 84 88 91
22 20 19 19 22 22 23 27 31 32 32 33 34 35 33 32 33 34 34 34 34 33 32 32 30 31 31 31 31 31 30 32 41 43 50 54 61 71 86 80 84 87 89
25 24 24 24 24 24 24 26 30 32 32 32 32 33 33 33 34 35 36 38 39 40 41 40 40 39 39 39 38 39 39 37 37 38 43 50 54 59 67 80 85 89 90
26 27 27 27 27 27 28 30 32 34 35 36 37 37 38 38 38 38 39 42 42 42 43 43 44 45 45 46 46 45 45 43 39 36 33 36 47 55 66 71 80 93 93
26 28 31 32 32 33 34 35 36 38 40 41 42 43 43 43 45 44 44 46 48 48 48 48 50 50 51 52 53 53 52 49 48 45 41 37 33 43 53 64 74 84 94
30 32 33 34 35 37 39 40 41 42 44 45 46 47 48 49 52 53 52 52 54 54 55 55 56 56 57 57 56 57 57 56 53 52 49 46 45 38 35 46 67 74 85
33 35 37 40 42 43 44 45 46 48 48 48 50 50 51 53 56 57 58 58 58 58 58 59 60 61 62 63 64 64 63 59 59 58 55 52 52 50 46 36 36 61 76
39 41 44 48 49 51 50 50 51 51 51 51 53 54 55 57 59 61 63 63 63 62 62 62 63 63 64 67 67 66 64 59 56 56 57 58 54 52 55 53 46 39 53
42 44 47 49 53 55 53 51 50 51 51 51 53 54 57 58 60 62 64 65 66 65 65 67 67 67 66 68 70 71 68 63 56 56 57 59 62 59 53 53 56 51 44
43 44 47 51 55 56 54 53 53 52 53 53 54 57 60 62 62 63 65 66 67 69 73 74 73 70 67 68 74 78 77 73 67 56 57 57 58 62 60 54 53 57 52
50 51 54 57 59 59 57 56 54 52 53 55 57 60 62 65 66 66 66 68 69 72 74 74 75 76 75 76 75 79 81 74 73 67 52 47 48 55 60 63 54 50 55
56 57 59 60 64 65 65 63 61 58 57 58 61 63 65 66 66 68 69 70 72 73 78 82 84 84 85 88 88 85 81 78 71 66 60 50 43 44 53 59 62 54 49

GFSSE_prec_cthk_015.txt.gz
RH
54 58 63 61 62 58 61 58 63 65 62 59 57 55 53 51 58 64 62 62 61 61 65 64 63 58 60 59 60 61 57 40 37 50 48 35 25 39 68 77 52 57 58
50 49 50 53 53 53 53 53 54 53 55 55 56 53 48 49 50 49 50 51 54 61 64 59 59 56 54 55 59 63 65 60 47 33 37 39 24 30 39 56 42 44 51
46 42 45 48 49 48 47 51 51 50 52 54 51 53 51 48 47 47 50 55 60 59 63 59 58 52 56 56 61 64 70 65 63 52 35 40 34 30 37 37 27 36 41
44 39 41 41 44 43 39 42 42 43 45 44 43 47 50 52 50 49 59 61 63 60 61 61 56 54 54 60 62 60 62 63 55 61 54 41 34 31 35 34 25 24 23
44 44 41 39 39 37 34 35 34 33 34 35 32 32 33 37 44 55 60 61 64 62 61 62 57 52 51 51 53 55 55 49 55 62 61 48 43 35 33 41 34 30 21
38 39 35 33 31 30 32 30 30 29 28 28 25 22 23 27 33 42 52 58 61 56 55 50 49 49 49 53 57 53 49 48 58 68 66 60 53 44 40 40 34 37 28
36 32 32 31 30 28 28 28 28 25 22 20 17 16 18 21 22 27 36 41 41 40 40 39 37 40 41 42 48 47 47 46 60 67 73 62 51 38 39 46 46 42 36
34 32 31 28 26 24 21 18 17 18 19 21 20 20 19 20 22 25 27 27 27 28 28 26 24 22 20 21 27 31 33 45 56 75 81 78 50 39 35 50 57 42 40
25 24 21 21 21 19 17 20 24 24 25 27 28 27 24 25 27 28 28 28 29 30 30 31 31 34 33 35 36 38 43 46 62 74 84 79 73 67 52 37 59 50 40
26 27 25 22 21 24 28 27 26 25 28 34 34 25 23 21 23 29 31 28 27 26 25 26 29 29 29 28 37 46 47 45 58 66 69 73 78 69 69 61 52 59 55
28 30 29 26 24 20 18 18 20 20 23 25 22 19 18 18 20 20 19 17 14 14 17 18 20 18 17 21 28 34 44 47 52 63 68 65 69 67 67 68 66 66 71
26 28 29 24 19 16 18 16 19 19 20 20 19 18 18 18 20 18 16 14 12 14 16 16 17 17 16 16 21 29 36 45 49 45 46 53 64 67 71 72 66 70 75
27 31 30 25 20 17 18 18 19 21 21 22 22 23 23 23 22 21 20 19 18 17 18 19 18 19 19 18 18 20 19 20 26 26 31 29 33 40 60 71 76 75 75
29 32 26 26 22 20 20 22 24 27 28 30 28 28 29 29 28 26 26 26 26 25 25 24 24 25 26 26 26 24 23 24 24 26 28 30 32 39 47 53 67 79 75
28 27 25 22 21 21 22 22 23 28 31 33 33 33 33 33 31 31 32 31 31 31 31 31 30 30 31 30 30 31 31 31 29 30 31 37 45 48 48 61 64 72 78
29 29 30 28 28 27 27 26 27 31 36 37 39 40 40 40 37 35 35 34 35 35 36 36 36 35 35 34 33 33 34 34 34 33 39 43 46 54 53 57 65 73 82
30 31 31 30 30 29 31 33 34 36 38 39 41 42 42 41 40 40 41 41 41 42 42 41 41 40 40 40 40 39 39 39 39 39 37 36 38 43 50 59 62 71 79
30 32 33 35 37 38 38 38 39 39 40 41 43 43 43 43 43 43 42 43 44 45 45 45 45 45 45 45 45 46 46 46 46 45 43 41 38 35 32 44 54 58 70
34 36 38 39 41 41 40 41 42 43 43 44 45 46 47 47 46 46 47 48 48 49 50 50 50 50 51 51 50 51 51 51 50 49 48 47 44 43 42 39 31 49 62
38 41 43 45 47 47 46 46 47 47 46 46 47 47 47 48 49 50 52 52 52 52 54 54 54 55 56 56 55 55 55 56 57 55 53 51 49 48 47 46 45 37 47
41 44 46 46 49 51 52 52 51 48 48 48 48 48 49 50 51 52 53 55 56 56 56 58 59 59 59 59 58 58 59 59 59 57 55 54 53 51 49 49 51 50 43
44 47 47 48 53 57 58 55 54 55 53 52 51 50 51 52 54 56 58 60 61 60 59 59 59 59 61 62 60 60 57 58 59 61 59 56 53 51 51 50 49 53 54
47 50 53 57 57 58 59 60 61 60 56 54 52 51 52 53 54 56 58 60 61 62 61 61 61 58 59 61 61 62 61 57 58 61 62 61 59 52 50 48 49 50 51
51 56 60 61 59 60 61 62 61 60 58 59 57 56 55 57 58 59 60 62 63 65 67 68 66 66 67 67 67 67 66 61 60 57 60 60 60 62 55 49 46 46 50
57 63 62 64 65 63 60 61 62 60 59 57 53 52 53 55 59 62 64 65 64 71 73 76 74 72 76 76 78 81 79 70 67 63 55 57 61 62 62 56 49 46 46
63 65 65 67 67 64 63 65 64 60 57 52 53 52 53 55 58 62 68 70 72 71 73 83 79 79 84 80 87 90 88 86 78 77 66 53 54 56 60 57 51 48 45

GFSSE_prec_cthk_021.txt.gz
RH
61 62 61 63 64 64 62 61 58 58 60 60 61 60 60 60 63 64 69 66 66 61 61 58 57 55 56 59 60 58 59 55 53 49 49 49 46 50 49 51 48 56 54
53 58 56 56 59 62 62 63 60 61 59 59 55 51 47 51 56 59 64 59 53 57 61 58 57 60 59 62 62 59 59 59 59 57 53 56 51 44 40 46 53 46 61
48 48 48 50 52 55 53 56 56 54 51 52 48 45 46 47 46 50 52 58 55 53 56 63 69 70 66 61 63 64 59 59 66 64 60 61 60 56 47 40 42 46 48
44 40 40 43 44 46 47 44 43 41 43 45 45 44 44 44 43 44 46 51 53 57 70 69 67 63 62 61 64 65 65 67 60 63 63 63 60 61 60 53 45 45 44
38 34 38 40 41 39 35 33 33 31 34 33 31 26 26 31 36 42 49 58 63 66 66 68 70 65 57 55 58 61 60 56 56 56 55 60 60 61 66 57 59 52 48
35 35 35 36 33 32 30 29 28 25 24 22 19 18 19 23 24 30 34 38 43 48 48 47 50 47 44 46 47 49 50 48 47 54 53 52 55 66 73 63 58 57 63
29 30 33 31 32 29 26 23 20 18 19 21 22 22 23 23 22 23 26 27 27 27 27 28 29 29 29 33 37 36 40 40 39 43 45 48 51 69 73 62 61 58 63
29 25 23 23 24 23 18 19 22 23 20 21 25 29 30 28 27 28 27 27 26 27 26 26 26 27 26 26 28 29 31 36 40 45 42 45 51 70 73 68 55 58 64
27 26 22 21 20 21 22 21 15 12 13 18 23 24 18 19 18 20 23 25 26 28 28 26 25 25 27 28 28 30 32 35 40 47 48 49 56 65 81 74 53 56 61
25 23 21 21 21 20 14 12 10 10 14 19 20 17 15 16 16 17 19 20 20 18 14 12 15 19 22 27 23 21 24 30 38 42 46 54 55 64 74 78 81 69 68
22 23 23 20 18 15 13 13 12 12 13 14 17 17 19 19 20 23 23 21 18 14 13 14 15 16 18 16 15 16 19 23 31 39 40 41 48 63 82 76 80 77 74
23 25 22 19 17 16 17 18 17 17 19 21 23 24 25 25 25 26 27 26 25 24 22 21 20 19 18 17 17 17 18 19 23 29 34 43 50 53 67 73 71 72 68
24 23 23 23 22 22 24 24 24 21 22 25 27 28 30 30 31 32 33 32 32 31 31 30 30 28 25 24 23 22 21 20 20 20 19 21 27 33 40 56 66 67 66
22 24 28 30 28 27 26 28 30 31 30 32 34 37 37 38 38 39 39 39 38 38 37 36 35 35 34 33 30 29 27 25 24 23 23 22 23 25 29 30 28 36 54
27 30 33 32 29 31 33 33 33 34 36 37 38 39 40 41 42 43 43 43 42 41 41 41 41 41 40 40 38 36 34 32 31 29 28 27 25 26 29 31 32 34 36
28 30 35 37 34 35 36 35 37 38 40 40 40 41 41 42 42 42 42 43 43 43 43 43 43 43 44 44 43 41 40 39 37 36 35 34 32 30 29 29 33 36 40
32 36 40 44 40 39 40 41 42 43 43 42 41 42 42 42 42 42 42 43 43 43 43 44 44 45 45 45 45 45 44 44 43 42 41 40 38 37 36 34 33 29 29
35 38 43 46 45 46 46 46 48 49 48 46 45 46 46 46 46 44 44 44 45 45 45 46 47 47 47 48 48 48 48 48 48 47 46 46 45 44 42 40 38 37 35
40 42 45 50 49 48 50 50 51 55 54 54 53 54 52 50 50 49 49 48 48 48 48 49 49 49 49 50 50 50 52 52 51 50 50 50 50 49 48 47 44 41 41
40 42 46 49 48 49 50 52 57 57 57 58 58 59 57 55 55 51 50 49 49 49 50 50 51 51 51 51 51 51 52 54 55 55 55 55 54 53 53 53 53 50 45
36 40 46 51 52 52 55 58 60 60 60 60 60 58 61 61 60 59 54 50 48 49 52 52 52 53 53 56 55 54 53 54 55 55 55 55 55 54 54 54 54 54 52
43 48 53 54 56 61 61 60 61 60 59 60 60 59 59 58 56 53 52 50 49 49 49 50 54 53 55 58 56 58 57 55 58 60 59 58 56 54 54 54 52 52 52
49 54 58 61 64 63 60 58 59 60 59 59 60 62 61 58 59 58 57 56 55 54 52 53 54 57 57 59 62 62 61 56 60 58 64 62 61 59 57 57 53 53 51
54 57 58 59 59 61 61 61 62 62 62 62 62 62 59 60 58 58 57 54 51 51 49 52 55 54 59 61 62 64 61 60 61 61 64 73 67 67 63 62 60 56 54
56 58 59 61 64 66 66 67 66 66 67 67 66 60 57 56 55 52 50 48 44 43 43 45 48 48 52 57 63 71 64 65 64 64 64 73 70 70 69 69 67 65 63
59 61 64 66 68 67 68 69 71 76 76 69 68 64 61 58 52 50 48 44 42 42 41 41 43 47 49 56 59 66 68 69 69 68 71 77 78 78 76 76 74 69 65

GFSSE_prec_cthk_024.txt.gz
RH
56 58 60 61 60 59 60 59 58 57 57 58 64 64 56 56 55 57 60 60 59 57 59 59 58 58 57 57 56 58 58 56 53 50 46 41 43 41 44 50 56 71 63
56 57 57 58 57 59 56 58 60 55 55 57 59 60 54 52 54 56 57 58 57 55 54 55 56 60 61 62 59 60 60 58 58 58 57 57 56 55 49 45 49 60 56
59 59 53 51 52 52 52 55 51 50 47 46 49 52 51 48 51 52 52 54 51 50 50 56 63 70 69 68 62 60 59 66 61 61 65 72 71 57 58 55 53 50 54
50 48 43 42 42 41 42 42 40 39 42 43 46 46 45 43 41 46 43 44 47 52 54 61 67 65 68 65 62 59 62 63 66 68 65 68 65 59 63 61 59 56 51
40 38 35 38 38 36 33 30 30 30 29 28 30 29 28 28 32 38 39 48 49 51 54 58 56 58 66 61 55 53 56 58 57 56 58 59 61 57 56 57 60 62 57
33 35 30 29 28 27 29 26 25 23 21 20 18 19 19 20 23 25 29 33 36 41 45 50 57 44 40 39 39 41 45 47 48 51 48 47 52 53 47 51 60 60 63
31 29 27 26 27 26 24 22 20 19 21 21 21 24 26 28 27 27 26 24 23 25 26 28 29 29 30 32 33 35 36 37 38 43 43 43 45 46 48 59 61 63 65
29 27 26 24 21 18 18 18 19 17 13 14 17 21 24 22 18 18 20 22 24 25 26 27 27 28 27 26 25 25 26 27 30 35 40 47 40 41 49 58 58 58 64
28 28 24 18 16 16 17 15 10 10 11 15 19 22 17 16 16 17 20 23 25 26 27 27 26 25 26 27 28 30 30 31 34 38 38 45 45 46 52 60 67 60 56
25 26 22 20 18 16 13 12 10 10 13 16 19 18 17 17 18 20 22 22 22 21 16 13 15 17 19 22 24 19 16 18 25 30 40 42 43 46 52 61 75 62 65
26 21 22 23 19 16 15 15 14 14 16 18 19 21 23 30 29 30 29 29 28 25 23 20 17 16 15 15 15 15 16 24 24 31 38 39 41 42 45 57 75 71 80
24 23 21 18 18 17 17 20 21 20 25 25 27 26 33 30 31 32 31 31 31 30 29 30 29 29 27 26 24 20 24 21 24 26 30 24 29 42 48 49 64 77 74
29 27 24 23 21 22 30 30 31 31 32 34 31 34 36 36 40 42 43 42 43 38 39 37 35 36 33 32 33 30 29 26 29 28 27 21 21 21 29 38 53 65 71
27 26 28 28 27 28 32 35 38 39 40 41 43 39 44 48 50 49 52 51 49 48 45 45 45 40 39 39 38 37 36 36 38 36 33 25 23 23 23 26 31 37 50
31 32 34 35 33 34 36 36 37 40 45 46 47 46 42 47 48 47 48 47 47 47 48 49 49 48 47 43 42 41 41 42 39 41 40 35 33 31 28 27 29 34 35
32 37 39 41 42 39 40 40 41 43 48 48 50 50 45 44 49 48 48 48 47 47 47 48 49 47 47 46 45 43 42 45 44 41 42 40 38 37 36 35 33 32 34
39 41 44 46 47 43 44 44 46 49 49 54 54 48 48 48 47 46 50 49 49 48 46 46 46 45 45 47 45 45 45 46 46 44 45 46 43 42 41 39 39 38 36
39 41 44 47 50 47 47 49 50 53 51 53 51 52 53 55 53 52 54 52 50 49 49 49 49 48 47 46 45 46 46 47 47 46 48 50 50 50 47 45 43 42 42
41 44 46 48 52 49 47 50 51 53 55 58 57 59 58 57 58 57 56 56 55 52 49 48 48 48 48 49 48 47 46 45 46 48 50 50 51 50 53 51 49 48 46
42 44 46 51 54 52 53 54 55 60 60 59 60 60 59 54 54 53 52 51 53 54 54 53 52 51 51 49 48 48 48 48 47 47 48 49 50 52 53 53 52 53 52
38 40 47 54 55 56 60 61 65 65 62 60 60 59 56 56 56 56 55 54 55 58 59 59 59 60 58 58 55 53 51 51 51 50 49 50 51 51 52 53 54 55 55
41 44 49 54 58 60 62 65 65 64 64 63 63 65 65 62 62 62 61 59 60 59 59 60 59 57 59 61 61 61 57 55 53 50 52 54 53 53 54 55 53 54 55
46 51 55 59 61 63 63 64 65 67 67 67 68 68 69 70 69 65 60 57 55 54 54 54 54 56 57 56 61 62 59 55 60 60 51 50 57 56 56 58 58 56 56
52 55 58 60 60 59 62 64 65 66 68 68 68 72 77 75 68 65 59 55 50 50 51 48 49 49 53 50 56 57 57 59 64 66 60 55 55 58 57 58 62 62 59
55 57 58 60 60 62 62 64 64 72 82 78 73 72 72 69 64 60 56 47 45 46 45 46 47 49 49 49 49 53 56 57 58 69 65 74 68 61 60 55 60 73 69
62 64 62 64 65 64 63 63 68 67 66 63 62 60 55 52 49 50 51 48 46 44 43 42 41 41 43 44 45 48 50 55 58 67 69 68 86 80 64 59 63 71 79

GFSSE_prec_cthk_027.txt.gz
RH
56 52 52 54 55 53 50 50 48 49 50 53 60 63 62 62 58 58 61 62 63 64 57 57 54 51 50 49 53 52 55 56 55 54 51 49 47 44 44 43 49 63 66
53 52 53 54 53 50 51 49 50 51 52 52 54 57 58 56 53 58 61 59 60 58 53 54 55 57 59 59 59 60 59 61 63 61 60 61 64 58 52 54 51 52 54
57 53 52 49 47 48 48 50 50 45 42 42 44 47 51 52 57 50 51 50 52 52 51 52 59 60 61 63 69 67 62 57 57 64 64 68 75 65 55 53 56 56 56
56 56 45 40 43 40 44 41 38 36 37 40 41 41 40 36 35 34 37 39 41 47 48 51 53 56 61 60 64 59 57 54 58 65 71 68 73 58 54 51 52 58 58
49 43 35 35 34 30 29 29 28 28 27 26 23 23 23 25 26 29 30 34 37 42 47 48 49 59 60 53 54 50 43 45 52 55 62 60 63 61 53 48 46 50 54
39 33 29 27 26 26 26 24 22 20 17 16 17 19 23 26 26 27 28 31 34 33 33 37 40 43 40 32 30 32 33 36 42 49 59 57 53 48 47 48 45 41 49
34 26 25 24 23 22 22 21 17 16 17 15 17 18 21 23 25 24 20 20 21 22 22 24 24 26 28 29 28 29 31 34 36 44 46 50 51 53 46 47 50 48 46
30 28 23 22 21 18 16 16 16 13 11 14 17 20 22 21 16 17 19 20 22 24 24 25 26 26 26 26 26 25 26 26 26 40 44 46 44 45 44 44 47 54 47
28 28 28 22 16 15 16 14 10 10 13 16 20 22 20 16 16 17 18 20 22 23 23 21 19 18 19 20 21 23 26 26 26 40 41 40 40 41 43 47 51 60 67
28 33 30 24 26 23 15 12 11 11 13 16 20 21 19 21 22 23 24 26 26 25 23 19 17 16 15 14 15 14 14 13 19 28 40 36 36 38 39 43 52 63 71
34 30 27 34 28 25 26 19 17 15 16 19 21 21 25 40 39 39 32 29 28 28 28 27 27 27 27 25 24 21 18 24 29 31 38 28 28 34 37 38 41 52 75
32 32 33 29 25 21 26 26 29 29 34 34 38 38 48 43 43 38 40 40 39 39 36 35 34 33 33 40 40 36 35 38 31 35 36 27 22 18 20 30 43 46 65
35 38 34 23 23 27 31 35 43 45 43 47 42 42 49 49 55 56 58 56 58 52 52 52 49 47 48 44 42 43 41 40 41 42 44 34 27 23 22 21 21 38 52
38 38 33 31 27 28 34 42 43 45 50 50 56 47 53 53 55 55 56 55 53 58 55 53 53 52 48 48 46 44 43 44 44 47 48 42 34 29 27 26 25 23 32
40 39 43 37 33 35 36 44 44 46 53 56 58 59 51 53 57 55 52 50 53 52 52 52 52 51 53 52 49 47 47 46 46 46 46 42 39 37 35 33 32 31 29
38 43 45 46 43 41 43 45 47 52 56 58 60 59 54 53 54 53 54 53 54 53 53 51 49 49 48 49 49 46 45 44 46 48 46 44 42 39 39 38 37 36 36
41 46 53 49 47 46 45 48 51 55 52 58 59 55 55 55 58 58 58 57 59 58 54 54 52 50 50 50 48 46 43 41 42 44 43 44 44 44 42 41 40 39 39
48 53 55 53 51 50 50 52 54 55 56 61 64 63 61 59 57 56 57 57 58 54 56 56 55 54 53 52 50 48 45 42 41 41 41 42 44 45 45 44 43 43 43
49 53 57 57 57 57 56 54 54 58 62 66 68 66 65 61 57 57 57 56 56 54 53 54 54 57 58 58 57 52 48 45 44 42 41 41 40 41 43 42 45 44 45
47 48 50 55 61 60 59 58 61 65 67 70 69 66 63 63 62 62 61 62 62 62 60 61 61 61 60 59 58 57 54 52 49 48 48 44 43 43 42 43 39 41 42
43 49 53 56 58 59 65 68 68 70 72 71 69 68 68 69 68 67 65 67 67 66 63 59 60 61 59 61 62 65 62 57 54 52 50 50 49 46 44 44 45 44 42
43 46 49 54 58 62 65 66 66 67 69 69 71 69 71 70 71 76 74 78 74 68 61 56 55 54 53 55 59 64 64 60 62 56 52 50 50 50 49 45 45 47 49
48 51 55 59 61 64 65 68 67 68 70 70 69 68 73 80 79 75 68 63 62 56 50 50 51 52 52 50 57 64 66 64 65 63 67 65 58 53 49 52 46 46 46
55 57 60 61 63 62 62 62 64 67 70 70 70 70 67 62 60 59 57 55 53 51 48 52 54 53 55 48 51 57 62 67 69 68 67 72 73 67 62 57 59 55 51
57 57 57 61 63 61 61 63 66 69 68 66 68 64 58 55 54 52 51 48 46 46 45 45 44 45 45 44 43 44 43 45 52 56 55 64 75 75 78 77 74 65 59
58 58 57 59 61 62 62 64 65 64 65 66 63 55 54 54 53 49 46 44 43 45 48 47 45 45 42 43 44 47 50 49 53 57 61 66 61 82 67 77 83 85 75

GFSSE_prec_cthk_030.txt.gz
RH
51 47 47 48 49 50 49 46 43 43 45 46 49 52 51 52 50 50 55 58 61 60 58 56 51 50 52 51 55 52 55 56 55 57 58 58 60 56 49 44 49 56 53
51 47 47 50 50 47 45 45 43 42 40 39 42 44 47 50 52 52 52 50 51 55 56 54 51 53 55 57 58 57 62 56 52 53 59 64 71 73 69 61 60 58 64
47 44 49 48 44 45 45 46 44 39 35 35 37 39 40 40 38 39 38 38 40 40 43 48 50 55 59 59 57 60 63 58 52 49 55 58 69 75 60 51 50 50 55
46 46 43 40 40 37 37 36 33 30 30 31 31 31 29 28 29 29 30 31 35 37 39 41 45 48 48 54 55 53 50 46 46 47 52 63 69 62 63 58 48 50 46
43 40 35 34 31 26 24 24 23 23 22 19 18 18 20 24 25 27 27 30 35 40 38 41 40 40 42 49 46 32 32 35 35 42 48 48 62 58 54 56 51 48 43
37 31 29 25 22 21 20 20 19 17 15 15 16 16 18 20 23 25 24 22 21 21 23 23 23 24 24 25 24 24 26 27 29 33 41 34 69 51 47 54 53 46 44
28 24 22 20 20 19 19 17 14 14 15 11 13 16 18 20 20 17 16 17 19 21 22 22 22 22 22 22 22 23 22 21 21 26 33 34 33 40 42 48 47 46 46
22 20 20 20 19 17 14 13 13 10 9 12 15 19 22 21 17 17 17 19 21 22 23 22 21 19 18 18 19 19 20 21 23 29 35 36 34 35 34 36 39 43 47
22 19 19 19 17 14 13 12 8 8 11 13 16 20 19 18 18 18 20 22 24 24 22 20 18 15 14 13 12 14 15 14 14 29 39 32 31 27 31 35 36 41 52
26 28 28 23 18 19 18 11 10 10 12 14 16 17 21 28 28 29 28 27 27 27 26 26 25 25 25 25 23 19 16 15 20 24 28 32 32 26 28 32 34 39 44
31 33 33 34 28 23 20 18 19 17 23 22 25 26 36 36 43 40 38 40 40 39 37 34 33 32 31 32 34 33 32 33 33 34 37 34 29 26 24 28 32 33 38
34 32 31 29 24 21 28 25 30 31 31 32 36 37 49 45 44 45 48 49 48 46 45 46 44 42 41 41 40 41 40 40 38 34 39 37 34 30 23 22 20 26 36
38 40 35 26 21 31 34 34 44 46 46 47 50 47 47 48 56 53 52 51 50 47 51 50 47 50 49 46 42 42 43 41 39 41 43 44 41 38 31 26 25 25 22
41 40 38 27 22 26 35 41 43 47 51 54 57 56 54 54 54 50 51 51 48 50 49 49 50 50 49 49 46 46 44 41 41 43 45 45 44 41 37 35 32 29 28
47 43 39 34 30 30 33 37 40 45 54 55 54 57 53 50 52 50 51 52 52 52 53 52 49 47 46 47 47 45 41 40 41 40 42 42 42 41 38 36 36 36 35
44 41 46 44 39 36 39 42 44 50 51 54 56 53 53 52 56 55 55 54 53 52 50 48 47 45 44 44 43 42 41 39 37 37 41 42 39 39 39 38 38 38 38
43 45 47 54 47 46 46 46 48 52 51 51 54 55 55 56 57 54 54 52 52 50 48 45 44 45 44 44 44 44 42 38 36 35 34 36 35 34 36 36 37 38 39
44 50 57 60 59 53 53 52 50 50 49 52 58 63 61 62 59 55 54 54 53 51 49 49 48 46 46 47 47 48 48 48 45 40 37 35 36 34 33 33 33 34 36
56 57 62 65 62 60 60 57 57 55 55 61 66 68 68 65 62 60 59 59 61 61 61 60 57 59 60 57 53 53 52 55 53 51 47 43 41 41 39 36 36 35 33
48 53 55 61 64 68 66 62 63 64 65 68 68 69 66 66 62 61 61 66 69 68 68 67 66 63 62 59 51 49 49 49 53 57 54 51 50 48 47 42 40 38 38
46 48 49 54 57 59 61 65 66 68 70 70 68 67 65 66 63 62 61 63 65 63 59 58 57 54 51 51 48 47 43 43 46 54 58 60 56 52 49 49 46 44 41
47 49 51 53 56 58 61 67 67 67 68 67 66 66 69 67 64 64 63 59 54 52 49 48 46 43 40 44 48 50 47 41 44 48 55 60 62 65 60 55 50 46 44
48 50 54 56 58 61 61 61 62 63 64 64 65 69 69 70 69 65 62 54 49 47 44 42 40 41 44 46 53 59 57 52 50 46 49 58 74 81 81 91 76 61 58
54 56 57 58 60 59 55 56 58 60 62 65 67 68 65 63 58 56 53 48 46 44 41 40 42 45 46 44 45 49 49 55 56 50 45 43 53 67 77 86 87 90 89
55 56 58 57 56 54 52 55 57 58 59 59 57 54 53 50 50 51 50 49 47 46 44 46 46 46 48 49 49 45 42 42 49 60 50 48 50 53 63 73 88 93 90
56 55 55 54 54 56 55 51 49 49 50 51 51 52 53 54 54 53 52 45 42 42 44 47 52 49 48 47 48 49 49 48 45 53 57 48 48 47 53 67 77 97 98

GFSSE_prec_cthk_033.txt.gz
RH
61 52 45 44 45 46 46 43 39 39 39 42 44 44 45 46 48 50 50 50 50 49 50 50 51 53 57 57 64 66 62 62 66 61 66 68 78 66 59 56 56 53 56
62 52 47 46 45 42 40 39 39 39 39 37 35 36 37 38 39 41 43 44 38 37 37 36 39 45 51 57 61 63 66 66 63 58 54 54 63 70 66 65 57 57 55
52 45 46 44 42 39 39 39 39 35 31 31 33 34 33 33 31 29 26 25 25 28 30 34 37 42 48 51 54 52 53 60 56 57 54 59 63 77 85 82 64 56 49
44 42 43 39 35 35 33 32 29 26 25 23 21 18 19 20 20 21 22 23 23 27 35 39 39 38 40 42 44 46 44 41 45 50 52 52 58 65 72 70 58 55 51
41 40 34 33 31 27 23 21 20 19 17 15 14 14 14 17 21 21 22 23 23 22 21 22 23 24 25 24 24 28 29 25 28 36 43 44 45 47 58 79 58 59 52
38 32 29 27 23 19 19 19 18 15 12 13 11 12 14 16 16 18 16 14 15 16 17 18 19 19 19 19 19 20 21 22 23 28 35 38 40 36 41 40 51 60 54
27 26 23 20 19 19 19 14 11 11 10 8 11 13 16 18 17 15 15 15 17 18 20 20 20 18 17 17 18 18 18 18 19 19 29 30 35 46 36 35 39 45 50
21 19 18 19 19 18 14 11 9 7 8 10 13 16 20 17 17 17 19 20 22 23 23 21 19 17 15 13 11 11 13 15 19 27 26 29 33 35 29 34 35 35 38
18 18 18 19 17 14 12 10 7 7 9 12 15 16 17 19 21 23 25 25 26 26 26 25 24 23 23 23 22 21 18 14 13 27 22 24 25 23 22 24 30 35 36
20 22 22 19 17 16 14 10 8 10 11 13 15 21 26 27 31 31 33 36 38 38 36 33 32 31 29 28 29 30 28 26 29 33 31 31 30 29 25 19 23 28 34
26 28 28 25 19 15 14 16 16 17 20 22 27 32 35 35 39 41 42 43 42 40 40 40 40 37 37 37 37 36 36 37 37 37 35 36 34 34 31 25 21 25 29
32 29 28 26 20 20 22 24 30 31 33 35 39 39 42 42 44 47 46 47 46 45 44 42 41 39 39 38 38 38 37 38 37 38 38 38 38 38 37 34 27 24 24
29 30 31 29 18 26 28 32 35 39 42 41 46 47 46 47 52 50 49 48 47 45 45 45 44 43 42 41 40 38 38 37 38 37 37 38 40 41 39 38 35 31 29
35 34 34 29 21 30 34 37 38 42 44 45 49 49 48 48 50 52 52 52 49 48 47 47 46 44 43 42 40 39 37 36 36 36 36 38 39 41 41 39 37 35 34
39 39 38 34 23 27 32 37 41 47 49 48 49 47 48 46 50 53 54 52 49 48 48 47 46 44 40 38 38 37 37 35 33 33 32 31 33 37 38 37 37 36 36
44 42 39 37 39 31 35 38 40 44 47 47 47 48 49 49 52 55 53 50 48 49 50 49 46 44 42 40 39 38 37 37 38 37 36 33 30 32 32 32 33 34 35
43 40 38 41 41 42 36 39 42 45 49 51 49 48 51 51 54 55 53 53 54 52 52 52 51 50 50 48 46 44 45 44 43 41 41 41 38 35 32 31 31 31 30
41 43 48 47 55 88 73 57 54 56 57 56 54 55 55 56 58 58 58 55 53 52 53 54 57 54 54 53 52 50 51 51 49 45 44 45 45 41 39 38 35 34 33
50 51 59 59 57 66 78 73 62 65 65 59 62 62 63 63 61 58 59 57 55 54 54 53 51 51 50 49 49 50 47 45 44 46 45 45 45 46 47 45 42 40 38
51 55 62 63 62 62 61 58 61 60 63 66 67 67 68 66 64 61 63 63 60 58 55 53 48 47 48 48 45 39 38 39 38 40 38 44 50 50 47 47 48 47 44
60 65 65 67 62 60 57 59 62 66 70 72 71 70 68 65 62 63 64 62 59 55 51 48 44 41 38 37 36 33 34 36 36 36 39 39 42 50 60 57 52 52 52
63 59 57 54 55 56 57 60 64 68 69 67 65 66 66 66 65 65 64 61 55 48 46 44 43 40 38 38 42 41 38 35 38 41 44 47 49 55 60 70 78 74 66
50 51 49 52 54 55 57 58 58 57 55 57 61 63 65 65 66 65 59 52 49 49 48 46 45 41 39 41 47 50 50 48 45 39 37 41 45 48 55 62 71 80 80
51 53 53 52 53 56 56 54 54 54 55 57 58 57 55 53 51 52 52 52 53 51 49 42 42 43 46 48 50 55 58 61 58 48 43 42 43 41 44 52 61 82 93
52 51 53 56 57 54 50 49 47 47 49 51 52 53 54 55 56 56 58 58 52 45 45 44 47 48 48 47 46 42 46 46 51 48 39 37 36 38 42 47 54 61 69
50 54 57 56 55 54 54 53 54 54 54 54 54 54 54 55 56 56 52 47 45 45 45 44 43 42 41 42 43 45 45 42 42 49 46 36 34 31 32 39 47 54 61

GFSSE_prec_cthk_036.txt.gz
RH
72 56 53 51 47 44 43 41 39 38 38 40 41 41 38 38 41 45 47 48 50 50 48 45 45 45 47 51 54 60 63 63 59 58 60 55 56 55 61 63 59 60 60
67 55 50 45 42 41 38 37 37 37 38 33 30 31 33 33 32 32 31 31 28 27 28 30 33 36 42 46 52 57 60 56 56 56 54 56 54 60 62 68 68 60 56
55 49 45 43 41 37 38 37 36 34 29 27 27 25 24 24 23 22 21 20 20 22 24 29 32 34 37 42 46 48 48 45 47 49 54 57 59 65 84 68 69 63 57
55 44 43 41 38 37 34 32 27 23 21 19 17 14 14 15 17 18 18 18 19 21 23 24 24 28 28 28 28 29 34 40 38 39 43 49 54 63 62 59 58 63 58
51 42 41 36 33 30 23 20 18 18 16 13 12 12 13 15 15 17 18 16 13 12 14 15 16 16 17 16 18 20 21 25 28 32 34 34 36 39 42 43 55 58 53
42 39 34 31 26 20 18 18 16 13 12 12 10 11 13 15 15 12 11 10 12 14 15 16 17 17 17 17 18 19 20 21 21 26 29 32 35 35 43 48 43 39 43
34 31 27 23 19 18 18 14 11 10 9 8 10 12 16 16 13 14 15 17 18 20 21 20 19 18 16 14 12 11 12 14 18 16 23 26 27 34 40 34 30 36 40
26 22 19 18 18 17 14 11 8 7 8 10 13 16 15 14 15 17 19 21 23 25 25 24 24 24 23 23 22 21 20 18 20 23 23 24 23 30 34 28 25 27 28
19 18 17 17 17 14 12 9 6 7 9 12 14 14 16 20 23 24 26 29 31 31 31 30 29 30 30 29 29 29 28 25 25 33 34 29 27 29 28 27 32 30 32
17 17 17 18 17 14 11 8 8 9 11 14 18 23 26 28 30 35 36 38 38 37 37 38 37 33 33 34 35 35 35 33 35 35 37 40 38 38 39 37 30 26 34
23 24 24 22 16 13 15 16 17 19 20 23 27 30 30 34 37 40 40 42 40 39 38 38 36 35 35 35 35 36 36 37 39 40 39 38 38 41 41 39 37 31 27
24 25 23 23 16 16 20 25 29 30 33 35 35 35 38 38 40 42 44 45 45 43 43 42 40 39 38 37 38 37 36 37 37 38 37 38 39 41 43 44 43 40 34
24 25 24 26 20 19 25 31 35 39 40 39 39 39 40 39 41 43 45 46 46 44 43 40 39 37 37 37 36 37 37 36 35 35 36 35 36 39 40 43 43 43 40
29 29 32 31 24 22 30 35 41 43 43 44 45 43 43 40 41 45 47 47 46 43 42 40 41 41 40 39 37 35 32 32 33 33 33 32 31 33 37 39 40 40 39
33 34 36 35 29 24 30 35 37 39 43 44 42 45 47 45 46 50 49 49 47 47 47 47 46 44 43 42 41 39 36 34 34 34 34 34 34 33 30 30 32 34 36
35 38 41 40 39 38 32 35 42 46 50 54 53 52 53 52 50 49 51 53 54 52 50 48 47 47 46 47 45 45 44 42 40 40 42 41 40 39 37 35 32 30 30
39 41 39 42 49 56 54 64 63 60 59 61 60 56 55 55 53 53 57 58 57 55 51 50 48 47 46 45 46 46 45 45 47 47 48 49 48 44 43 42 38 36 33
49 49 48 52 63 69 67 61 62 64 62 61 60 57 61 62 62 62 62 60 56 52 53 55 52 50 48 46 44 40 42 42 44 45 45 44 45 44 42 44 45 43 40
50 54 57 63 71 78 77 70 65 58 60 63 63 67 70 68 62 60 58 58 55 54 56 56 56 52 47 42 40 38 37 36 35 36 39 40 36 39 45 49 48 49 48
56 63 77 80 82 81 81 73 67 65 67 70 72 74 72 69 68 65 63 63 61 61 60 60 54 45 41 38 35 32 29 28 27 28 31 34 37 37 37 40 45 48 52
69 73 78 83 79 77 74 64 65 69 68 72 72 69 66 68 68 70 72 68 67 64 60 53 45 42 40 37 32 29 28 29 31 32 35 38 39 40 39 39 40 44 48
67 70 70 63 65 64 60 61 64 68 71 71 71 70 70 72 73 74 69 65 63 60 53 48 48 46 42 36 34 35 32 30 32 34 34 37 40 43 46 49 51 51 51
56 54 55 56 54 55 57 58 61 64 63 61 62 63 66 65 61 60 58 57 56 54 54 53 48 41 38 40 43 47 45 41 36 32 32 35 39 40 41 43 47 52 55
49 50 51 55 59 57 54 53 51 49 50 53 56 58 56 55 55 56 56 56 55 52 45 40 40 42 46 46 43 42 43 44 42 31 33 33 31 32 34 36 40 44 52
52 55 52 49 47 45 44 47 49 51 52 54 54 53 53 55 55 55 54 52 46 43 42 42 42 44 45 48 50 48 48 45 48 47 36 36 31 31 34 35 34 35 39
45 44 46 46 47 49 51 53 54 56 53 51 51 54 57 57 54 51 51 50 49 48 47 46 48 50 47 48 51 49 48 46 47 48 46 36 37 32 34 37 38 36 40

GFSSE_prec_cthk_039.txt.gz
RH
65 61 59 57 54 47 45 42 41 38 36 37 38 35 34 35 35 35 36 39 40 38 37 38 39 38 39 41 44 48 52 52 54 53 52 51 51 48 50 53 56 58 60
62 55 52 51 47 42 37 37 35 35 35 33 30 29 28 28 29 28 27 24 23 22 24 26 31 33 34 37 40 44 48 48 46 39 45 50 52 55 58 61 61 61 54
54 46 47 47 41 38 36 35 34 32 27 26 25 23 20 18 17 18 18 18 17 19 22 26 29 31 32 31 32 34 35 34 35 36 36 41 47 49 55 63 56 55 53
53 50 47 43 38 37 35 31 28 23 22 20 16 13 12 13 14 15 17 17 18 15 14 15 16 17 17 17 18 18 20 22 25 30 30 33 35 41 44 42 44 38 48
48 47 47 37 36 33 27 22 19 17 16 13 12 10 11 13 14 14 12 10 10 11 13 14 15 16 17 17 18 18 19 19 21 25 29 32 33 33 35 35 35 41 47
46 43 37 32 30 23 18 17 16 14 12 11 9 10 12 15 14 13 14 16 17 18 19 20 19 19 17 15 15 15 16 17 17 21 26 29 28 26 27 35 37 37 32
43 38 31 26 22 18 17 16 13 11 8 8 9 12 16 14 15 16 19 21 23 24 25 24 23 23 23 22 21 21 22 23 22 19 21 24 26 27 34 37 33 25 29
36 30 24 20 18 17 15 13 9 6 7 8 12 15 15 17 20 23 25 28 29 29 29 28 27 27 27 28 28 28 27 25 27 32 35 33 29 28 32 31 28 26 29
25 21 18 17 17 16 13 9 6 7 9 12 14 17 22 26 28 32 34 35 35 34 34 34 34 32 33 32 31 32 33 30 30 34 38 39 39 41 46 39 36 31 25
19 18 17 18 17 15 10 7 7 9 12 15 20 26 29 31 33 35 37 38 38 37 37 35 34 33 33 33 33 33 34 36 37 37 40 41 42 42 45 47 41 36 31
18 17 19 20 17 14 11 11 13 16 19 24 29 31 32 34 36 38 39 41 42 42 41 40 39 37 36 34 34 35 35 35 35 36 39 39 41 39 40 43 41 40 37
20 24 25 25 16 15 18 21 23 25 29 32 32 35 36 36 37 38 40 41 44 44 42 41 40 37 37 37 37 37 36 37 38 36 34 34 35 36 38 40 42 42 41
27 28 25 24 15 16 20 26 29 32 34 35 35 37 38 38 38 42 43 45 45 44 42 41 41 42 43 44 44 44 43 41 37 35 34 33 32 32 32 35 37 39 40
30 30 32 30 21 19 23 27 30 34 35 37 40 42 46 47 47 47 47 47 47 46 47 48 47 46 46 45 44 45 45 44 43 38 36 35 34 35 34 31 30 31 34
32 33 35 30 26 26 23 28 33 37 43 50 51 51 52 51 49 48 50 50 48 49 51 51 50 47 45 44 43 42 44 45 45 44 45 41 40 39 40 40 38 34 31
37 39 41 35 32 35 37 38 47 54 56 53 53 53 52 51 52 54 54 52 51 51 52 51 50 49 49 48 46 44 43 44 44 46 45 45 46 44 44 46 45 43 39
41 45 46 43 42 48 60 62 63 59 59 58 55 55 58 59 60 61 61 60 57 56 55 54 52 52 52 51 49 46 43 41 40 40 42 44 45 45 46 49 47 45 44
44 48 53 60 61 67 77 81 80 77 68 62 62 63 65 65 65 64 63 63 63 61 60 58 55 56 55 52 48 43 40 38 39 38 37 36 37 39 38 41 44 43 42
50 56 66 75 82 88 92 85 81 72 69 65 65 67 67 66 66 64 61 60 61 64 63 64 60 57 54 48 39 34 32 31 30 28 27 26 27 29 30 31 32 37 41
54 68 75 87 91 92 85 83 77 72 66 66 68 69 69 71 69 68 69 74 74 69 65 60 56 53 49 41 37 34 33 31 29 28 31 33 33 33 33 33 33 33 36
69 80 83 85 87 82 79 80 74 66 69 69 69 72 71 70 73 74 76 71 66 63 58 53 52 50 46 42 38 33 29 27 29 29 29 31 33 35 37 37 38 39 40
80 72 67 66 65 66 69 66 64 66 64 63 64 64 63 65 66 67 63 60 58 59 59 56 50 47 44 40 35 33 31 30 31 34 31 29 28 29 30 33 37 40 40
65 63 63 61 58 56 58 60 60 56 54 52 52 53 54 57 58 57 57 58 58 55 52 46 42 39 37 37 38 40 40 38 35 33 33 33 33 32 31 29 27 28 34
60 59 57 56 55 54 52 51 50 50 52 56 58 60 62 59 58 58 59 59 54 51 47 43 40 37 36 38 40 42 45 48 45 37 37 34 33 35 35 31 31 32 33
61 57 54 52 50 50 52 53 54 56 59 62 62 61 58 56 55 55 52 49 47 46 46 45 42 41 47 51 53 52 51 49 48 50 41 40 37 37 39 37 33 34 36
59 61 61 61 61 63 62 62 63 65 65 63 60 57 56 53 50 46 44 45 48 48 46 44 44 44 45 46 47 47 45 47 48 56 53 46 52 46 45 48 44 39 38

GFSSE_prec_cthk_042.txt.gz
RH
64 65 63 65 61 56 53 49 44 37 34 36 34 31 30 29 30 32 34 33 31 29 27 28 28 30 32 32 33 34 37 39 42 44 40 43 50 50 50 54 56 58 61
62 59 56 53 52 47 43 43 39 36 36 33 30 29 27 26 24 25 24 22 21 21 21 23 25 26 28 30 31 31 32 33 33 35 36 36 46 51 56 61 63 60 58
59 55 52 54 46 40 37 37 36 35 31 28 26 22 17 14 14 15 17 18 18 19 18 18 20 22 22 22 23 23 21 21 21 24 30 29 33 42 45 50 56 54 56
57 52 52 47 43 37 37 35 33 28 25 21 16 11 11 12 14 15 14 13 11 11 12 14 15 16 16 17 17 17 17 17 17 19 21 25 29 32 37 38 40 40 41
58 52 48 48 40 36 34 29 23 19 16 12 12 9 11 14 14 13 13 15 17 19 19 20 20 20 19 19 18 18 18 18 17 18 21 23 26 26 28 29 37 39 37
52 49 49 41 35 31 23 18 18 15 12 11 8 10 14 15 15 17 19 21 23 24 23 23 22 22 22 22 22 22 21 22 21 18 20 22 25 28 26 30 36 35 35
51 50 42 34 27 20 18 17 15 11 8 7 9 14 16 16 18 20 23 25 26 27 27 27 26 26 27 26 26 26 25 26 29 28 29 30 28 26 26 34 34 27 30
53 44 33 25 21 18 17 14 9 6 7 10 14 16 18 20 24 28 30 31 32 33 32 32 32 32 32 31 32 32 31 28 27 33 36 36 36 33 34 36 33 28 23
43 32 26 20 17 16 14 9 6 8 10 14 17 19 24 27 30 31 32 33 34 35 36 37 36 35 35 34 33 32 33 33 33 33 37 39 39 38 36 40 39 35 30
27 23 19 17 17 15 10 7 8 10 15 17 22 28 30 32 32 33 35 35 36 38 40 40 39 38 36 36 35 34 34 34 33 35 37 38 39 41 41 39 39 38 35
20 18 18 18 17 13 8 8 11 14 17 24 31 33 34 34 33 34 36 37 38 40 40 42 41 38 38 39 40 39 37 35 35 36 35 35 36 36 36 36 38 38 37
17 17 21 21 16 13 13 15 17 21 29 32 35 36 37 35 36 38 40 43 44 44 43 42 42 43 43 44 45 46 45 45 43 38 37 36 35 33 32 33 35 37 38
23 25 23 19 14 16 19 23 26 30 35 36 38 42 45 48 48 49 48 48 48 46 44 45 47 47 48 47 45 45 46 46 46 44 42 39 35 33 33 32 31 30 30
28 30 29 24 17 21 25 29 34 36 39 40 46 52 52 54 51 49 47 47 47 48 47 47 49 50 50 49 48 48 47 45 45 46 45 44 42 40 36 35 36 35 33
35 36 36 32 30 30 30 34 39 43 48 55 58 57 56 53 53 51 50 52 49 49 50 50 51 50 50 49 48 48 48 47 46 44 43 45 45 44 43 41 39 38 38
40 42 46 45 41 43 45 45 47 54 62 65 68 65 59 57 56 58 56 55 52 54 58 57 57 55 53 52 51 50 49 46 45 43 41 40 41 40 40 40 42 41 42
45 50 51 54 48 51 55 60 64 77 76 76 72 64 59 59 59 60 59 57 59 60 60 60 61 59 57 57 56 54 51 48 43 37 35 35 36 38 38 40 41 40 43
44 47 53 63 73 75 81 81 86 83 82 84 82 66 64 63 63 63 64 63 61 60 62 64 67 63 58 56 51 49 45 43 35 32 30 28 27 27 27 27 29 32 34
45 50 61 75 82 83 87 88 86 89 87 85 74 69 69 69 65 67 64 62 70 70 78 70 62 57 54 52 49 46 43 40 36 34 31 30 30 30 30 29 29 29 28
55 61 67 81 88 93 95 95 93 83 75 72 73 72 69 70 67 64 68 70 64 62 61 58 56 54 49 46 44 42 38 34 30 30 31 32 32 32 32 32 31 32 33
65 72 83 90 90 94 88 77 73 69 69 65 63 60 59 57 59 61 61 62 60 55 53 53 52 48 44 39 32 30 30 31 35 34 32 31 32 31 30 30 30 31 34
81 84 85 76 71 69 68 64 60 60 59 54 52 52 53 54 55 56 57 54 52 53 52 50 45 40 37 35 33 31 30 29 31 36 37 34 34 33 31 28 27 25 24
70 65 63 64 64 62 59 53 49 49 51 55 57 58 59 58 58 56 55 55 55 51 47 42 39 37 34 32 32 34 35 35 34 35 37 38 40 40 38 35 33 33 32
61 59 58 59 59 54 55 58 61 63 64 66 66 65 64 62 60 57 53 49 44 40 37 36 34 33 33 34 35 38 41 43 45 42 41 35 36 35 36 37 36 36 36
65 63 65 68 67 69 69 69 68 66 70 68 69 64 60 56 53 49 44 37 35 35 34 33 35 35 36 37 37 36 36 38 41 46 42 44 38 34 36 37 38 39 38
71 72 73 74 79 76 72 71 71 68 68 66 60 57 53 48 43 38 34 33 33 32 29 30 30 31 32 34 36 37 37 39 41 48 52 51 46 40 42 45 48 51 49

GFSSE_prec_cthk_045.txt.gz
RH
68 68 67 64 61 56 51 47 43 39 37 37 34 32 32 29 29 28 30 30 29 26 25 24 24 25 25 27 29 29 29 30 31 33 35 37 38 45 50 52 53 54 56
70 68 64 62 58 54 49 45 41 38 36 33 31 29 26 24 23 22 21 20 19 20 20 21 21 22 23 25 25 25 24 23 24 25 28 34 36 41 49 52 58 59 57
72 72 64 61 56 51 47 44 41 37 33 31 28 23 19 15 16 16 16 15 15 14 16 18 18 18 17 17 17 16 15 15 16 18 22 28 30 36 40 44 47 50 54
69 64 62 56 51 49 43 42 38 33 28 26 19 13 11 13 15 15 14 14 17 18 20 20 20 21 21 20 19 19 18 18 19 19 21 24 28 31 34 37 39 43 39
64 61 55 52 52 44 41 38 30 25 22 15 12 9 12 15 16 16 17 19 21 22 22 22 21 20 19 19 19 19 19 19 18 18 21 25 27 27 29 31 31 34 34
59 55 52 51 44 42 37 26 21 18 14 11 8 11 15 16 18 19 21 24 24 24 23 23 24 23 23 24 24 23 23 24 25 25 24 23 26 29 30 29 31 32 29
54 54 49 46 40 34 23 20 17 13 8 7 10 16 17 19 21 23 26 27 27 28 28 28 28 29 28 27 27 27 27 25 24 28 29 31 30 28 27 30 36 38 28
55 54 47 36 30 23 20 18 12 6 6 11 17 18 20 23 27 30 31 31 31 31 32 32 32 32 32 32 31 30 30 29 28 28 33 36 36 35 32 33 37 35 34
55 49 35 28 23 20 18 12 6 7 11 16 18 22 26 29 33 32 32 33 32 33 34 32 35 34 34 32 31 31 31 30 30 31 32 34 36 38 37 36 38 38 35
46 33 28 21 20 18 13 8 8 12 16 19 24 29 32 33 34 34 34 35 36 37 38 37 37 35 34 36 36 36 36 34 31 31 32 32 34 35 35 36 35 36 39
29 26 21 20 20 16 10 8 11 15 19 27 31 34 36 36 36 36 42 46 46 45 45 43 41 39 40 40 41 40 39 40 40 39 36 34 33 33 32 32 32 32 35
22 19 19 22 20 14 10 12 16 20 26 34 37 37 38 41 43 48 49 49 48 47 47 45 43 44 44 45 46 46 44 43 42 42 43 41 39 36 33 32 30 29 30
18 22 25 23 17 18 21 22 26 32 35 38 40 42 46 49 53 52 50 49 49 47 48 46 46 46 46 46 46 46 45 45 44 43 42 41 41 41 39 35 31 29 28
26 27 30 20 20 25 29 34 37 40 42 44 47 52 57 61 59 57 53 52 52 50 49 49 49 49 49 49 47 46 45 45 45 43 42 40 38 37 38 39 37 36 32
38 37 39 31 28 30 34 38 41 44 46 52 59 66 70 70 65 61 57 55 55 53 53 53 55 55 55 54 52 51 49 48 47 45 42 40 36 34 35 35 36 36 36
48 50 49 45 42 41 40 41 46 54 62 63 71 76 81 77 72 68 63 62 58 59 61 58 57 56 58 58 57 53 51 51 48 44 41 38 34 32 34 35 35 35 36
51 53 54 58 51 55 58 63 59 66 69 68 75 83 83 82 77 73 64 60 60 60 58 58 63 62 65 64 59 58 52 47 44 40 35 32 29 27 26 25 26 29 33
50 54 59 64 70 71 80 82 84 88 83 76 84 85 79 79 72 69 66 68 66 59 63 69 72 63 63 55 51 49 48 44 41 38 35 30 28 27 27 26 25 24 24
53 57 61 67 79 90 90 89 90 86 83 82 78 71 71 70 67 68 65 65 62 68 65 63 60 56 51 49 47 46 43 39 35 30 27 26 27 28 29 29 29 29 28
55 60 67 72 84 92 93 94 85 85 77 71 68 68 65 61 58 57 58 60 61 61 60 57 54 53 49 44 38 33 30 28 27 27 27 28 28 28 27 26 25 26 27
60 68 74 84 92 84 92 81 68 68 62 57 54 53 54 55 57 57 57 56 54 52 50 48 45 40 36 32 29 30 26 24 26 27 26 25 26 26 25 23 23 22 22
66 77 84 79 75 67 62 59 56 58 56 57 61 63 63 61 61 59 57 55 54 50 46 42 37 32 28 26 26 30 32 33 33 32 31 29 29 29 28 27 27 26 26
54 58 60 60 58 55 55 61 65 66 68 69 68 67 65 63 60 56 52 49 46 40 35 31 29 27 27 27 27 32 34 32 33 31 32 29 29 28 27 28 29 30 32
62 61 62 65 65 65 67 71 69 72 69 69 69 67 64 62 57 51 45 38 31 28 26 26 24 23 24 28 27 29 31 35 38 36 36 30 28 30 30 29 30 32 32
60 66 69 74 77 80 79 77 78 76 76 74 73 65 61 57 50 42 33 27 27 28 28 27 26 26 25 27 32 32 31 37 40 43 46 44 44 37 36 34 34 35 36
65 70 77 79 76 78 80 77 77 78 74 70 65 60 55 48 38 33 31 32 33 33 31 32 32 33 35 36 38 41 41 43 48 53 53 51 53 48 45 42 42 48 49

GFSSE_prec_cthk_048.txt.gz
RH
74 71 69 62 60 53 48 47 44 41 39 37 33 31 27 24 23 24 27 26 25 23 21 21 21 22 24 25 26 26 26 27 28 28 29 31 34 36 42 45 51 56 51
75 73 72 69 62 54 51 48 43 41 38 35 31 28 23 21 22 22 22 21 19 17 17 20 21 22 23 22 21 21 20 20 21 22 25 30 33 34 39 45 50 54 55
78 79 75 69 60 55 52 47 42 40 35 31 29 24 20 18 17 17 17 17 17 17 18 19 18 18 19 19 18 19 18 17 18 20 24 40 41 34 36 39 42 43 43
80 80 72 62 56 55 51 45 42 38 32 29 23 17 14 15 17 17 16 16 18 20 21 21 21 20 19 18 17 17 18 18 20 21 34 38 44 34 35 33 35 37 39
83 76 64 58 55 54 46 42 40 33 28 21 15 12 14 16 17 17 19 21 22 22 22 21 20 21 21 21 21 21 20 20 20 27 34 32 44 38 36 33 32 29 29
82 71 61 57 55 47 41 39 31 27 20 15 10 13 16 17 19 21 23 24 24 24 23 24 25 25 25 25 25 25 24 22 27 33 35 37 38 37 43 31 32 32 31
77 72 59 57 53 44 36 29 25 20 13 9 12 16 18 20 22 25 26 26 25 26 27 28 28 28 28 28 28 28 28 28 31 35 36 43 37 34 32 30 30 33 36
75 67 59 55 43 34 25 23 20 12 9 11 16 18 21 24 27 29 30 29 29 29 29 29 30 29 29 27 27 27 27 28 32 35 36 39 33 34 34 33 32 34 33
73 65 60 48 31 25 21 20 12 9 12 16 19 22 26 30 32 32 32 32 33 34 34 35 34 32 30 31 31 31 31 31 34 35 35 37 31 32 33 33 33 34 34
69 63 51 37 27 21 18 12 9 12 16 19 24 29 33 35 35 35 37 39 44 46 43 42 41 38 36 35 36 37 37 38 39 41 41 33 31 30 30 30 31 32 32
62 45 33 31 23 19 18 11 12 15 20 26 31 33 37 41 40 43 44 47 48 46 44 43 41 40 39 39 39 38 40 44 44 45 44 39 38 36 34 33 31 31 31
41 30 24 22 20 18 16 11 14 18 27 33 36 38 43 43 49 51 50 51 49 47 45 46 45 44 45 48 48 44 45 43 46 46 47 40 38 38 38 38 36 34 32
28 25 22 24 21 17 15 16 21 26 34 38 42 45 46 52 57 60 61 62 58 54 52 50 50 50 46 46 47 46 46 47 47 47 47 42 40 38 35 33 33 36 36
26 26 28 23 19 22 24 26 33 40 40 43 48 50 55 66 68 68 73 72 64 62 56 53 55 53 51 49 49 50 50 50 49 47 48 43 41 38 35 31 29 29 29
31 33 29 23 27 31 34 38 42 44 47 49 53 60 66 70 76 77 80 80 72 68 63 62 61 56 54 52 52 54 57 52 50 48 47 42 40 38 34 30 29 31 31
39 42 44 38 36 37 40 43 44 46 50 58 64 71 75 79 83 87 86 86 72 65 62 64 58 56 60 59 61 57 59 57 54 49 46 44 35 31 29 27 26 27 29
50 54 57 57 56 57 52 49 50 56 68 71 74 77 78 82 83 84 84 75 74 71 68 65 61 63 67 62 62 58 58 54 50 44 42 39 37 31 26 24 24 23 23
52 58 63 71 74 75 82 83 81 85 86 85 79 80 80 89 80 76 75 72 67 63 64 63 63 64 62 60 57 54 49 46 44 39 37 33 30 28 27 24 22 23 24
58 61 64 66 72 84 87 96 93 89 91 88 84 80 77 71 69 66 59 56 57 58 60 60 60 55 53 49 46 41 37 34 30 29 28 29 28 26 26 25 21 23 22
57 61 67 71 78 83 98 89 89 84 82 73 74 67 61 57 56 55 56 56 58 58 54 47 46 45 41 38 34 30 31 28 27 30 28 28 29 26 24 23 22 23 21
61 64 69 74 83 87 85 79 75 65 62 58 59 61 64 65 63 61 57 55 54 52 46 44 40 35 31 32 31 30 29 32 39 37 34 32 31 28 27 26 25 25 26
63 66 70 72 68 64 60 60 63 64 66 70 70 69 68 69 68 66 62 59 54 50 45 39 33 29 29 33 35 31 28 29 32 47 42 39 35 28 31 31 29 26 25
65 66 68 67 63 60 61 63 69 71 71 75 78 77 74 71 67 62 56 51 46 39 34 31 30 30 31 31 36 36 36 33 35 31 39 41 39 35 32 32 32 32 32
58 57 57 61 63 61 64 68 71 74 80 81 80 75 76 70 61 55 49 41 36 33 33 33 34 33 33 33 32 36 42 44 41 36 38 37 40 41 39 37 38 40 40
57 58 60 63 62 64 66 69 70 75 78 81 79 78 72 66 56 46 39 36 37 37 38 37 37 38 37 40 43 44 50 49 52 53 48 45 49 50 50 50 46 46 48
58 61 62 62 63 64 67 69 73 77 78 77 76 72 67 60 51 44 40 40 40 41 41 43 43 42 45 51 55 58 63 65 66 68 69 69 68 55 59 54 60 52 54

GFSSE_prec_cthk_051.txt.gz
RH
75 64 62 56 58 55 49 44 41 35 36 35 32 28 25 23 22 23 25 24 22 19 19 20 21 21 21 22 23 22 22 22 22 24 26 28 30 33 36 41 48 48 47
73 70 67 62 61 57 48 45 42 38 37 34 31 27 23 21 21 21 18 16 16 16 18 19 19 19 18 17 16 17 16 16 17 18 26 33 39 35 34 36 41 44 47
77 77 72 69 65 57 50 47 44 39 36 33 29 23 18 18 17 16 16 16 17 17 18 19 19 19 18 18 17 17 17 17 17 19 33 55 47 35 36 33 36 38 40
83 83 78 74 66 55 52 51 45 40 36 31 23 17 14 15 16 17 17 17 19 20 21 21 20 18 17 17 17 18 17 16 17 25 41 53 55 44 36 40 34 32 35
89 85 79 74 58 55 54 51 42 39 34 25 18 12 15 16 17 17 19 21 22 23 22 22 22 22 22 22 22 22 21 21 28 34 42 35 44 37 40 41 36 29 26
89 90 78 68 55 55 54 45 39 34 27 18 12 14 16 17 19 21 23 24 24 23 24 24 25 25 25 25 25 25 25 26 35 44 46 46 36 30 41 38 29 28 32
91 86 75 61 56 54 47 40 33 28 18 13 13 16 17 21 23 25 26 26 25 25 27 28 28 28 26 25 25 25 24 26 31 39 44 47 39 31 31 31 27 26 30
92 86 74 62 57 53 41 31 27 19 13 11 15 17 20 25 27 28 30 29 29 30 30 33 35 33 32 29 29 30 29 31 37 37 38 39 33 31 31 31 31 31 30
86 81 72 67 62 42 30 26 20 12 10 14 17 19 25 29 30 31 33 32 34 37 38 40 40 38 37 35 33 32 32 33 37 42 44 37 29 29 29 28 29 29 30
83 81 73 65 47 31 25 21 13 9 12 15 19 26 32 33 34 33 35 38 41 41 41 41 41 40 40 38 37 37 35 38 40 44 48 41 35 35 34 33 32 30 30
91 80 70 56 42 37 26 14 11 11 15 19 27 32 37 41 40 42 40 43 43 41 42 43 44 44 43 47 46 43 42 47 42 48 50 41 37 36 36 36 36 35 34
82 60 51 41 32 31 29 15 16 15 18 31 38 38 51 47 50 51 47 50 49 49 48 50 49 48 52 58 58 52 51 47 49 49 50 43 40 38 38 37 35 34 34
60 47 34 31 28 27 26 22 19 20 31 41 43 50 49 48 57 63 70 71 72 66 68 64 61 61 57 56 55 52 49 50 51 51 49 44 41 40 39 37 35 32 28
40 31 29 26 23 25 23 26 27 33 42 51 53 49 54 57 68 72 82 79 83 82 77 77 72 65 59 55 49 48 50 52 53 52 53 46 43 41 40 37 33 31 28
31 35 35 30 23 26 31 34 41 44 52 57 63 65 71 81 89 93 89 84 82 79 80 69 68 66 60 56 55 56 55 57 58 53 55 50 45 40 37 34 31 29 27
37 38 34 30 34 38 41 42 49 54 55 58 62 69 75 74 74 77 80 84 86 77 75 70 67 64 62 58 60 59 57 56 56 54 50 49 43 40 36 30 27 24 24
42 47 48 47 50 55 58 61 60 64 63 62 62 66 70 76 79 81 82 85 83 76 67 63 61 59 60 61 60 57 55 52 49 48 46 44 44 37 33 28 23 22 21
51 55 60 63 63 60 66 70 75 76 75 73 77 74 77 80 82 84 77 71 62 57 54 55 57 57 55 52 50 47 43 38 35 34 33 34 38 35 33 30 28 21 19
54 62 66 68 67 73 76 90 85 84 88 86 85 85 82 78 74 63 62 58 57 59 57 56 54 50 47 41 39 34 32 28 29 28 27 33 36 38 33 31 30 22 23
61 65 68 68 74 77 79 88 88 83 82 82 80 76 66 66 65 67 65 62 62 58 57 55 49 43 38 35 32 31 29 28 27 33 38 41 42 43 41 38 32 28 27
65 68 64 68 71 74 77 72 67 66 70 68 65 63 70 71 69 70 68 66 60 57 54 49 43 38 36 35 33 31 32 31 34 40 42 47 47 44 43 41 41 40 36
65 67 67 71 77 79 71 65 62 62 64 67 71 70 70 72 73 72 69 69 63 55 47 43 38 35 34 35 34 35 36 32 32 43 48 47 46 44 47 46 44 43 43
63 68 72 70 67 63 62 59 63 65 65 64 71 75 76 74 73 72 67 61 53 47 46 45 44 42 39 36 36 38 38 37 39 39 36 40 45 45 40 39 43 45 47
63 62 66 65 62 60 61 62 64 65 69 74 78 78 76 74 73 66 61 59 56 50 49 51 49 44 45 45 43 46 48 48 50 46 47 43 34 40 49 56 57 52 50
57 58 58 59 59 61 59 62 64 69 71 74 75 73 71 71 69 67 62 57 53 53 56 54 53 52 51 50 51 49 48 54 62 62 60 59 58 54 52 53 50 52 52
52 53 56 58 57 54 56 60 64 67 70 72 69 69 72 70 66 62 60 58 57 56 59 58 51 56 56 56 57 62 64 66 65 68 66 61 61 50 56 57 52 46 52

GFSSE_prec_cthk_054.txt.gz
RH
65 58 58 58 58 59 57 51 42 36 31 29 26 24 22 21 21 22 22 21 17 15 15 16 17 17 17 17 16 15 15 16 17 20 29 31 35 33 32 35 36 37 40
69 63 62 61 62 62 58 51 45 38 33 30 26 24 20 20 20 18 16 14 14 16 16 17 16 16 17 17 16 16 15 16 16 27 32 41 42 46 34 34 34 36 39
75 65 66 66 66 65 59 51 47 38 34 30 24 22 18 17 16 16 16 16 16 16 17 18 17 17 17 16 16 16 16 16 24 35 38 45 63 49 37 30 32 34 34
83 73 70 70 69 66 59 54 44 38 34 29 22 17 15 16 17 17 16 18 19 20 20 18 18 19 20 20 20 20 22 25 33 43 48 51 44 41 36 29 35 34 27
81 76 76 76 73 70 60 52 44 36 32 26 17 12 14 16 16 17 20 21 21 21 20 20 21 22 23 22 22 23 24 32 39 46 56 46 39 31 34 34 35 31 25
90 85 83 83 76 68 59 50 39 33 29 19 11 13 16 16 17 20 22 22 22 23 23 24 24 26 26 25 23 23 23 32 34 46 44 48 47 39 29 29 28 25 22
92 94 89 87 83 65 54 45 35 31 22 14 10 15 16 18 21 23 23 24 25 26 26 27 30 33 33 32 29 28 30 32 34 41 39 38 35 29 29 30 29 29 29
95 88 92 85 73 62 52 41 32 23 15 11 12 16 18 22 25 27 27 27 29 29 31 33 33 36 36 37 34 34 32 34 36 41 38 38 32 29 27 28 28 28 27
90 91 86 80 70 60 49 34 24 17 11 11 15 17 23 29 31 31 30 31 33 36 35 34 34 36 39 39 39 38 37 38 38 44 43 41 40 33 34 34 32 31 31
89 87 85 78 71 57 38 27 21 11 11 14 15 24 30 31 33 33 34 36 40 38 38 39 38 39 39 43 48 47 44 43 42 50 41 42 41 36 36 36 37 36 34
87 82 77 69 53 39 29 21 17 14 13 13 21 30 36 38 40 43 38 40 43 42 44 46 45 45 49 53 53 53 51 48 46 49 46 44 41 40 38 38 38 37 35
94 77 66 52 39 31 24 18 15 13 13 19 27 39 46 51 52 44 49 54 59 58 61 64 61 61 63 61 58 58 54 48 47 49 47 46 43 39 39 40 39 36 34
78 71 57 42 34 36 29 22 17 20 23 28 32 44 56 45 57 64 74 85 74 77 76 71 72 74 68 62 57 50 45 47 49 50 52 47 45 42 41 38 37 36 33
56 45 37 32 30 31 26 29 26 26 29 36 43 52 57 60 65 71 78 77 80 79 81 81 76 72 67 63 58 54 50 49 51 51 51 48 45 44 40 39 37 34 32
39 32 30 26 25 23 30 30 32 36 37 51 56 55 56 65 74 87 79 74 78 75 77 77 70 70 65 59 56 55 52 53 51 52 52 51 48 45 43 41 38 34 30
31 32 32 24 26 33 34 35 42 43 47 54 60 60 62 71 70 76 79 77 81 81 80 73 63 56 54 53 54 55 54 53 53 51 49 48 43 41 38 38 34 30 27
32 33 30 35 42 51 52 51 55 62 65 68 68 67 63 70 73 74 79 79 82 72 64 57 52 51 50 50 49 46 44 44 42 39 33 32 32 31 35 33 33 28 24
44 46 50 50 52 55 59 64 74 74 75 77 73 68 69 73 70 73 73 70 66 61 56 54 52 49 46 44 43 39 38 34 30 26 27 28 27 31 34 35 33 31 28
47 54 55 59 67 72 74 75 76 81 70 65 63 66 66 65 66 64 62 62 57 56 56 54 50 44 41 37 33 31 30 27 28 27 27 30 35 39 41 43 41 35 31
50 56 59 63 75 71 70 72 75 71 66 65 62 62 61 62 59 59 55 58 59 58 56 53 48 42 37 34 33 32 32 32 30 31 36 45 51 51 50 48 47 43 40
59 55 58 68 64 70 75 76 65 51 53 53 55 58 56 54 58 58 59 62 61 61 56 51 49 45 41 39 37 35 33 31 35 33 38 43 46 47 51 50 48 47 46
56 52 62 65 68 71 70 60 52 53 53 53 54 52 57 57 61 65 65 63 59 57 54 51 46 42 41 41 38 36 36 33 31 32 34 36 43 47 47 48 45 44 44
58 65 66 63 66 62 66 59 55 54 54 54 54 55 60 65 66 63 61 60 55 51 48 47 46 47 44 40 41 41 38 38 36 35 31 32 34 41 46 49 49 49 46
56 58 62 61 59 63 61 56 57 56 56 60 64 69 67 67 65 65 62 55 52 50 48 48 48 47 45 44 44 44 42 43 45 43 43 41 43 40 41 44 47 50 52
54 58 61 58 61 58 58 57 56 61 64 65 68 67 70 68 67 61 58 55 51 50 50 51 56 55 51 48 52 53 50 49 52 57 52 51 50 54 51 48 46 42 42
52 53 55 58 56 55 52 55 59 61 63 63 63 62 65 69 71 63 58 58 54 53 51 50 53 49 45 44 57 62 61 62 65 67 66 63 57 48 46 45 43 39 39

GFSSE_prec_cthk_057.txt.gz
RH
62 54 56 58 62 61 61 55 47 40 36 25 21 18 17 17 18 18 17 14 11 11 13 14 14 15 14 14 14 14 14 14 21 28 30 38 39 48 39 34 31 34 38
78 67 63 62 63 63 62 55 49 44 38 25 21 17 15 15 14 12 12 11 12 14 14 14 15 14 14 14 14 14 16 19 29 31 40 43 60 62 45 37 31 31 32
85 71 68 69 68 68 63 56 52 45 37 26 19 13 12 13 14 14 14 14 15 16 17 16 15 16 17 18 18 18 27 38 35 38 41 51 44 41 40 34 31 32 29
81 77 76 73 73 72 64 61 53 47 36 24 16 10 11 14 15 14 16 17 18 18 18 18 18 19 20 21 21 26 30 36 34 36 51 66 48 41 32 31 35 35 27
86 78 84 78 77 72 68 63 56 46 31 22 12 9 13 15 15 17 19 20 20 21 21 21 21 22 24 24 23 28 32 34 38 42 56 47 42 40 34 28 25 26 26
84 84 83 81 79 77 70 64 54 39 28 17 10 10 14 15 18 20 21 21 22 23 23 23 25 28 30 32 30 28 31 36 34 37 42 38 34 28 27 29 31 30 29
90 90 88 89 81 77 74 64 52 34 20 16 10 12 14 18 21 22 23 24 25 25 27 27 29 32 34 36 36 35 36 39 39 35 36 36 36 33 29 28 28 29 29
93 97 95 89 88 79 72 59 43 28 20 12 10 12 17 20 23 25 26 26 27 29 31 31 30 33 35 36 38 38 40 43 48 41 41 41 40 39 34 33 33 32 32
94 94 96 95 89 75 64 48 34 21 11 11 10 14 20 24 26 28 28 28 29 32 34 33 33 38 39 41 43 43 43 45 45 46 45 45 42 42 41 37 36 35 35
92 88 93 91 81 67 55 44 36 22 17 11 12 22 24 27 28 28 28 28 31 35 36 35 41 46 50 54 53 51 49 47 49 48 48 49 46 42 41 40 39 39 36
97 90 91 83 74 57 47 40 28 16 16 15 18 24 27 30 33 34 32 36 43 47 51 51 56 57 60 60 59 59 54 50 48 48 46 46 47 47 43 41 39 38 35
88 81 84 72 56 46 38 28 20 17 12 15 25 29 29 35 38 39 46 55 64 70 70 69 68 69 67 66 64 60 55 49 47 49 50 50 51 50 48 41 40 36 33
82 89 71 57 44 31 22 19 17 16 17 21 27 36 43 47 46 53 62 65 73 79 74 76 72 68 70 70 62 56 53 49 47 48 49 48 47 46 45 43 39 37 35
84 71 55 40 35 30 24 22 22 21 22 29 34 45 52 52 60 61 67 72 78 75 72 70 71 72 73 68 60 59 56 55 52 53 51 49 49 48 46 44 41 38 38
70 50 43 35 30 29 25 23 27 29 33 38 42 47 58 63 62 68 77 79 76 74 74 73 74 74 66 56 56 54 51 48 48 47 47 46 45 43 42 38 37 39 37
39 28 26 25 25 25 29 35 37 44 50 56 61 64 67 64 60 72 74 72 74 76 78 72 63 54 48 48 47 46 45 47 46 43 42 42 35 31 30 30 33 34 32
28 29 26 25 33 39 42 45 55 62 64 65 68 69 63 56 60 64 70 70 68 61 55 54 50 45 43 42 42 39 36 35 34 31 28 30 32 31 30 29 31 32 33
36 33 33 41 42 49 57 64 67 68 67 65 62 57 58 55 58 57 54 51 51 49 47 48 47 46 44 42 39 35 32 31 29 28 28 30 31 33 36 39 39 40 38
38 40 45 50 52 68 67 62 63 67 71 62 55 52 52 49 51 52 54 54 52 49 46 46 47 47 44 40 37 34 31 31 29 29 31 33 36 42 47 48 46 46 45
44 49 54 58 61 66 60 62 69 67 63 54 52 51 51 53 50 52 53 53 52 51 51 49 46 43 41 37 35 34 35 34 33 35 37 40 43 48 51 49 48 46 46
44 50 52 58 70 64 65 66 65 60 50 51 52 50 51 54 54 52 50 51 52 52 49 44 42 37 35 35 35 35 34 33 32 33 33 33 38 43 46 49 48 46 44
42 46 56 67 67 66 62 65 54 48 49 49 48 48 51 49 49 51 54 55 52 52 48 43 39 38 38 41 40 36 34 33 33 33 31 31 34 37 43 48 50 51 51
48 52 56 55 59 58 60 54 49 50 48 45 47 47 49 52 54 58 57 56 55 53 48 43 41 41 43 43 42 40 38 38 36 34 33 31 32 33 35 38 43 46 48
49 52 54 58 58 57 53 55 50 46 45 47 50 52 55 54 57 58 59 61 59 55 56 54 46 45 45 45 44 44 41 42 43 42 43 40 39 36 37 40 40 41 42
52 53 52 51 48 53 53 51 49 47 49 50 53 57 58 60 58 61 62 62 58 53 50 47 45 46 48 46 47 45 43 40 46 50 46 46 46 48 45 42 44 44 41
45 48 50 49 53 53 53 51 50 52 55 58 62 64 64 64 64 63 62 57 54 51 50 49 46 46 45 45 45 46 46 47 51 58 56 54 54 52 50 47 49 47 42

GFSSE_prec_cthk_060.txt.gz
RH
58 63 69 67 66 63 59 56 54 52 45 36 25 16 13 12 14 15 13 11 9 10 12 13 12 12 12 12 13 14 17 24 25 28 38 46 47 48 44 35 37 32 37
64 67 68 70 70 63 62 56 58 56 46 37 24 14 10 10 10 10 9 9 12 13 13 13 13 15 15 15 16 19 25 30 30 32 38 51 52 41 32 29 27 28 28
63 67 69 71 72 70 66 60 62 59 47 37 23 15 10 10 10 11 12 13 14 14 15 16 17 17 17 20 23 29 27 29 32 39 43 52 54 38 32 27 29 30 29
67 70 69 68 74 72 66 66 67 60 47 36 20 11 10 11 12 14 15 15 15 16 17 18 18 18 19 27 29 28 29 31 34 41 49 46 39 32 29 28 25 23 24
73 73 74 71 75 72 73 69 70 59 47 32 19 10 10 12 15 16 16 17 18 18 19 19 19 22 25 29 31 31 31 31 32 37 35 33 31 27 24 25 27 27 27
72 78 80 78 80 76 76 74 71 56 44 28 15 9 11 14 17 17 18 18 19 19 20 22 26 27 28 31 32 36 36 33 33 36 34 34 36 35 30 29 29 28 27
81 88 90 87 87 85 80 78 70 53 33 26 16 10 13 17 18 19 20 20 21 22 23 26 28 29 30 32 35 38 39 38 40 40 42 41 39 38 39 34 34 33 32
91 90 96 95 94 88 84 79 62 40 29 19 15 12 17 18 20 20 22 23 24 25 27 30 30 31 34 38 39 42 44 44 43 46 44 42 43 43 41 40 37 35 35
89 89 94 96 95 85 84 73 44 36 32 27 19 15 17 20 21 23 26 26 25 27 31 33 35 37 44 48 50 51 49 50 49 47 47 47 46 45 44 41 39 36 36
97 97 90 94 88 90 80 47 36 28 17 12 14 20 19 22 25 27 26 27 28 33 45 52 53 50 55 56 56 58 56 54 52 51 49 47 46 46 45 43 42 38 37
97 97 92 91 88 78 56 47 45 40 30 20 15 21 25 29 29 31 37 42 48 51 59 63 64 63 67 63 61 62 57 53 54 51 49 51 52 50 47 44 42 38 35
98 93 92 87 74 62 56 45 35 25 22 21 20 23 29 32 38 44 47 53 57 64 69 71 69 66 67 68 65 65 61 55 53 49 48 49 50 49 47 44 42 39 36
91 84 84 77 68 52 40 32 24 20 19 22 24 27 33 41 43 51 55 61 63 70 72 72 71 69 66 69 68 63 55 50 49 49 47 45 45 46 45 45 43 41 37
80 74 71 62 48 31 22 19 18 18 22 26 28 34 40 45 56 60 60 63 72 73 72 75 73 69 70 64 57 54 52 53 49 47 45 45 45 44 42 39 38 34 34
76 67 56 42 32 24 20 18 19 25 27 32 40 48 56 57 60 65 64 67 71 68 67 70 69 67 65 57 49 45 42 43 43 42 40 40 39 37 37 34 33 32 33
66 54 45 34 31 26 27 33 36 37 41 49 56 59 59 63 61 60 61 63 62 64 69 69 57 49 47 43 39 38 38 37 35 32 31 29 28 31 34 35 35 35 35
49 41 38 33 38 40 42 45 49 55 63 66 58 58 57 54 54 56 57 60 61 61 55 50 47 44 41 38 37 36 36 34 31 28 27 26 28 31 35 37 42 45 45
35 33 38 42 41 43 51 58 62 60 59 57 59 54 50 52 51 54 52 50 48 49 47 47 48 43 40 40 39 37 34 31 30 30 31 31 31 33 41 44 45 45 46
39 36 37 40 47 55 66 64 60 61 63 57 52 47 49 49 48 47 47 49 48 47 49 49 47 42 42 41 37 33 32 31 32 33 33 36 37 41 45 47 46 46 47
46 45 44 49 52 66 66 60 63 62 60 59 53 52 46 46 46 47 49 50 48 49 49 47 45 42 39 37 36 35 34 35 35 34 35 37 39 41 44 47 45 46 46
45 47 49 50 60 70 69 61 58 60 62 57 51 46 45 47 47 48 49 49 48 49 49 45 43 41 39 40 38 36 35 37 37 37 36 35 36 35 39 43 41 41 42
41 46 51 63 63 60 59 58 62 65 58 52 50 46 47 48 48 47 49 50 52 52 51 52 50 45 43 41 39 38 38 40 41 39 38 38 35 34 33 32 36 39 40
45 47 51 54 57 59 61 63 64 55 49 50 46 45 43 44 45 48 50 51 53 55 57 53 46 43 42 43 43 43 45 46 42 40 34 33 35 36 37 37 37 38 39
49 51 54 62 65 61 62 63 52 46 47 42 42 43 46 49 50 50 52 55 57 59 55 48 47 46 47 46 43 47 49 46 42 41 40 42 41 42 42 41 41 40 41
53 54 65 67 61 60 60 54 54 48 42 42 44 47 51 52 52 52 55 58 62 64 54 47 46 51 50 43 42 44 44 41 41 40 39 41 46 48 48 45 44 43 44
55 60 60 56 56 57 53 53 48 42 42 45 49 53 55 58 62 63 64 71 71 63 53 47 51 50 42 40 42 44 45 45 43 44 44 42 45 50 50 50 50 46 43

GFSSE_prec_cthk_063.txt.gz
RH
57 62 63 66 67 66 61 57 54 51 49 47 41 33 25 21 17 15 13 10 8 11 11 11 11 11 12 14 16 22 24 27 29 35 41 42 41 32 28 28 27 28 27
63 69 69 69 69 64 62 59 59 57 54 48 38 27 21 18 11 10 8 9 12 12 14 14 14 14 15 18 20 25 27 30 33 36 40 37 38 34 27 23 24 24 22
61 68 69 69 68 64 61 65 64 62 54 45 32 21 20 11 7 9 12 13 14 15 16 16 16 19 18 20 22 24 28 29 33 36 34 36 32 27 23 22 21 21 21
65 70 69 72 71 65 63 70 65 61 54 42 29 24 19 11 12 13 14 15 16 17 17 17 16 20 23 24 27 30 31 33 33 30 28 30 27 25 22 21 22 23 23
69 74 74 77 74 69 69 69 68 62 57 40 31 21 18 14 14 15 17 17 18 18 19 19 19 22 25 25 26 29 29 31 33 31 31 31 31 31 28 25 25 24 23
72 74 79 84 80 75 73 72 66 68 52 38 27 20 15 15 17 17 18 18 18 19 21 23 24 24 26 27 29 30 32 32 33 35 35 35 36 37 35 32 29 30 29
72 78 87 90 89 84 83 74 71 64 46 39 27 22 16 24 19 21 19 20 20 22 23 26 27 27 29 32 34 37 40 41 42 41 40 38 37 40 38 36 35 34 32
78 82 89 93 93 93 86 74 75 58 42 32 26 23 28 23 23 21 21 21 22 23 25 29 34 43 44 43 44 45 48 50 49 45 43 44 43 41 41 39 37 37 36
87 90 98 95 95 94 85 79 68 49 39 30 21 31 25 24 22 22 23 24 24 26 28 37 46 51 53 52 55 56 54 52 49 46 45 45 45 42 43 44 43 41 39
88 94 98 96 92 90 81 76 52 44 40 39 37 29 26 24 24 24 27 30 30 35 40 45 53 60 63 60 60 61 59 57 53 52 47 46 46 46 44 44 42 39 37
93 98 98 94 88 87 78 53 42 38 31 25 22 23 28 29 29 32 34 37 41 44 50 56 63 69 64 64 64 62 60 57 54 52 45 43 44 45 44 44 42 40 38
97 97 94 97 90 79 61 58 54 44 35 28 27 27 32 33 35 39 45 49 53 58 59 64 66 69 70 67 70 61 53 53 51 47 43 41 39 39 39 39 38 38 37
98 95 94 90 78 70 60 48 37 28 25 24 25 32 31 33 42 49 54 59 60 62 64 68 66 71 69 70 63 58 52 47 46 46 43 40 37 37 37 36 36 34 32
91 83 90 85 68 60 50 43 35 30 26 22 22 27 37 40 46 60 63 65 66 64 67 65 64 66 64 58 55 53 47 42 41 40 41 41 40 37 35 34 32 31 33
84 72 69 58 53 39 28 21 19 22 24 27 33 41 50 53 60 61 63 63 62 62 61 61 63 64 56 49 44 39 37 36 38 38 36 34 32 30 30 31 32 35 36
72 72 62 42 32 25 25 26 28 33 38 46 49 60 60 58 59 60 58 58 57 60 62 61 57 46 43 41 40 37 36 34 33 29 27 25 24 27 29 34 37 38 41
53 59 44 37 38 36 40 43 46 45 51 54 57 56 61 60 53 54 53 55 58 59 53 46 45 44 43 41 39 38 35 32 28 26 25 26 26 27 32 36 38 41 40
47 43 45 45 44 46 50 50 53 58 57 58 62 60 56 52 49 52 51 52 49 46 45 46 47 46 43 41 39 37 34 31 30 29 29 31 33 36 39 41 42 42 44
47 49 49 50 45 52 60 64 62 62 65 63 59 56 51 47 49 50 47 46 46 47 48 48 47 45 43 40 35 34 33 34 36 34 32 34 36 42 46 48 47 47 46
44 45 45 47 47 56 66 68 64 65 64 62 59 55 51 48 46 47 46 44 45 47 47 46 46 45 41 38 38 39 40 41 39 36 35 32 35 38 40 42 44 44 43
49 49 46 44 51 62 68 65 61 62 63 59 60 56 51 47 47 45 45 45 45 46 48 47 47 44 41 41 42 42 40 40 41 40 39 38 38 39 41 39 36 35 36
49 51 53 53 61 62 60 60 58 62 62 63 58 52 48 45 45 42 42 45 46 46 46 47 47 47 46 45 43 41 42 44 43 44 44 47 44 42 41 41 40 39 38
45 48 52 55 61 61 63 64 68 63 64 61 52 47 45 45 42 46 50 47 46 46 49 53 57 55 53 51 46 48 47 45 43 44 46 46 44 40 39 41 42 41 40
45 49 52 55 64 71 65 71 68 64 60 50 47 44 43 45 50 52 50 50 51 55 61 67 66 58 53 49 47 48 47 47 49 49 48 49 45 41 41 47 49 48 46
56 58 59 68 71 65 63 68 66 60 47 44 44 44 48 53 52 51 52 58 54 53 65 68 64 62 52 46 49 46 46 49 53 53 50 48 47 44 39 48 53 52 52
61 66 71 73 63 62 64 67 58 53 47 46 46 49 52 52 57 64 63 71 75 77 67 63 63 58 45 46 45 47 50 51 51 54 53 50 49 47 42 52 62 63 58

GFSSE_prec_cthk_066.txt.gz
RH
61 65 68 66 63 60 56 54 54 55 53 53 49 43 38 30 26 19 12 9 10 11 11 12 13 14 15 19 23 24 26 28 34 35 30 28 25 28 27 24 23 21 19
65 66 70 67 70 68 62 57 56 56 56 51 42 36 30 25 21 13 9 10 12 13 14 14 15 17 21 24 25 26 27 30 29 26 25 24 24 26 23 21 18 18 18
68 69 69 70 68 66 59 57 57 56 59 50 40 32 26 24 15 10 11 13 15 15 16 18 18 20 22 24 27 29 31 30 27 24 23 25 24 21 20 19 19 20 20
70 70 72 72 72 67 60 60 59 59 55 46 35 29 26 22 17 14 15 17 17 16 17 20 21 23 24 26 27 27 26 26 26 26 26 26 27 26 25 24 22 20 20
70 73 73 75 76 72 67 65 61 64 54 44 36 31 28 25 18 17 18 18 17 17 18 21 24 25 25 24 26 26 27 27 30 30 30 31 32 31 31 29 28 25 25
76 78 78 80 80 75 73 72 70 63 48 47 38 30 31 28 26 24 22 19 19 20 21 23 25 26 27 31 33 33 33 34 35 36 36 37 38 37 35 35 33 30 28
79 84 83 82 88 83 84 80 74 57 56 48 35 31 29 26 22 24 21 23 21 22 23 24 26 29 39 41 43 44 45 46 44 43 39 37 37 39 38 37 35 35 32
78 86 90 92 92 90 92 88 74 63 63 50 40 37 34 27 26 26 25 22 24 25 25 26 32 38 47 48 51 49 49 48 47 45 44 40 38 39 38 39 40 38 37
87 94 95 92 93 94 88 84 76 70 51 39 34 36 30 32 33 28 22 24 27 27 30 34 40 47 51 55 55 57 56 53 51 49 47 43 42 41 42 42 40 38 36
92 96 94 97 99 94 89 83 73 56 45 43 40 34 46 37 27 26 29 28 33 36 37 44 46 53 57 57 57 59 57 53 45 42 44 41 42 41 39 37 36 34 34
84 92 95 98 96 91 86 76 62 49 43 43 40 45 33 33 31 29 31 37 38 43 49 51 56 59 60 59 62 60 56 54 47 40 38 37 36 35 34 30 29 30 29
87 90 94 99 95 90 79 62 51 46 43 42 39 35 35 33 34 34 37 43 51 56 61 60 61 65 60 58 59 57 51 46 41 39 39 37 37 35 31 30 29 28 27
94 98 98 92 95 87 69 60 57 49 39 33 34 36 39 36 33 42 50 59 62 63 63 60 61 62 59 58 55 50 47 44 41 40 37 36 36 37 34 32 31 29 28
93 87 93 87 82 79 67 52 44 41 36 33 28 30 32 35 42 51 62 62 63 61 58 58 58 58 60 57 49 46 43 39 35 35 34 32 30 30 31 30 28 29 31
89 92 88 81 70 62 53 43 37 32 28 27 30 34 39 48 56 60 61 60 59 59 58 57 60 62 57 45 38 36 35 33 32 29 27 25 23 23 25 30 31 33 33
75 70 71 70 63 55 38 32 28 30 39 44 48 57 60 62 61 57 57 56 55 56 58 60 60 50 43 38 36 35 35 34 31 29 26 25 24 23 25 30 32 35 36
66 54 48 48 43 43 34 37 43 49 51 56 61 58 59 62 58 55 53 51 54 55 54 50 45 43 43 40 38 36 34 32 30 29 29 28 29 30 28 31 35 37 38
53 47 46 48 47 40 41 47 51 53 58 60 59 61 56 53 51 49 48 53 54 51 44 45 45 43 42 42 40 38 35 33 33 32 32 33 33 35 36 38 39 42 44
47 51 54 55 52 50 56 58 60 61 67 67 66 59 54 51 52 51 52 49 44 46 46 45 44 46 46 44 41 38 35 35 33 33 33 31 31 33 36 38 40 42 44
52 56 58 59 56 55 60 67 68 66 66 65 63 59 54 52 52 50 47 45 45 47 47 47 49 48 44 42 39 39 38 37 33 34 35 36 35 33 32 35 37 39 39
48 47 48 50 54 59 64 66 66 63 63 64 59 59 56 56 50 48 47 45 45 47 47 48 46 44 43 42 43 46 44 41 35 37 39 41 39 37 39 39 41 42 41
45 45 47 49 54 56 59 62 62 63 66 64 63 61 58 53 48 49 45 46 48 46 46 48 49 50 50 51 52 51 48 42 38 42 45 44 44 48 48 45 46 46 44
47 48 50 51 51 55 57 63 72 76 71 67 64 59 55 49 47 44 46 47 46 48 51 49 51 56 59 55 56 53 49 45 45 48 47 49 52 52 50 48 47 49 48
42 45 49 51 54 62 69 69 78 83 79 67 59 55 49 45 43 46 50 49 51 56 59 65 64 69 67 58 51 48 47 47 49 48 51 55 55 54 53 49 42 46 50
52 56 56 57 61 68 75 72 78 82 79 60 51 48 45 44 47 51 54 59 63 63 70 76 71 59 56 52 48 46 46 46 51 56 57 60 61 57 53 49 48 54 57
52 63 62 62 75 72 71 73 82 82 66 51 49 46 46 47 58 65 70 76 79 77 83 80 72 55 47 45 44 46 49 58 61 62 61 56 54 54 54 51 46 48 48

GFSSE_prec_cthk_069.txt.gz
RH
61 66 64 62 62 60 58 59 64 65 65 59 53 47 41 39 35 27 17 9 10 12 12 13 13 15 20 23 26 27 27 25 23 22 20 20 21 22 20 18 18 17 16
65 68 66 64 63 61 59 59 59 58 56 53 54 42 40 33 29 22 12 10 13 14 13 14 18 22 24 25 26 28 26 24 24 23 22 20 19 18 17 17 17 17 17
69 72 69 68 65 65 60 56 55 56 54 52 49 37 34 28 27 19 14 14 15 15 16 19 20 23 24 24 25 26 24 24 25 24 24 24 22 22 21 21 20 19 18
75 73 71 71 69 68 65 62 61 58 49 45 47 33 32 25 26 21 17 16 17 17 19 21 22 24 25 26 27 26 27 28 29 28 28 29 29 28 28 27 24 24 22
81 77 74 71 71 71 67 65 63 57 47 47 40 34 31 32 26 26 19 17 19 20 22 23 24 25 26 27 31 35 37 37 35 31 29 30 34 33 33 32 31 28 27
80 79 79 77 77 74 70 69 64 56 49 50 44 36 34 31 29 26 20 21 21 22 24 25 25 27 31 37 44 42 44 42 41 39 37 37 36 35 35 35 33 34 32
82 81 81 82 83 79 76 76 67 55 54 47 40 40 34 34 31 27 26 26 24 24 25 26 28 32 38 46 49 48 48 46 45 43 41 41 37 36 36 35 36 35 33
78 81 85 89 88 86 86 77 61 56 53 50 50 42 43 36 31 25 27 26 29 26 27 28 31 37 45 52 52 52 50 51 48 43 40 41 38 36 35 34 34 34 31
82 86 91 97 95 94 84 73 68 62 59 60 45 46 43 36 32 31 34 31 28 30 30 36 40 45 50 54 52 54 54 49 46 44 40 37 30 31 31 29 26 26 25
82 93 96 97 99 96 92 76 72 69 68 52 42 39 38 35 40 40 35 31 32 31 38 43 48 52 55 57 56 52 52 47 42 39 37 34 32 30 29 27 25 23 22
86 95 98 98 97 98 94 86 79 74 55 49 48 45 44 47 42 32 35 36 35 40 46 52 54 55 57 56 55 51 47 44 41 37 35 36 33 30 31 28 27 25 23
85 88 87 92 94 90 92 87 78 63 53 45 42 49 46 39 38 42 39 40 46 51 57 61 57 56 54 53 53 52 45 41 39 39 36 34 32 30 28 27 27 26 23
87 89 89 90 84 84 80 73 63 56 53 53 52 42 41 44 42 39 41 49 62 65 64 61 52 54 54 54 53 45 43 38 37 34 34 30 29 28 27 29 28 25 24
93 94 95 94 93 87 82 68 59 58 47 40 36 40 43 40 40 43 52 63 69 65 58 56 54 54 54 56 48 40 34 33 33 30 26 25 24 23 27 27 27 26 26
97 94 95 92 89 83 74 68 56 43 37 37 35 35 36 40 45 54 63 68 68 60 56 55 55 55 52 42 37 36 34 33 31 28 26 25 24 24 25 28 30 29 28
93 94 94 89 81 71 62 51 41 37 34 34 39 45 52 55 63 68 66 61 56 54 54 53 52 44 38 36 36 35 34 33 31 30 28 26 26 26 26 30 31 33 33
79 71 71 70 64 64 53 39 36 39 46 52 55 62 70 70 75 71 56 52 52 51 52 50 40 39 37 36 35 34 34 33 31 30 29 27 27 27 28 32 35 37 39
54 52 52 49 49 54 46 41 44 50 58 67 65 64 63 65 58 53 50 50 52 51 45 40 41 40 39 39 37 34 33 33 31 30 30 31 27 26 31 35 38 40 40
53 54 56 56 53 49 46 46 53 60 64 69 71 73 61 58 53 51 51 52 50 44 42 44 44 43 42 38 34 33 34 33 33 35 35 31 28 27 29 33 34 34 35
62 60 62 64 62 56 51 59 63 61 68 71 74 71 61 57 53 51 52 49 43 43 43 44 44 43 42 39 38 37 37 39 39 40 39 38 37 35 34 32 31 31 34
56 60 62 63 63 59 59 63 65 68 69 72 78 66 60 55 54 53 47 44 44 44 45 45 45 44 44 44 44 48 46 45 41 39 38 40 39 39 39 39 40 40 41
48 50 52 55 59 61 57 59 63 62 64 70 69 61 59 55 51 47 45 44 44 46 45 48 51 50 55 57 62 57 48 44 42 42 42 42 45 45 47 49 47 46 46
44 46 47 48 50 56 58 57 62 66 76 78 74 67 59 51 48 45 44 45 48 49 50 54 57 57 61 60 61 54 47 44 44 45 42 46 51 53 52 50 47 46 42
42 44 47 51 53 54 57 61 63 75 83 89 83 68 56 51 47 45 44 52 58 60 59 68 70 67 69 64 58 50 43 42 46 47 52 58 52 53 53 52 50 45 45
53 50 52 55 57 59 66 74 71 78 91 93 88 67 55 53 47 46 51 60 68 72 72 81 78 75 74 64 51 45 44 44 47 56 62 62 60 57 53 50 40 37 35
57 59 59 66 63 68 78 75 74 78 93 93 78 59 62 58 51 51 61 72 73 75 77 86 84 77 68 54 46 48 48 56 63 63 57 51 48 44 46 42 35 28 27

GFSSE_prec_cthk_072.txt.gz
RH
60 59 56 60 62 61 64 65 65 65 65 63 57 51 45 39 37 29 20 13 12 13 13 13 15 18 20 23 24 23 21 20 19 18 17 16 16 16 16 17 22 20 16
67 63 60 61 62 62 63 65 64 66 66 59 53 47 42 37 30 25 18 16 14 14 14 17 19 21 22 23 22 21 21 21 21 21 21 20 19 19 18 18 18 18 18
68 69 64 63 63 64 64 64 66 67 60 50 51 46 39 31 26 23 20 18 16 16 19 20 22 23 24 24 23 24 26 27 26 26 31 32 26 25 25 24 23 23 21
70 70 68 66 65 67 65 66 63 58 54 51 47 45 33 30 23 23 24 21 19 19 20 22 24 25 25 26 27 33 35 36 32 37 43 44 35 30 31 31 29 27 26
74 75 72 68 67 66 65 59 56 57 55 45 43 40 32 29 27 26 25 23 21 22 23 24 26 27 28 31 38 42 41 40 40 46 48 48 44 35 34 34 33 31 30
76 77 75 72 72 69 65 64 63 58 49 41 44 39 33 33 34 28 27 25 23 25 25 26 27 28 31 38 43 45 45 44 50 49 51 46 45 37 37 36 34 32 30
85 86 78 76 77 73 72 71 64 54 46 43 46 45 38 35 32 29 29 26 29 29 27 28 29 32 37 43 47 48 47 46 50 50 53 47 38 33 33 33 29 28 27
87 87 81 81 82 80 80 75 64 55 48 49 47 44 39 40 36 32 28 29 32 32 31 30 33 39 44 47 50 50 51 47 50 50 50 51 36 33 28 24 23 22 20
96 91 85 87 92 92 91 76 67 55 51 51 53 44 50 44 38 37 35 33 34 32 34 37 39 47 50 51 53 53 48 42 47 45 42 42 31 31 28 26 24 22 20
87 94 90 93 98 99 87 74 62 56 57 57 59 54 46 38 39 38 36 36 36 36 37 40 50 53 54 56 57 52 44 39 39 42 43 35 32 32 31 26 26 24 22
88 93 94 98 99 95 88 76 69 64 62 65 62 51 47 43 41 45 42 42 38 39 41 53 57 60 60 57 53 52 42 41 40 39 40 32 30 31 30 26 26 24 21
84 90 94 96 96 95 92 82 74 71 76 64 47 47 45 45 51 47 36 41 41 46 56 61 63 62 58 56 54 48 41 38 37 36 35 30 27 27 29 27 27 26 23
84 90 99 93 87 83 87 88 87 78 67 55 53 55 54 53 49 48 43 47 51 58 62 68 62 56 57 54 50 41 37 38 38 36 31 25 23 22 25 27 28 26 26
86 89 94 95 96 88 93 92 86 82 67 60 54 55 51 46 45 49 49 50 57 64 68 62 59 59 56 55 41 37 36 34 33 32 29 25 23 22 27 27 26 26 26
88 89 91 95 91 92 86 80 73 69 64 62 61 51 45 48 45 44 49 55 64 72 63 58 56 55 47 38 36 35 34 32 31 31 32 25 24 21 22 26 26 26 27
87 92 94 95 94 91 88 86 78 68 61 58 53 47 43 41 45 56 66 71 69 63 57 55 51 44 37 36 35 34 32 32 29 28 30 29 23 23 23 24 29 32 32
93 95 94 96 97 86 76 65 52 46 46 47 40 37 46 57 67 76 80 65 58 53 52 49 40 37 38 37 37 35 30 28 28 26 28 30 33 29 26 28 32 33 36
96 93 89 88 83 77 59 53 47 43 41 40 50 61 66 76 78 78 65 54 49 50 48 41 39 40 39 38 36 35 31 29 28 31 34 33 32 34 36 33 34 35 35
59 60 60 60 71 55 43 40 47 53 57 65 71 73 75 76 61 55 52 50 50 47 43 39 39 41 39 38 38 37 34 36 42 41 37 35 36 35 34 36 33 32 32
56 57 59 68 76 64 60 52 51 57 65 72 75 76 78 74 58 54 50 51 47 43 40 40 40 41 41 42 42 43 45 45 46 42 41 38 40 40 40 39 38 40 36
65 66 69 70 67 63 55 57 61 61 67 71 76 84 88 70 58 51 53 47 42 41 40 41 42 45 47 49 50 50 49 48 46 45 45 42 44 44 42 44 45 48 47
62 62 64 67 71 66 65 62 64 65 69 75 79 85 74 61 58 55 48 42 41 40 42 45 50 54 54 54 57 56 54 52 49 49 46 48 49 49 52 53 52 48 46
49 53 59 65 69 71 67 61 66 68 68 68 80 82 76 68 59 50 44 42 41 43 49 57 58 62 63 68 65 60 56 52 46 46 50 53 54 58 56 54 52 47 39
46 50 51 56 58 58 64 64 62 68 73 78 85 88 83 74 61 49 46 44 45 51 60 64 67 72 74 72 70 65 61 50 50 48 51 55 58 58 54 49 45 40 32
47 49 51 53 55 57 57 61 66 72 75 82 92 95 92 75 61 57 54 51 51 62 70 73 76 76 80 79 65 55 49 53 56 58 59 60 57 55 51 41 34 32 30
53 56 61 60 64 66 64 67 75 81 81 81 86 91 91 69 58 63 63 57 60 72 75 80 83 86 84 67 60 50 54 57 59 61 58 54 49 41 37 34 32 32 33

GFSSE_prec_cthk_075.txt.gz
RH
56 50 49 53 56 60 62 61 60 60 61 58 57 51 44 39 34 28 19 17 19 17 14 15 19 22 24 22 20 18 18 18 18 17 16 16 16 16 17 18 22 18 16
56 51 51 54 59 61 62 63 62 62 63 60 56 53 44 36 31 24 20 20 20 18 18 19 21 21 21 20 20 21 22 24 25 28 28 24 23 23 22 20 19 19 19
60 58 56 58 63 62 63 64 63 64 64 62 56 50 45 34 29 20 21 22 22 21 21 21 21 23 23 23 25 27 29 33 37 40 42 37 28 27 26 25 25 25 24
64 64 63 62 63 63 64 64 64 65 66 59 53 51 42 30 27 23 24 23 25 24 24 24 24 25 27 29 33 36 37 39 44 50 52 47 37 31 30 30 30 30 30
64 66 66 62 64 64 66 66 66 68 62 55 50 50 38 30 27 26 26 27 28 28 26 26 27 28 30 34 39 41 44 47 50 49 46 47 41 32 33 32 31 29 27
65 65 64 65 67 70 70 70 69 63 57 56 48 46 38 30 31 30 29 30 29 30 28 28 29 31 34 37 43 44 46 49 53 58 53 44 38 32 30 28 27 25 23
72 71 70 72 74 77 77 73 64 60 60 50 46 42 36 36 37 37 32 32 30 29 29 29 31 34 37 42 46 48 45 51 56 57 56 44 34 33 28 25 21 19 16
90 84 78 81 82 81 74 69 65 64 56 45 45 41 46 42 39 36 36 33 34 30 32 31 33 38 44 46 48 50 47 49 51 50 55 43 28 28 26 23 21 20 17
92 97 86 85 84 81 75 76 73 63 54 45 44 45 53 45 46 44 38 39 36 35 35 36 40 44 49 52 52 52 46 41 49 47 48 39 30 30 27 24 22 21 18
77 97 92 93 88 87 89 85 72 63 56 50 49 53 57 55 50 41 38 39 38 39 39 42 46 48 54 55 54 52 43 45 44 46 44 31 32 31 28 25 24 23 19
84 96 96 96 95 94 93 80 63 62 57 54 58 60 64 52 47 43 45 48 48 39 46 50 49 57 60 58 51 48 43 42 43 41 38 29 27 29 29 25 25 25 22
82 86 91 94 98 96 94 86 74 68 61 63 64 72 60 53 49 52 51 50 49 47 54 54 62 62 60 51 50 44 41 37 40 38 34 27 24 25 29 27 27 25 23
84 87 88 91 92 95 94 88 84 75 76 71 80 68 61 58 58 51 52 49 50 54 56 65 67 64 56 52 49 39 37 38 36 34 32 27 24 22 26 26 25 23 22
86 87 88 89 86 88 91 81 71 75 76 79 73 72 65 56 56 60 52 52 55 57 64 69 64 56 54 49 36 35 34 36 33 32 30 26 23 21 26 27 27 25 24
80 85 87 90 90 89 90 82 85 84 83 74 73 72 65 68 71 63 60 57 55 59 71 68 59 53 47 35 34 34 34 32 31 31 30 28 23 22 23 27 29 29 28
87 88 88 93 98 92 95 93 89 85 82 79 77 73 70 70 71 75 54 55 63 75 70 59 53 47 38 36 35 34 33 30 28 27 31 31 30 25 23 24 30 31 30
88 86 94 93 95 93 94 90 89 86 81 74 70 62 61 79 69 52 66 73 81 66 56 51 47 39 38 37 34 34 33 31 30 30 32 36 35 32 30 28 29 30 31
84 86 91 94 94 93 91 89 84 82 68 66 62 64 54 52 61 77 85 86 64 56 50 47 42 39 38 36 36 34 33 33 33 33 35 35 34 33 33 31 29 28 30
92 95 93 90 89 83 75 65 63 55 50 61 62 69 59 72 80 86 82 59 51 49 49 44 39 39 37 38 36 37 40 38 35 37 39 36 37 37 32 33 33 32 33
80 87 92 91 81 71 57 48 44 55 63 67 71 85 79 79 79 70 58 54 51 47 44 39 37 37 41 42 44 44 42 40 42 42 42 41 39 39 38 40 39 41 39
53 58 69 89 79 71 61 59 61 68 71 72 80 79 78 83 85 64 59 55 50 44 40 37 39 43 46 49 46 46 46 46 47 47 44 44 42 44 43 45 46 46 43
62 61 67 77 78 70 65 62 64 69 68 75 77 76 84 92 81 70 60 54 48 42 39 40 46 51 53 52 54 54 55 54 49 42 38 42 46 48 50 49 47 47 46
56 56 61 68 77 74 75 66 66 68 71 69 79 82 82 87 75 70 59 53 46 43 44 46 54 59 63 63 62 65 62 57 49 46 43 44 50 51 53 51 49 46 41
50 50 56 64 73 74 74 72 71 72 75 76 75 75 82 92 85 78 71 57 51 49 52 55 59 67 69 70 68 69 68 59 56 50 52 53 54 54 55 53 47 39 35
45 46 50 56 59 61 61 67 68 70 74 81 77 79 88 92 93 86 76 60 58 59 59 59 66 73 73 76 79 72 70 65 58 57 54 58 58 55 52 45 42 33 31
47 50 54 60 66 65 62 62 65 67 72 78 80 83 86 82 86 87 75 70 63 66 63 67 72 75 76 75 77 80 75 67 61 58 60 59 55 53 46 37 33 36 31

GFSSE_prec_cthk_078.txt.gz
RH
70 59 46 45 44 48 54 55 53 53 52 53 51 46 40 36 30 23 18 20 19 18 18 20 23 24 21 17 17 17 19 21 21 18 18 18 19 19 19 18 17 17 16
70 53 50 47 47 50 54 54 54 55 56 54 52 48 42 36 27 23 21 21 20 21 22 24 25 21 19 20 21 22 28 33 34 32 25 23 24 23 23 22 22 21 20
71 51 51 50 49 52 53 55 57 56 57 57 54 50 42 35 25 24 24 22 22 25 25 25 24 22 23 24 24 32 39 44 47 46 38 29 29 28 28 27 26 24 23
86 48 53 50 52 56 57 58 60 60 61 60 54 50 42 34 25 25 26 24 27 29 28 27 26 26 28 28 32 38 44 50 50 51 45 34 30 30 29 28 27 26 24
92 63 60 55 58 60 60 61 65 67 66 62 54 51 40 34 26 27 26 29 32 32 30 29 29 31 31 31 36 42 47 51 51 48 39 32 29 29 27 25 22 21 20
87 75 67 68 71 73 74 70 73 74 72 62 56 49 38 34 31 31 28 31 34 32 32 32 30 34 33 32 39 44 49 52 56 50 41 31 29 28 26 22 19 18 16
87 81 75 80 79 76 76 75 81 81 72 63 52 43 38 34 36 37 34 34 36 34 32 32 32 35 35 37 41 45 49 51 53 45 41 36 25 23 21 19 18 16 15
90 80 77 81 80 77 81 77 82 76 66 64 48 40 36 38 40 40 38 39 38 36 34 35 34 38 38 46 45 45 48 50 45 43 37 28 24 23 21 19 18 16 15
96 96 82 83 89 88 85 85 77 68 67 56 45 38 38 44 46 45 44 39 39 36 35 38 41 44 46 51 49 42 47 42 43 40 36 27 27 27 24 21 20 19 16
95 93 98 98 96 92 88 82 75 72 65 53 44 41 44 48 54 51 50 50 41 37 44 43 43 49 50 54 54 45 43 40 40 38 36 27 28 29 27 23 22 21 19
84 86 83 96 99 88 82 81 76 71 59 50 49 52 54 54 58 58 54 48 43 49 50 47 50 52 55 59 53 42 38 35 35 34 32 26 25 29 28 24 22 20 17
85 82 89 84 93 92 88 85 76 65 57 55 57 59 60 62 67 57 53 48 48 56 47 51 53 56 61 58 46 39 33 33 33 33 30 26 23 21 26 22 21 21 20
74 74 78 83 90 94 88 83 73 73 67 70 66 73 68 68 60 56 50 51 57 54 54 56 57 63 63 50 43 35 33 34 31 29 28 26 21 20 23 24 24 23 22
76 82 89 92 91 90 84 81 83 82 78 70 81 78 73 68 65 61 57 60 58 53 55 53 64 66 51 46 33 32 33 32 29 27 27 26 22 22 26 26 25 23 23
87 87 87 90 93 87 92 86 86 81 78 84 87 75 69 68 66 66 63 58 55 54 53 64 72 57 48 35 33 32 31 30 28 25 26 27 27 23 24 28 28 24 24
82 86 87 90 89 94 91 90 85 82 87 86 82 73 75 76 77 72 71 61 55 51 68 72 58 49 38 35 35 31 30 27 27 27 25 28 29 28 26 25 25 24 26
85 86 85 88 83 85 97 94 89 90 87 87 79 80 85 81 80 78 69 59 53 77 72 60 50 43 37 35 31 30 28 29 29 28 28 29 31 30 26 27 26 25 26
84 85 88 86 88 87 86 87 89 93 91 85 83 90 91 87 77 71 61 68 81 78 62 52 47 40 38 33 31 31 32 34 32 30 32 33 33 29 29 29 28 29 26
86 88 87 86 93 93 92 92 94 91 88 90 86 86 86 79 66 63 75 86 81 62 50 47 44 38 36 34 35 35 37 38 34 36 36 36 34 31 28 30 33 32 33
91 91 89 86 79 74 76 78 81 85 85 84 78 78 77 57 67 87 88 74 57 53 49 46 40 38 36 39 43 44 41 42 42 41 43 41 35 34 35 35 35 36 37
84 88 80 74 72 69 65 56 61 64 62 58 68 81 84 77 79 81 81 61 57 54 49 42 39 39 40 46 49 50 54 52 51 49 45 41 40 41 41 39 40 41 39
57 69 76 79 66 56 55 43 47 54 59 70 79 77 81 78 81 88 76 64 58 53 45 42 40 43 49 52 56 62 60 58 56 57 50 46 46 43 41 43 45 43 41
47 46 55 63 68 66 65 58 57 58 69 66 75 85 73 76 84 90 82 71 62 53 48 45 45 49 54 58 67 69 67 65 63 60 53 49 47 42 44 46 45 44 43
41 43 47 55 61 59 58 63 58 59 62 61 61 69 72 74 83 91 89 79 70 63 54 51 53 57 59 65 67 69 67 68 69 63 60 58 52 50 52 50 46 42 38
39 39 43 51 56 58 55 60 59 63 62 66 66 73 72 79 83 90 87 93 86 76 69 63 66 65 64 71 74 76 71 67 68 65 56 50 49 54 55 53 47 42 39
49 49 48 54 58 60 62 62 64 65 69 67 66 68 75 82 86 88 85 86 86 81 74 70 66 69 72 78 82 75 75 77 74 68 61 58 54 54 53 47 41 36 33

GFSSE_prec_cthk_084.txt.gz
RH
67 70 72 66 74 70 61 61 61 57 49 46 43 39 35 31 24 20 19 19 20 21 23 24 24 22 19 19 18 19 20 20 19 18 17 16 16 16 16 16 15 15 16
68 68 71 67 67 69 66 60 59 60 54 49 43 42 37 30 23 22 23 22 22 24 24 24 21 21 22 23 23 27 26 24 22 21 21 21 20 20 20 19 19 19 19
64 62 69 76 75 78 69 61 60 65 61 54 48 44 35 29 25 24 24 26 27 27 24 23 24 25 27 29 30 32 30 28 23 22 22 20 20 20 20 19 19 20 24
60 71 63 83 87 84 78 64 64 69 65 56 49 44 36 30 29 28 31 33 29 25 25 27 28 30 31 31 32 36 34 34 28 27 24 22 22 21 20 18 16 15 20
66 72 83 85 74 91 83 73 71 76 69 59 51 46 38 34 32 31 30 29 25 27 28 31 33 34 35 32 34 38 39 36 34 32 26 25 24 22 17 16 14 12 12
58 66 77 76 64 86 87 82 78 79 71 61 54 46 39 36 36 35 32 29 27 29 31 35 37 38 38 32 35 39 39 38 36 32 28 23 18 15 14 13 13 12 12
58 56 67 69 74 74 92 85 82 81 71 63 55 41 39 39 39 37 35 34 33 34 35 39 40 41 40 35 37 40 42 40 35 29 28 21 17 16 15 15 14 14 13
60 68 70 66 87 81 93 86 85 81 76 64 51 39 39 42 42 40 37 39 38 39 37 39 41 43 43 38 41 41 42 39 34 32 26 20 18 17 17 16 15 14 13
68 72 78 80 82 79 98 88 84 87 77 60 45 38 40 45 46 43 39 41 43 40 40 41 42 42 45 41 42 43 42 40 35 30 27 21 20 19 17 16 14 13 12
82 87 83 80 80 98 96 91 92 85 75 59 41 37 45 47 46 47 44 44 45 46 44 46 48 43 43 49 52 42 41 37 32 28 24 21 20 19 17 16 16 15 15
84 75 73 83 83 98 98 95 90 90 73 55 42 43 48 52 50 51 49 49 50 47 56 55 54 54 57 55 47 43 37 34 30 27 24 22 19 19 18 18 18 18 18
78 79 76 87 94 97 99 97 94 80 67 54 49 50 50 51 53 53 53 55 54 57 61 56 53 54 54 53 48 40 32 30 29 27 25 22 19 21 20 21 21 19 17
71 74 79 84 98 98 97 97 90 79 64 56 52 54 55 57 64 62 68 63 61 62 59 58 59 58 57 60 46 35 30 30 28 26 23 21 21 23 24 22 20 19 18
72 71 79 78 87 92 97 95 85 73 69 62 58 61 63 62 64 64 71 66 63 60 63 69 63 57 62 60 40 31 28 29 26 23 23 23 23 26 29 23 21 19 18
75 72 76 78 74 81 85 85 83 67 66 64 66 67 66 71 65 69 70 68 60 60 71 64 58 54 62 54 38 28 29 28 25 24 23 24 24 25 25 23 20 21 21
70 72 75 73 74 75 83 82 73 70 67 70 73 70 67 77 71 69 72 64 59 65 71 65 57 61 59 48 32 31 30 27 25 25 26 26 27 27 26 22 24 26 24
73 64 73 78 79 79 90 82 72 71 80 84 75 72 73 75 72 71 69 62 62 67 69 58 59 64 58 37 33 31 29 28 30 29 26 28 29 30 29 25 28 28 25
77 72 70 73 80 78 82 83 67 73 82 81 78 80 79 80 72 69 64 64 64 66 58 59 73 61 46 36 34 32 31 33 33 31 30 30 31 33 33 31 32 33 33
78 79 79 80 78 85 80 75 76 85 88 81 82 85 85 80 74 70 67 63 66 60 62 80 70 49 40 35 33 33 34 36 39 39 39 39 38 38 38 36 36 37 36
79 84 85 94 84 87 85 87 88 87 89 88 87 85 87 85 82 75 71 66 68 67 80 70 55 45 41 36 35 36 38 41 46 47 47 47 46 46 43 41 40 40 41
80 85 88 86 89 88 85 88 88 91 92 89 86 87 86 88 81 73 71 72 71 81 71 62 51 45 41 38 35 37 41 46 51 53 53 53 53 51 49 44 43 45 46
70 68 67 68 68 75 77 78 81 84 79 78 79 79 77 74 72 73 81 82 86 79 65 53 51 47 42 41 40 41 44 49 53 60 60 59 56 54 51 50 48 50 52
52 59 53 51 51 53 55 60 64 68 72 75 72 74 72 76 76 80 82 78 83 76 70 66 64 60 56 51 49 50 53 56 59 61 65 65 62 61 59 59 59 61 59
38 40 39 42 42 43 48 48 50 52 52 57 59 62 64 68 75 84 81 78 82 86 88 87 83 80 76 70 65 62 62 63 64 63 65 66 70 67 64 62 64 59 56
40 42 42 42 45 43 42 43 44 46 49 49 51 53 53 58 65 75 75 80 87 86 88 85 85 83 79 77 75 75 74 74 76 75 73 77 76 71 66 66 63 62 58
48 45 44 44 49 49 47 46 46 45 47 51 54 57 62 62 64 73 75 80 83 89 90 86 81 82 82 83 85 86 86 86 86 85 80 82 77 73 67 65 68 69 66

GFSSE_prec_cthk_087.txt.gz
RH
68 74 75 81 75 62 60 63 74 70 67 72 67 60 55 44 34 27 21 25 32 34 31 27 26 23 18 17 17 16 18 18 19 18 18 18 18 16 16 16 16 17 16
71 67 70 71 66 64 55 58 65 67 69 59 54 46 42 35 29 23 21 27 30 28 26 26 25 21 19 20 20 20 21 21 22 22 20 21 20 19 19 19 21 27 28
69 66 65 63 64 59 59 58 64 67 69 54 50 46 43 37 30 24 24 25 25 26 27 26 25 23 26 25 26 24 23 23 23 22 22 21 19 19 18 18 24 25 27
70 70 65 68 64 63 68 69 63 57 61 54 52 47 44 38 33 30 27 28 32 33 28 29 29 29 32 30 30 30 30 30 26 25 23 23 21 21 19 17 17 19 22
66 65 69 73 69 71 69 74 67 64 59 65 53 48 43 37 34 33 32 29 28 30 34 35 31 31 33 31 35 36 33 33 27 25 25 23 23 21 17 14 13 12 15
66 72 82 78 77 76 71 76 80 73 70 68 55 50 42 40 39 40 34 30 31 29 33 34 34 34 31 37 39 38 35 35 32 28 26 23 19 16 15 13 12 12 12
58 66 69 83 78 71 79 68 83 84 77 73 55 49 44 44 42 42 36 32 33 35 34 35 35 33 34 37 37 34 36 36 33 27 24 20 17 15 15 14 13 12 12
61 62 64 69 75 72 68 71 75 88 82 73 64 50 41 46 43 42 41 39 37 39 42 41 36 36 36 37 39 38 36 37 33 29 22 20 17 16 15 14 12 11 11
63 62 66 68 69 75 74 67 71 90 85 80 62 43 50 45 45 46 46 43 40 43 45 44 38 38 39 41 42 43 41 42 35 28 23 20 17 16 15 14 14 14 14
75 74 74 74 75 82 84 91 84 90 92 81 62 45 46 47 48 49 47 45 42 45 46 45 46 42 44 45 49 46 47 37 31 27 22 20 18 16 17 17 17 17 16
78 82 84 87 84 90 95 96 93 87 94 78 58 42 50 50 52 50 48 48 46 47 47 48 46 49 49 51 49 46 40 33 29 26 22 19 18 18 18 19 19 17 17
78 83 86 94 98 98 94 91 91 97 94 75 52 51 55 55 53 51 51 51 53 52 52 54 55 54 54 55 53 48 36 31 28 25 21 18 20 21 20 20 18 17 17
68 81 89 89 93 93 94 96 90 94 95 71 56 56 58 58 55 57 57 57 57 59 57 58 61 56 56 55 47 43 35 31 28 24 20 19 21 25 22 20 19 18 16
65 76 83 83 95 98 96 94 95 96 88 69 57 54 57 59 61 64 64 54 60 64 62 63 61 58 58 57 54 41 32 32 27 23 21 21 23 25 24 23 20 19 19
75 81 82 80 85 94 99 98 94 94 80 69 58 57 59 62 61 61 67 62 64 67 65 62 62 61 59 57 53 37 32 30 27 24 23 22 23 24 25 25 21 22 22
75 77 80 81 79 86 94 94 94 89 78 71 66 62 69 61 63 68 72 66 67 67 67 68 67 59 57 56 48 37 31 28 27 26 24 25 25 25 26 24 22 24 25
80 75 81 78 83 83 84 91 91 80 72 65 67 70 75 66 66 70 70 70 69 66 70 70 68 61 56 60 43 36 30 29 29 30 27 27 29 27 27 27 26 27 30
82 70 73 79 82 86 87 87 84 73 71 74 76 76 72 72 71 75 73 72 68 69 72 73 70 61 62 56 39 33 31 31 32 32 31 31 32 30 30 32 33 32 33
74 78 78 75 87 89 92 91 86 70 74 79 81 85 78 75 76 76 74 72 67 69 72 69 62 67 67 45 37 34 31 33 36 39 40 40 41 39 39 38 39 39 35
78 76 82 80 85 90 86 89 87 71 70 81 86 86 82 81 81 79 74 71 69 63 66 64 76 72 52 44 37 34 33 35 39 44 46 46 48 48 49 48 47 46 41
76 80 86 91 90 92 88 89 84 78 78 84 85 87 85 86 83 76 72 65 63 65 67 76 74 59 52 42 37 34 33 35 38 42 49 52 55 56 55 53 52 54 50
83 85 85 83 89 87 90 87 84 84 85 90 85 86 87 87 79 75 68 64 64 70 76 76 63 61 55 46 42 41 41 42 46 51 54 58 59 61 61 60 57 56 58
59 62 62 71 78 81 83 82 83 82 84 87 83 84 79 82 79 79 77 72 78 84 80 74 73 67 68 64 58 55 55 55 57 61 65 66 65 64 63 66 67 67 63
41 45 42 44 51 60 70 74 76 79 78 76 77 75 75 76 76 75 78 81 85 86 82 79 77 79 79 81 80 75 70 67 68 71 73 73 76 75 73 74 71 67 64
38 35 38 38 40 47 53 55 56 58 61 67 66 65 64 69 73 74 78 83 79 79 82 86 86 86 85 86 85 82 79 75 75 77 79 81 82 80 78 74 70 68 67
38 36 35 37 37 42 45 47 46 48 50 51 53 53 55 59 62 65 67 73 76 81 84 87 90 92 92 82 76 78 79 82 81 86 87 89 89 81 79 73 73 73 70

GFSSE_prec_cthk_090.txt.gz
RH
62 67 71 71 65 67 71 70 62 68 72 70 67 69 68 57 45 35 28 26 27 30 30 28 27 24 20 16 16 17 15 16 17 18 18 18 18 17 18 18 18 21 20
60 68 69 65 61 72 66 67 67 63 64 70 75 73 65 59 44 35 27 27 27 28 26 25 22 20 17 17 19 19 19 20 20 20 20 20 24 26 27 29 28 28 28
69 71 67 67 66 70 66 67 64 60 70 76 71 69 61 49 38 35 31 30 29 28 27 24 22 21 21 21 21 20 20 21 21 21 21 20 22 25 26 28 28 27 27
65 67 61 77 71 67 68 67 63 66 68 78 68 59 46 44 38 35 33 31 27 27 30 31 28 28 26 27 28 24 24 24 25 25 24 22 23 22 20 23 24 25 24
66 77 74 69 66 63 67 67 68 63 66 71 64 51 45 43 38 37 35 32 30 26 27 32 38 42 36 33 30 29 29 27 26 26 25 24 23 21 18 16 14 14 17
65 73 66 66 65 66 61 65 64 61 63 60 69 50 46 41 38 37 37 35 32 28 28 33 35 36 36 37 36 33 33 30 27 26 26 24 23 19 15 13 11 11 11
75 73 78 80 87 72 62 66 64 63 65 60 63 56 46 43 40 40 41 40 32 32 33 36 37 37 39 39 38 38 36 32 27 25 25 23 19 16 14 11 10 10 10
79 85 86 85 95 79 68 65 65 61 66 67 60 62 50 40 44 43 42 41 40 38 39 40 40 40 40 40 38 39 36 31 27 25 24 21 18 15 12 12 12 12 11
77 72 73 90 89 72 71 71 65 63 58 67 65 71 48 46 45 44 41 44 44 43 43 43 41 40 42 42 42 41 38 31 30 31 27 20 18 15 13 14 14 14 13
86 77 70 67 79 79 81 79 67 65 66 77 80 70 59 50 47 45 46 51 49 47 49 47 46 45 44 45 49 44 42 35 34 34 25 20 17 17 16 16 16 15 15
79 81 77 76 83 87 93 85 77 79 77 85 85 82 55 49 49 46 54 55 54 54 52 49 44 45 46 50 50 46 42 39 37 29 24 19 18 19 19 18 17 16 15
78 85 85 85 87 90 97 98 93 91 87 86 91 84 47 48 49 52 57 58 61 58 54 50 50 46 50 52 52 47 43 38 36 27 23 18 20 21 20 18 17 15 14
73 78 83 88 88 93 90 95 98 95 91 91 91 86 46 49 52 54 57 59 59 56 55 57 55 56 57 56 55 51 41 39 34 24 21 19 23 25 21 18 16 16 18
73 71 83 89 91 91 96 99 98 94 95 95 90 83 51 55 55 57 58 63 59 63 59 66 65 65 60 59 55 49 41 39 30 25 21 21 23 24 22 20 19 19 20
76 76 87 88 85 90 97 98 97 97 95 91 92 85 65 56 57 57 61 66 64 62 65 70 72 70 66 59 55 43 43 36 30 26 22 22 22 23 25 22 21 20 21
82 81 86 89 84 94 98 98 99 98 90 91 89 79 66 56 59 65 64 62 68 67 71 74 73 72 66 63 57 45 44 33 29 26 23 23 23 25 25 25 25 23 24
81 82 84 89 87 97 98 97 97 96 92 88 79 71 68 70 64 63 62 64 72 74 77 78 74 71 69 64 52 51 42 32 27 26 27 26 27 28 27 26 26 28 30
85 82 83 85 85 88 98 98 98 98 90 80 78 80 77 76 70 66 62 70 75 76 77 75 73 73 70 59 54 53 39 31 28 29 29 31 31 31 32 33 33 32 34
86 88 79 84 90 84 90 94 94 91 87 80 79 81 85 83 79 72 73 74 75 77 75 75 75 71 70 60 63 45 35 30 30 34 37 39 41 41 41 42 40 40 43
77 84 84 83 88 94 93 95 94 85 83 86 88 85 80 79 79 76 79 80 77 78 76 76 77 74 70 71 53 42 35 31 32 36 40 41 44 45 47 48 48 50 52
75 79 82 84 89 89 90 94 91 89 79 79 82 81 80 88 86 84 84 81 80 78 74 74 68 72 80 63 48 40 34 31 31 34 40 44 46 49 51 52 54 55 54
78 76 81 88 92 92 93 91 95 91 90 82 84 84 83 88 88 88 84 84 80 77 68 66 72 81 70 59 53 47 40 38 39 41 46 52 58 61 61 62 61 61 64
66 75 82 85 92 93 92 88 92 88 91 86 85 85 89 92 90 87 88 78 70 67 66 72 76 76 69 65 64 59 55 54 53 53 60 65 68 71 73 75 76 74 74
50 57 59 69 77 82 87 88 91 88 86 85 85 90 92 91 91 87 84 69 64 65 68 78 81 81 81 78 75 75 74 75 75 71 69 69 71 74 79 83 82 79 78
38 39 42 50 55 61 67 77 80 83 81 79 77 80 86 84 81 81 75 70 73 75 81 87 86 85 86 88 87 85 79 75 71 73 74 77 78 80 85 87 88 81 76
42 40 42 42 44 47 50 51 56 61 67 71 73 75 75 76 78 76 76 77 78 77 83 86 88 87 88 92 93 92 88 72 79 80 80 81 84 85 87 91 90 83 75

GFSSE_prec_cthk_093.txt.gz
RH
47 51 50 58 68 81 64 69 76 75 76 74 74 75 70 64 53 42 28 22 25 28 28 25 23 21 21 25 20 16 15 15 16 17 18 21 20 19 18 17 19 22 20
50 60 64 65 68 67 64 72 75 80 77 74 72 70 73 64 56 45 33 30 31 28 27 23 20 20 20 19 19 20 20 20 20 20 25 26 29 28 28 27 27 27 27
53 52 62 64 59 59 66 70 69 71 76 72 75 73 69 68 59 49 32 31 32 30 26 23 22 22 22 22 21 21 21 20 20 21 25 30 27 30 29 28 27 27 26
46 54 59 64 59 63 64 67 65 64 71 74 80 78 69 64 53 44 33 34 35 30 24 23 23 25 25 25 24 23 23 24 24 23 31 32 32 31 29 28 26 26 23
56 55 60 64 59 64 66 65 63 65 69 66 77 79 65 56 46 40 36 37 34 29 26 27 27 32 34 27 25 26 25 26 24 22 25 30 33 32 28 23 21 21 18
52 64 64 62 59 69 70 66 63 67 67 65 71 73 54 50 46 42 38 36 35 31 30 32 32 36 36 31 29 27 27 26 26 24 25 27 30 24 19 15 13 11 10
62 73 95 76 68 69 64 65 68 68 65 61 66 66 53 50 46 41 38 36 40 39 38 38 36 36 35 35 33 30 30 30 29 28 27 29 26 18 14 12 10 10 10
72 75 93 92 81 89 80 69 71 67 62 59 64 71 59 50 43 39 38 43 41 41 41 41 40 39 38 37 37 34 34 32 31 28 26 26 19 15 14 13 12 11 11
73 80 80 97 97 87 87 86 74 66 61 62 58 63 67 50 40 38 43 42 40 46 50 47 43 43 42 40 39 37 36 35 33 32 29 25 19 15 14 13 13 13 13
71 79 88 89 84 81 88 97 86 71 63 62 59 60 63 58 42 41 42 41 42 51 52 49 51 47 48 43 42 43 41 39 39 35 30 24 22 18 16 15 14 14 13
60 74 83 84 82 88 83 87 87 82 68 65 61 61 64 64 45 45 44 44 49 55 53 52 51 48 50 46 45 44 45 42 42 36 32 25 20 16 16 15 15 14 13
53 65 77 83 80 85 83 84 87 92 74 65 63 69 67 68 56 48 47 51 56 62 57 57 54 55 49 47 47 47 48 43 42 39 30 24 20 17 16 15 15 15 16
58 60 78 82 82 89 95 98 94 97 84 72 73 74 78 75 60 50 52 56 62 61 61 59 58 54 52 52 49 50 47 47 45 38 29 26 22 19 17 16 16 18 19
67 65 70 79 83 87 92 99 98 97 94 86 87 86 85 80 57 48 53 57 60 61 61 61 58 59 61 55 54 52 52 49 41 35 29 25 21 20 19 19 18 20 19
68 69 73 77 85 89 92 95 95 97 92 96 90 92 83 74 61 50 52 56 60 61 63 64 65 65 64 61 58 54 51 46 41 35 30 25 21 21 23 22 20 20 20
72 76 75 80 91 94 94 94 95 91 93 97 96 93 88 78 57 51 51 57 61 65 68 69 69 70 68 66 62 57 53 44 39 33 29 25 21 22 24 25 24 23 23
69 81 78 81 88 92 94 98 95 95 98 97 97 93 91 71 55 53 53 59 64 68 72 73 72 74 74 69 63 58 57 47 43 34 32 27 25 26 25 26 25 25 26
67 74 75 76 83 97 95 98 98 97 99 98 96 94 91 67 59 54 59 66 67 71 73 76 79 79 77 73 67 60 56 52 43 36 29 28 31 30 29 30 31 32 34
70 80 80 71 84 98 99 98 99 97 97 95 95 94 91 74 63 61 62 68 69 71 74 76 81 80 80 78 68 54 58 48 40 30 31 38 39 36 38 38 39 40 41
73 78 81 77 82 96 98 98 98 96 95 96 95 91 92 85 73 69 69 71 74 75 77 78 81 84 85 79 65 59 61 41 38 33 37 36 38 38 39 42 43 46 50
72 73 78 80 87 92 97 98 97 96 97 92 91 90 90 90 86 80 77 77 78 81 78 79 80 84 83 77 66 71 51 44 40 33 34 36 40 45 48 49 55 55 56
74 72 73 80 92 91 95 98 97 97 92 86 91 91 92 94 88 86 82 84 84 84 82 81 78 80 80 79 79 62 50 42 37 37 37 41 46 52 58 66 68 70 70
68 74 76 79 85 91 93 92 96 91 86 87 87 86 92 89 91 90 94 90 87 85 83 78 77 74 77 83 70 62 58 56 55 53 52 53 59 67 69 69 71 74 76
47 61 70 76 87 93 95 94 91 90 91 90 89 87 87 88 86 90 91 90 87 86 83 78 70 72 82 80 76 75 75 71 72 71 75 79 77 74 75 76 77 80 83
36 39 51 56 61 76 83 87 87 89 93 91 89 90 86 84 85 89 92 92 87 78 70 69 73 80 84 87 90 87 85 83 83 81 76 68 74 78 81 81 83 85 87
38 38 41 45 48 54 61 75 80 85 87 85 86 86 82 83 84 88 91 88 78 75 72 80 82 88 90 92 93 92 91 92 89 96 94 87 83 84 83 79 87 77 86

GFSSE_prec_cthk_096.txt.gz
RH
41 49 47 45 51 62 60 64 66 71 71 71 71 70 64 61 56 46 30 20 21 25 28 29 30 30 26 23 21 19 18 15 15 16 15 16 16 17 19 22 25 26 24
44 51 55 54 51 55 63 66 67 77 78 78 77 73 72 65 59 50 32 22 26 28 28 25 23 21 19 18 17 18 18 18 18 22 26 26 25 27 26 27 27 25 25
47 55 59 62 66 68 59 58 63 75 81 80 75 77 76 67 58 54 41 24 31 30 27 22 20 20 19 20 20 21 21 21 22 25 29 35 35 32 29 30 28 27 27
43 52 57 63 64 70 69 65 64 71 74 75 73 75 79 73 69 51 45 31 36 30 25 22 22 22 22 22 23 22 22 23 26 32 38 37 36 33 30 29 28 26 25
46 54 56 55 68 67 65 68 71 68 69 68 74 73 79 74 67 53 43 36 38 31 23 23 23 24 26 26 23 23 24 26 31 40 41 35 34 32 28 27 24 22 20
43 47 59 62 66 70 63 73 76 72 67 74 76 73 81 72 57 45 43 42 36 30 24 25 26 26 28 32 29 26 26 28 34 36 34 34 33 25 20 18 14 12 10
43 53 78 94 86 89 66 69 78 75 70 72 73 70 77 67 55 46 44 37 35 30 29 31 30 29 29 28 28 28 28 34 39 38 37 33 25 19 16 13 12 10 10
43 54 73 84 95 98 76 71 76 79 76 70 69 67 73 66 59 49 42 36 36 34 36 39 37 35 34 30 29 30 30 36 43 41 36 29 19 18 19 14 12 11 11
42 51 68 79 83 96 97 87 76 74 70 69 66 64 68 68 54 49 40 38 38 41 45 46 45 43 40 35 34 32 32 39 44 43 35 32 21 18 20 14 13 12 12
42 51 58 76 87 93 91 95 92 96 82 70 61 61 65 74 58 48 39 40 41 44 50 53 51 47 47 42 40 37 36 39 46 47 41 31 24 19 20 15 13 12 12
47 52 58 66 79 93 90 82 90 98 96 71 62 65 62 70 66 49 45 43 44 49 52 53 53 50 46 41 42 42 43 44 47 53 42 29 27 22 17 15 14 13 13
55 54 66 68 78 80 81 79 75 89 92 70 66 65 67 68 72 65 47 47 48 53 53 57 57 54 49 46 44 45 50 48 49 52 42 34 28 20 18 15 15 15 16
52 70 70 70 82 78 80 76 79 87 96 87 69 65 65 74 70 68 51 48 51 56 58 60 61 57 55 56 53 53 50 52 51 49 44 35 26 22 19 16 16 18 19
60 70 71 74 85 84 83 91 94 98 96 90 83 69 70 79 75 69 60 51 54 59 63 64 65 63 62 61 58 56 55 57 57 50 41 35 29 27 23 18 17 19 19
63 71 69 75 84 87 89 93 96 92 97 96 94 82 78 75 78 73 72 55 57 64 65 70 69 65 60 58 64 61 57 56 53 48 43 35 30 26 25 23 20 20 21
61 69 66 72 74 86 89 90 92 97 93 98 98 95 83 79 77 76 73 56 58 66 69 69 67 68 65 64 64 62 63 61 54 49 45 35 30 27 29 28 25 23 22
60 66 68 72 80 82 85 88 92 94 97 94 98 96 93 87 86 81 66 60 59 63 64 67 69 70 70 68 65 66 61 60 56 48 44 39 35 33 28 27 29 27 29
60 67 73 76 74 78 81 90 94 95 93 96 99 97 96 92 86 83 64 63 60 62 63 66 72 71 73 73 72 68 64 58 59 52 47 46 43 40 31 34 35 37 33
62 68 73 74 71 70 91 91 95 96 93 94 97 97 96 93 85 77 64 62 60 62 65 67 73 75 78 79 75 73 66 61 57 52 49 49 45 39 44 49 39 38 38
68 70 74 79 78 80 94 96 97 99 98 95 98 98 97 96 90 70 60 63 63 65 69 72 76 78 82 83 80 76 67 60 59 49 47 44 41 49 51 43 38 41 40
68 69 73 74 73 81 95 97 99 99 98 98 98 99 99 95 86 67 68 64 67 68 73 74 78 80 83 85 83 78 68 64 59 45 43 45 47 41 40 43 47 48 50
66 66 70 72 75 82 90 97 98 99 99 98 99 98 98 95 82 72 69 69 71 74 77 78 80 81 79 84 86 82 76 72 57 46 44 37 37 38 40 45 50 56 64
57 66 69 74 78 83 88 96 96 96 98 98 98 98 96 93 86 78 78 76 77 80 81 83 82 82 80 82 86 84 84 70 61 58 53 49 47 48 54 59 68 69 68
41 55 63 71 77 81 90 94 96 97 97 97 95 97 94 94 94 90 86 84 85 84 84 84 84 83 81 81 85 84 82 69 70 70 73 67 65 66 76 75 70 70 71
33 39 46 55 65 77 84 90 90 91 93 92 94 91 89 91 92 94 92 89 90 92 88 86 85 80 77 73 76 87 86 80 82 81 80 81 79 77 75 69 74 75 79
36 36 38 42 45 58 67 81 84 86 85 86 92 93 91 91 94 94 93 89 91 91 88 80 76 73 64 71 82 86 89 93 92 89 89 93 97 94 91 90 84 83 81

GFSSE_prec_cthk_102.txt.gz
RH
52 35 29 32 39 41 43 49 58 64 65 60 54 46 42 41 41 35 26 29 28 27 26 21 19 19 21 22 24 26 26 19 19 21 25 27 27 24 26 26 25 27 27
46 36 31 33 46 52 67 56 62 64 63 61 62 56 58 52 49 42 29 30 27 23 23 19 16 18 19 24 26 25 20 18 19 23 24 26 26 23 24 26 26 26 27
38 32 29 34 44 54 57 65 66 71 63 67 64 63 60 60 54 50 38 30 26 23 23 18 19 25 25 23 20 20 22 22 22 24 22 21 26 27 28 27 29 27 28
27 33 30 34 45 56 66 70 66 65 65 70 75 76 72 68 62 50 43 29 28 28 34 30 22 19 19 20 23 26 28 32 32 31 30 29 30 29 28 27 26 25 24
27 32 37 39 43 51 67 75 74 73 67 69 75 76 87 78 73 58 45 28 30 34 36 25 24 24 25 26 26 31 32 37 40 40 37 34 34 32 26 23 21 20 20
31 30 31 33 33 38 55 66 78 79 76 70 80 82 81 91 82 65 56 37 31 28 29 24 24 24 25 28 31 39 42 42 41 41 39 33 34 28 24 19 18 16 16
31 32 29 30 30 33 43 65 73 84 79 68 72 88 82 91 86 69 52 39 30 29 27 25 21 22 25 30 40 42 42 41 43 39 36 34 29 27 22 18 17 16 14
30 33 30 27 27 29 35 44 66 77 91 81 79 80 75 90 91 80 61 49 39 31 28 28 26 28 29 32 38 38 39 40 41 37 34 27 25 23 19 19 19 17 14
32 33 31 27 28 31 38 46 60 84 97 95 93 77 86 91 73 77 69 65 51 41 41 40 37 35 32 31 33 34 38 41 41 38 30 26 24 23 22 22 20 18 13
31 29 27 28 28 34 48 65 69 64 60 96 97 79 76 91 78 66 63 54 49 41 35 33 33 31 31 31 32 36 42 46 45 37 30 27 27 27 26 23 22 18 15
30 26 29 29 32 48 59 77 91 86 80 91 98 92 87 89 72 71 62 46 40 37 35 37 36 35 35 35 39 45 51 53 49 41 33 31 35 34 29 24 21 19 16
36 32 33 33 44 56 67 86 93 93 88 93 97 84 95 82 70 72 59 46 42 39 42 42 41 40 42 42 48 52 53 57 53 46 35 35 34 35 27 26 22 19 17
38 37 36 40 51 59 68 84 91 90 92 87 98 88 94 74 68 69 62 49 44 46 46 44 44 46 43 43 49 54 53 58 53 47 38 35 32 32 31 29 22 22 20
40 38 32 42 54 61 72 87 98 92 96 96 94 96 78 70 64 72 67 53 47 51 49 48 46 47 46 49 55 58 57 60 55 50 40 36 36 36 34 28 24 23 22
37 36 28 43 55 68 80 88 92 96 93 96 96 95 71 63 66 72 69 64 54 51 51 50 49 54 55 55 60 57 60 62 54 52 41 40 37 36 34 29 26 24 22
37 34 28 41 55 65 79 88 92 91 88 87 91 94 74 63 69 72 81 72 64 55 52 52 54 61 62 61 59 56 60 60 58 54 45 42 37 36 34 32 27 26 22
37 35 32 45 60 62 72 85 92 89 86 90 96 92 78 73 74 75 82 81 77 64 57 55 60 65 67 63 60 62 62 62 61 61 54 47 39 35 34 33 27 25 24
37 34 34 51 60 63 64 71 85 84 82 83 83 88 87 90 83 79 78 81 84 73 64 60 69 65 64 63 62 63 63 65 68 64 59 52 46 36 34 31 27 26 28
36 33 40 52 59 62 62 61 66 76 78 77 83 86 89 95 94 88 79 78 83 76 73 76 77 68 64 62 63 66 67 68 69 68 63 58 51 46 40 35 33 36 39
34 31 44 53 57 64 64 63 64 70 75 83 85 85 92 97 96 91 83 87 87 84 90 88 79 71 68 64 67 68 68 71 70 71 66 65 61 52 44 43 46 44 44
33 32 42 51 57 68 69 68 67 70 76 88 93 92 93 96 97 95 88 87 94 89 91 85 79 77 71 68 74 73 75 75 75 73 68 63 62 52 46 45 42 43 41
33 33 39 54 55 59 63 65 71 75 77 89 94 91 92 98 97 96 91 87 87 89 97 86 81 78 74 76 80 75 78 78 78 73 72 65 65 56 49 47 43 38 38
33 34 37 45 57 60 63 68 74 79 88 95 95 95 92 97 97 96 94 89 87 87 90 87 83 81 79 82 83 77 80 79 77 72 71 70 66 61 59 58 58 56 54
33 34 39 42 48 58 64 68 74 82 92 96 95 96 96 97 98 98 94 92 88 90 91 88 86 86 87 84 84 83 81 82 80 75 73 72 70 65 63 65 65 66 65
33 32 37 42 43 46 56 70 78 82 85 93 98 99 97 100 98 98 95 93 91 94 93 91 90 87 84 88 87 82 82 79 76 75 73 70 71 66 67 71 76 74 75
32 31 35 38 40 42 50 58 76 83 86 88 97 98 99 99 99 98 97 92 94 95 95 92 92 86 87 86 84 79 77 76 72 68 69 71 75 77 80 82 80 80 83

GFSSE_prec_cthk_105.txt.gz
RH
39 35 33 32 28 32 37 43 38 42 49 55 53 48 41 39 35 36 36 40 43 36 29 30 28 25 25 26 26 30 30 28 25 25 26 27 26 28 28 27 29 31 32
39 35 29 27 30 36 41 45 51 54 54 57 63 56 46 43 41 36 28 26 32 34 29 25 22 23 23 22 26 28 26 21 21 21 24 28 29 29 30 31 32 33 33
26 22 22 25 34 40 47 54 58 55 61 67 64 49 53 54 54 46 27 26 28 30 25 24 19 21 19 21 24 23 19 19 23 26 27 26 27 29 28 32 33 31 32
21 18 19 26 33 44 54 63 57 69 67 61 60 58 56 62 60 53 35 28 32 31 26 24 17 18 18 18 22 23 23 26 25 24 25 30 27 26 31 32 32 30 28
19 20 22 25 31 37 49 61 64 80 60 69 63 62 61 77 70 51 41 31 31 30 26 18 16 15 20 24 28 31 32 39 41 35 32 30 31 31 31 28 23 23 23
26 23 28 24 26 27 33 48 62 80 66 78 67 65 66 76 73 64 47 35 30 28 24 20 28 30 29 27 30 35 39 42 41 35 27 28 31 31 23 21 21 21 20
30 29 32 30 27 28 26 32 43 59 70 72 91 73 76 85 85 85 64 37 31 28 23 26 35 37 37 41 43 50 49 44 39 35 29 27 30 25 22 20 21 21 19
32 30 32 32 29 26 24 28 33 43 63 82 86 90 76 72 86 88 71 50 34 25 20 23 31 34 28 33 40 45 46 42 35 32 31 26 25 21 20 19 19 17 16
30 31 30 27 28 27 26 29 35 40 50 81 88 87 89 87 91 79 69 50 39 33 26 27 30 34 30 34 41 43 40 36 34 30 25 23 23 22 20 19 20 20 18
30 31 27 24 25 25 28 35 43 49 57 69 90 85 97 86 81 87 67 43 36 34 34 36 31 36 38 41 41 40 41 38 34 29 25 24 23 23 21 22 21 20 18
32 35 31 27 26 30 35 45 55 62 70 78 94 83 98 92 81 86 70 59 49 42 43 50 50 43 42 43 44 41 39 39 38 32 30 26 26 27 25 25 23 22 18
31 33 30 31 26 30 47 54 64 82 90 92 84 90 97 86 79 80 70 58 59 58 61 46 39 35 38 38 42 44 44 43 43 39 32 30 30 29 28 25 24 24 20
32 37 33 33 30 35 54 59 73 91 90 96 92 82 96 95 82 75 69 57 48 42 46 41 36 37 38 43 46 50 46 45 47 43 34 34 33 31 31 30 26 26 23
35 38 34 35 30 38 55 65 87 94 96 94 87 87 93 97 82 81 61 49 43 43 45 41 40 42 45 44 46 51 49 49 50 45 36 35 33 33 33 32 31 25 24
36 39 36 35 29 41 55 69 87 95 95 96 92 93 97 95 85 79 62 56 44 46 46 43 44 47 48 45 48 53 52 51 51 47 42 38 35 34 35 32 29 26 25
41 40 38 36 33 49 64 72 87 92 97 97 95 96 95 90 86 75 65 60 51 48 47 46 47 49 50 49 51 57 53 55 52 52 47 43 39 36 33 31 29 27 27
38 40 40 37 42 55 70 74 86 93 92 98 98 95 95 90 77 71 68 62 58 52 52 51 51 54 52 54 56 61 57 59 56 54 51 46 43 38 34 32 31 29 28
36 38 40 39 52 58 68 77 83 91 93 92 99 98 93 86 72 75 69 73 63 61 59 58 57 58 60 58 57 58 61 58 59 59 56 54 49 42 37 33 32 29 28
37 37 37 38 54 61 64 68 76 80 84 86 90 95 94 89 84 87 75 79 76 70 69 65 65 61 63 62 60 59 64 61 62 64 62 58 54 50 44 37 33 32 32
37 34 33 39 54 59 64 66 66 68 76 79 81 88 90 91 85 84 86 77 82 75 74 73 69 70 67 65 64 65 67 67 64 65 66 63 58 53 51 45 40 39 40
38 33 28 36 55 59 66 69 70 71 71 74 77 80 87 87 90 91 89 85 78 80 77 77 81 78 76 75 72 71 68 71 74 73 68 67 64 61 54 46 41 40 41
38 30 27 35 49 58 59 61 65 68 71 80 81 80 83 87 89 93 92 86 85 89 82 84 86 88 81 77 72 73 72 75 75 76 77 72 69 64 61 53 47 48 49
38 28 27 34 42 55 61 62 64 68 74 80 88 90 91 91 92 95 94 89 87 92 91 93 94 91 79 77 78 77 77 79 78 78 76 75 71 69 66 63 60 56 56
35 28 28 33 38 47 57 64 69 69 75 78 89 97 94 95 95 96 97 92 90 94 98 95 95 93 85 86 85 86 84 84 81 80 78 77 73 70 72 69 64 61 63
34 26 26 32 37 42 50 56 63 70 75 82 91 97 100 96 97 96 97 94 93 92 94 93 92 91 92 92 94 88 88 89 83 80 77 75 75 72 73 74 72 71 75
33 26 26 32 35 39 46 57 61 74 83 82 91 95 99 98 98 98 98 96 95 97 94 93 95 94 94 94 91 91 92 87 83 78 77 75 70 71 73 78 80 83 83

GFSSE_prec_cthk_108.txt.gz
RH
35 35 32 33 32 29 25 30 32 35 37 38 39 43 47 51 56 56 53 53 50 52 44 40 40 38 33 32 29 30 30 24 26 28 27 26 26 25 25 26 29 32 36
34 32 28 26 29 28 31 36 38 40 42 44 44 41 42 44 46 46 46 48 44 39 39 37 33 30 31 29 29 30 27 24 26 25 26 26 26 27 28 30 33 35 36
28 23 18 17 24 32 38 44 44 47 50 53 55 54 52 47 40 35 33 30 30 26 34 34 29 30 30 27 29 25 21 21 20 22 25 26 27 30 32 34 34 34 35
20 19 17 18 23 32 41 47 49 55 57 58 64 55 53 53 46 40 33 29 24 26 29 30 27 31 28 23 22 19 17 19 21 25 27 29 30 29 31 31 31 33 32
19 21 22 22 23 29 39 48 56 58 58 65 73 66 58 63 59 48 37 32 28 27 27 27 28 28 25 18 13 16 20 21 24 26 27 27 28 29 29 31 31 28 27
24 25 26 24 26 27 31 41 54 59 62 57 70 82 67 64 60 63 48 38 34 31 29 28 29 24 20 16 21 25 31 29 32 33 36 33 31 28 29 25 23 23 24
24 27 27 27 29 28 27 29 37 54 62 67 68 79 68 89 68 60 59 48 38 36 30 28 26 24 21 24 28 27 33 41 47 37 26 27 29 30 26 19 21 23 22
29 27 26 28 27 28 31 30 32 41 55 65 70 78 81 96 71 72 58 56 47 34 27 26 25 30 34 44 39 40 47 49 42 38 28 23 28 26 22 20 20 18 17
27 29 27 27 26 24 26 30 32 39 47 64 74 82 82 86 91 76 63 57 46 30 28 27 30 37 50 55 56 45 49 47 37 27 24 26 25 24 20 18 17 18 18
29 30 28 27 26 24 22 25 34 42 56 64 70 78 88 88 91 79 73 62 37 31 28 29 26 38 50 52 39 41 37 36 31 26 25 22 24 23 21 19 20 19 20
29 29 29 30 29 28 26 27 35 48 53 68 73 77 87 87 87 90 79 61 40 34 30 31 34 41 49 42 40 40 36 38 35 27 26 27 26 26 24 25 23 21 21
28 29 31 34 32 32 32 27 39 57 65 71 84 88 91 89 87 93 81 60 45 36 42 39 43 43 51 50 44 44 39 38 32 32 32 29 28 28 28 27 24 22 23
26 28 30 33 33 33 33 30 50 61 68 82 89 94 98 97 91 91 82 64 44 32 35 41 49 53 63 50 49 41 45 47 43 38 33 31 30 30 28 28 29 26 24
24 26 28 33 35 36 31 37 53 68 86 91 92 91 96 97 92 98 82 74 53 47 49 51 59 63 46 44 42 47 50 48 44 40 34 32 31 30 29 30 32 31 27
27 27 31 34 36 38 35 47 64 78 94 97 96 97 92 91 90 92 80 65 61 54 58 56 45 38 45 50 49 50 51 48 46 45 38 36 36 34 32 31 32 31 28
34 32 32 34 36 36 41 53 69 82 98 98 96 98 97 89 93 85 74 64 42 40 44 44 41 45 50 57 53 54 52 52 52 50 45 42 40 36 33 33 31 30 28
36 36 33 33 36 36 46 60 71 90 98 98 97 97 94 89 97 85 80 65 49 39 41 45 45 50 53 61 56 56 55 56 58 51 46 43 42 41 36 34 32 31 31
37 35 33 33 32 38 49 67 76 83 95 96 97 96 92 92 92 85 86 63 54 47 45 46 47 52 54 63 58 57 59 57 61 55 55 47 46 44 39 37 36 33 33
36 36 35 33 29 40 50 65 76 82 83 93 98 94 93 92 94 89 83 64 53 53 49 48 49 55 57 62 60 61 60 61 62 60 60 57 54 50 45 41 40 35 34
39 39 38 33 25 40 53 60 69 75 81 84 93 98 97 95 93 82 79 65 57 60 57 52 53 55 58 59 61 64 62 65 62 66 67 64 63 60 55 51 47 41 38
44 42 38 29 27 36 55 62 67 68 69 75 80 87 91 95 91 83 75 64 68 65 65 63 64 65 70 67 67 72 69 71 71 72 77 75 71 67 62 56 52 45 42
45 43 38 27 28 34 50 60 64 69 73 69 72 79 86 92 91 83 81 73 70 73 72 70 69 70 74 76 72 72 73 74 76 76 79 79 79 78 71 63 57 53 50
49 43 35 27 26 31 44 58 63 68 78 81 81 82 82 83 88 90 89 86 82 77 80 72 75 72 77 80 78 75 75 74 77 80 83 82 83 80 79 72 66 66 65
48 43 34 27 24 30 40 49 57 65 72 80 84 87 89 90 87 86 88 91 92 86 82 80 83 79 78 81 81 80 79 81 85 84 86 83 83 82 78 73 71 70 67
48 41 30 27 25 30 35 44 53 59 71 78 84 93 99 99 97 93 92 93 97 89 85 89 87 87 88 92 85 83 83 88 87 84 86 84 81 80 77 72 69 71 76
47 40 32 26 26 29 33 40 48 57 67 76 83 91 99 99 99 98 95 96 97 92 89 93 94 93 96 92 90 90 91 90 89 89 90 88 85 82 81 75 71 72 74

GFSSE_prec_cthk_111.txt.gz
RH
30 29 28 28 32 31 26 27 25 27 33 38 43 47 52 52 46 41 46 51 51 47 44 44 44 47 49 49 45 40 35 32 28 30 29 29 27 26 26 27 25 27 29
25 23 22 23 25 27 25 28 31 33 38 43 43 46 50 51 53 50 48 47 46 48 44 41 43 45 43 37 35 33 27 25 24 27 26 27 27 25 25 27 30 33 33
19 19 19 18 22 26 29 33 35 38 42 46 45 47 54 54 57 57 52 47 47 43 40 35 41 40 36 33 34 32 25 22 22 21 22 22 24 25 28 32 35 35 36
21 20 20 19 22 26 32 37 42 43 47 51 53 55 60 62 60 58 53 45 39 35 33 31 37 37 35 34 35 30 23 21 22 20 21 21 25 29 33 34 33 33 35
22 22 22 21 21 26 32 40 47 47 53 56 58 58 65 63 57 58 51 44 36 32 29 31 31 37 36 34 31 30 21 20 22 22 22 24 30 30 30 28 31 29 29
22 21 23 24 23 26 32 41 49 55 60 61 64 70 67 65 68 66 54 45 42 37 33 30 29 33 33 30 24 22 22 21 23 23 24 25 25 26 32 28 24 24 25
23 24 26 24 24 26 28 32 37 50 58 59 78 66 65 73 78 75 58 52 45 42 40 35 32 32 26 23 20 19 20 24 26 25 31 41 41 36 37 27 22 21 25
24 25 26 26 24 25 24 26 31 34 41 52 80 83 70 70 80 89 63 54 58 44 42 38 36 27 24 24 26 27 28 35 36 37 35 28 32 32 28 22 19 22 19
25 27 27 27 25 25 26 26 26 30 34 42 57 67 70 87 81 84 65 77 61 57 44 33 32 27 29 29 30 32 38 43 43 41 44 40 34 36 30 22 21 17 19
27 28 29 26 24 26 26 26 28 27 33 46 53 62 70 81 90 88 92 80 61 55 38 33 30 34 34 37 39 46 55 54 46 39 24 23 28 29 26 23 20 21 20
28 28 29 27 26 28 28 27 28 28 37 48 54 62 71 79 89 94 90 76 72 50 40 35 35 39 41 45 42 50 47 46 30 28 26 30 26 28 25 25 22 23 22
28 28 29 29 29 32 33 30 30 29 32 50 61 70 73 77 82 86 88 81 81 48 39 34 40 39 45 46 61 50 54 39 41 39 31 30 28 27 27 25 24 24 24
30 28 29 29 31 34 37 34 34 30 34 48 72 82 87 84 88 89 88 83 85 50 38 39 42 38 41 45 50 44 43 38 27 31 33 31 30 28 27 27 26 26 25
30 29 30 30 32 36 39 37 35 33 39 54 69 89 96 93 95 92 90 87 80 46 42 41 43 45 46 47 55 51 45 44 46 37 35 34 32 32 31 29 29 30 29
31 31 35 35 34 38 39 39 36 37 47 59 80 92 93 97 97 94 89 73 66 46 44 48 49 51 59 61 48 45 47 52 46 42 37 36 34 33 34 32 33 33 31
32 34 38 38 36 39 39 38 39 44 56 71 89 95 96 96 96 96 94 79 68 46 39 43 51 59 62 61 41 45 49 49 49 49 41 39 38 38 35 35 34 33 31
31 35 39 41 41 40 39 38 44 49 65 83 94 96 95 98 97 95 92 84 71 51 47 52 66 62 58 46 45 51 50 50 52 51 49 42 41 40 39 37 35 34 32
33 36 43 45 45 41 36 38 47 63 76 85 97 98 99 96 94 97 91 79 74 60 54 61 65 58 51 46 54 54 55 56 56 54 53 50 47 43 42 39 36 36 34
36 39 47 48 45 38 31 40 53 67 77 84 96 99 95 99 95 92 93 71 64 47 46 51 51 52 50 53 63 58 59 61 60 58 58 55 54 49 46 43 41 39 36
38 43 51 49 46 36 30 40 55 63 71 74 92 97 96 98 98 95 85 71 68 46 40 42 45 50 52 55 67 66 63 64 63 60 63 65 60 58 54 49 46 44 43
43 48 50 49 44 32 30 37 55 60 68 69 85 97 95 98 95 92 82 79 73 50 50 47 46 53 58 61 66 73 67 68 67 65 68 67 66 66 63 58 54 52 51
45 50 51 49 43 30 30 36 51 61 67 69 73 83 95 94 94 92 87 84 72 52 49 53 52 54 59 63 65 67 70 71 74 79 80 74 75 76 72 70 64 58 54
45 47 50 47 42 32 32 36 45 61 65 71 73 79 91 94 93 92 88 79 74 57 56 58 58 57 58 62 65 68 71 71 73 76 75 80 81 82 82 79 74 69 67
45 48 52 47 40 30 32 36 41 50 62 71 77 78 83 90 92 94 94 85 82 66 63 62 64 64 65 70 75 75 72 77 74 76 78 82 81 83 83 84 83 81 75
48 50 52 47 36 30 31 36 40 47 56 66 77 82 88 88 93 94 92 91 86 75 73 78 75 75 71 73 75 80 81 80 81 80 84 83 82 86 83 81 80 78 74
49 57 52 47 33 31 33 35 38 42 52 60 75 83 88 89 95 95 97 96 95 89 81 83 84 85 81 82 82 84 83 81 84 84 86 86 86 87 87 87 86 83 76

GFSSE_prec_cthk_114.txt.gz
RH
26 26 26 26 26 26 24 25 22 24 26 30 36 45 51 56 58 55 53 51 49 48 45 51 50 51 56 57 56 51 45 47 37 33 29 28 26 24 23 26 25 25 27
23 20 18 17 18 21 23 23 23 26 30 37 43 49 54 53 56 60 58 53 50 46 46 48 50 47 49 48 47 40 39 38 32 33 29 24 22 22 22 24 27 30 29
20 19 18 17 18 20 23 24 26 28 35 40 48 53 55 58 59 62 59 60 54 46 46 46 46 48 49 44 40 37 36 32 31 28 24 23 24 22 23 29 32 33 34
19 21 20 19 19 21 24 26 29 32 37 43 50 53 57 59 65 68 67 65 63 53 49 43 42 49 48 39 39 40 31 29 27 23 21 21 22 26 29 34 35 35 37
21 21 20 20 20 22 25 27 32 36 41 47 52 57 61 76 69 71 66 62 59 50 44 44 41 41 42 37 38 35 30 26 25 23 21 20 24 30 31 35 35 35 35
22 22 23 23 21 24 27 30 35 38 43 45 53 66 76 69 71 69 66 64 53 43 41 49 38 35 40 35 34 32 30 31 25 23 22 24 27 30 28 28 30 34 30
23 25 25 25 23 23 26 28 31 37 40 45 50 75 77 94 77 68 74 74 59 47 43 53 47 35 35 31 30 29 25 24 23 23 24 24 25 29 31 31 28 26 27
22 24 27 28 27 24 28 28 26 31 37 40 43 43 52 82 84 90 84 84 65 50 60 48 42 46 35 31 25 23 23 22 24 26 29 32 35 32 37 34 25 23 23
25 24 27 29 30 27 27 28 27 27 31 34 36 37 47 50 62 73 77 87 69 59 65 46 39 38 37 27 23 20 27 29 29 30 32 30 30 32 30 22 19 19 22
28 27 28 28 32 30 28 31 31 30 31 32 32 34 42 53 61 70 77 90 74 77 69 48 35 34 31 28 32 34 35 37 37 38 39 40 51 39 30 24 23 22 23
28 31 28 29 31 31 31 30 34 35 34 35 36 39 42 51 57 66 79 88 81 81 71 52 35 31 33 37 39 37 39 41 45 44 42 30 24 29 30 23 23 22 26
29 29 30 30 31 32 33 32 33 37 38 41 43 43 44 52 61 66 77 91 86 87 66 53 32 32 38 40 48 44 42 38 41 37 33 28 33 31 28 26 26 27 29
27 30 31 29 32 35 33 35 36 38 39 47 51 53 51 63 74 77 80 80 81 81 67 51 41 39 36 44 51 45 55 54 45 43 41 33 36 36 30 30 27 31 30
29 32 33 31 32 38 38 38 40 40 42 49 50 56 63 77 88 90 85 89 82 82 64 56 43 41 46 53 53 47 56 47 31 32 33 33 37 34 32 34 33 31 29
32 35 34 32 35 37 41 42 42 42 44 51 52 60 72 92 94 94 93 91 90 84 63 57 45 45 46 46 50 50 54 50 38 37 33 34 36 32 33 33 32 32 30
32 35 37 36 37 38 44 47 43 42 45 50 56 68 79 92 96 96 95 94 93 86 74 52 44 47 46 54 54 58 65 49 49 43 36 38 37 36 35 38 37 36 34
32 35 38 39 39 42 47 52 44 39 47 51 65 80 85 94 98 98 98 93 89 87 70 47 47 49 53 61 60 56 47 47 50 46 41 42 41 40 40 43 39 38 35
33 35 36 38 41 43 51 53 42 36 49 61 73 81 88 90 98 98 98 95 92 87 59 50 50 50 59 65 59 62 48 48 50 51 50 45 42 41 42 42 41 36 37
34 35 35 37 41 42 53 52 39 35 54 62 72 79 83 94 98 98 98 98 94 82 54 51 52 52 63 58 59 58 53 50 56 56 54 48 49 47 45 44 42 39 39
35 37 37 38 42 44 54 50 36 39 55 63 71 75 84 99 98 98 98 96 88 89 57 49 52 62 63 59 59 58 61 58 61 60 59 54 55 52 51 50 48 45 42
37 42 39 40 43 46 52 47 34 39 53 64 71 73 84 97 97 99 97 96 87 86 59 55 65 69 69 62 58 65 69 65 63 65 65 62 61 62 65 62 58 55 52
39 42 40 44 43 48 53 44 36 39 48 64 67 72 81 97 96 95 95 97 87 82 64 58 64 67 63 55 60 65 76 74 66 67 68 66 66 69 70 76 70 63 59
41 43 43 42 44 50 55 44 36 39 46 60 67 70 74 97 96 97 98 98 90 71 57 42 45 49 52 59 57 60 68 79 71 68 68 73 82 80 82 80 75 73 69
43 47 47 47 46 53 55 42 36 37 42 54 64 72 75 84 97 98 97 91 81 77 62 52 54 53 51 58 61 67 70 70 69 72 72 75 82 84 83 82 86 87 86
43 47 46 48 50 55 55 42 36 37 41 51 61 70 78 82 92 96 93 91 87 86 72 53 52 54 57 58 59 64 67 67 71 74 73 79 83 83 81 81 82 84 85
47 49 49 50 53 58 55 42 35 36 41 48 58 64 78 85 87 93 95 91 88 84 77 59 54 57 61 63 66 70 71 75 76 74 75 83 85 86 83 83 84 86 85

GFSSE_prec_cthk_120.txt.gz
RH
22 20 23 22 22 21 22 24 24 24 25 29 35 36 39 44 49 54 56 54 50 51 58 58 63 64 62 63 63 63 61 59 58 55 52 44 34 33 33 35 35 34 38
23 20 16 14 14 13 15 18 21 22 23 27 32 36 41 47 50 54 56 57 54 53 50 56 60 67 69 67 66 62 57 53 51 46 39 43 35 30 26 34 28 27 32
18 16 16 15 13 13 15 18 22 23 25 28 34 39 45 48 52 52 56 60 68 62 50 49 53 59 64 62 62 61 56 50 45 44 40 41 31 25 24 22 22 25 27
16 16 16 16 16 15 16 21 24 27 28 31 39 45 52 54 55 54 57 65 68 70 71 53 55 61 57 59 54 53 46 41 44 40 45 40 31 24 24 27 30 30 33
18 16 16 16 16 14 16 21 25 29 33 34 40 46 52 56 60 64 70 67 72 83 78 64 56 56 54 56 52 44 39 38 40 40 44 40 33 28 30 34 34 36 41
20 19 17 17 17 17 16 18 22 26 32 37 38 46 52 55 69 72 95 92 95 76 79 74 63 52 54 48 54 42 36 36 35 45 43 35 32 31 32 33 31 34 36
21 20 19 19 19 19 18 18 20 22 27 35 37 46 49 46 52 37 66 70 87 97 80 72 63 59 56 42 50 43 34 34 42 45 40 35 31 30 32 32 31 31 38
21 22 22 23 23 23 22 21 22 23 26 30 36 51 61 42 43 50 46 50 65 92 72 68 64 61 53 43 43 47 39 35 42 46 41 37 31 31 30 30 29 31 32
20 22 23 24 26 26 26 26 25 28 29 30 36 42 50 46 45 48 45 48 65 73 76 74 71 64 57 44 42 48 41 38 40 41 43 37 31 30 32 33 32 30 32
21 22 23 25 26 27 28 29 30 29 32 32 33 38 40 47 48 51 49 51 62 63 73 73 67 65 57 45 42 47 38 35 43 39 43 37 35 36 31 28 29 29 26
21 22 23 25 26 28 30 32 35 33 33 35 37 39 41 44 48 53 52 55 60 64 76 74 67 59 53 45 45 42 37 42 41 40 45 35 36 35 29 27 32 33 30
22 22 24 25 26 29 31 35 39 39 36 37 38 41 46 49 56 61 61 60 65 69 78 81 76 56 54 48 42 37 45 47 40 41 44 40 43 39 35 40 36 32 27
25 27 26 27 27 29 32 36 41 45 44 42 44 46 47 54 61 64 66 63 71 81 85 94 91 72 58 51 39 42 49 46 51 52 50 45 41 41 31 39 33 27 29
24 26 27 26 27 29 32 36 41 47 50 49 52 50 54 58 60 69 72 69 73 86 89 91 85 86 64 52 48 49 52 50 52 49 37 38 33 34 44 45 37 32 30
23 25 23 24 25 28 32 37 42 46 49 54 52 53 55 60 68 74 73 79 86 91 94 86 92 94 69 49 53 55 54 55 50 48 39 39 40 40 44 46 39 33 32
22 23 23 21 23 25 32 37 42 47 49 52 52 53 53 59 75 76 81 95 90 97 93 89 93 84 63 50 54 58 59 54 52 52 56 51 48 51 52 46 36 33 34
22 22 23 21 21 22 30 35 42 47 51 52 52 56 53 56 81 84 86 92 93 97 99 96 91 78 64 52 54 62 60 57 56 52 56 54 41 41 40 44 40 40 42
20 20 21 22 19 21 30 38 40 47 50 52 52 56 53 51 68 84 87 85 93 95 98 97 86 78 66 61 62 68 62 61 57 56 55 50 47 46 46 46 45 45 43
15 15 16 16 17 21 29 40 45 46 50 52 56 59 48 46 59 73 79 83 96 97 99 97 90 78 64 68 65 68 63 63 64 62 61 54 52 51 49 45 50 48 44
12 11 10 10 11 22 33 41 46 45 49 52 53 58 45 42 55 72 77 82 93 98 99 97 92 79 71 64 60 63 61 65 68 66 61 54 53 53 57 53 50 49 44
13 12 9 9 12 24 35 43 47 46 49 52 53 55 37 40 55 70 78 82 92 98 98 98 91 88 74 65 61 64 64 70 68 62 59 54 54 52 55 55 55 55 49
15 13 12 14 17 31 37 47 50 52 52 54 54 48 33 41 52 70 78 87 96 98 97 98 93 91 75 56 56 60 66 69 68 64 62 54 55 59 55 57 57 57 60
19 20 19 19 24 35 41 49 54 55 55 57 50 38 34 45 55 73 82 94 99 99 96 98 96 90 73 56 56 56 62 65 70 68 61 57 58 62 62 59 60 66 74
23 22 22 24 25 35 43 53 57 57 54 54 46 32 37 45 55 71 83 95 98 99 97 98 98 90 84 57 61 62 66 68 67 67 61 60 61 62 63 63 65 71 81
23 21 25 27 27 39 49 57 60 62 61 59 44 34 36 41 53 67 84 96 97 98 98 99 99 95 89 55 57 64 66 70 66 68 62 65 72 70 72 72 74 78 84
22 26 25 28 35 43 52 62 64 66 64 60 49 38 36 40 48 64 82 94 99 98 99 98 97 96 86 65 59 59 68 68 69 68 61 66 76 82 79 77 80 86 88

GFSSE_prec_cthk_126.txt.gz
RH
29 13 12 13 14 13 13 13 18 21 22 23 23 24 29 33 38 40 40 42 42 43 50 51 59 64 73 79 77 73 71 65 65 65 64 60 57 53 50 50 48 47 48
16 13 12 10 9 8 9 10 12 15 19 21 24 25 28 31 40 46 44 45 47 47 52 57 58 62 66 69 75 77 60 67 59 63 60 55 53 53 50 53 52 44 44
15 11 11 9 10 10 10 12 14 15 18 19 22 25 29 38 44 47 48 48 52 54 63 62 56 56 63 66 64 70 70 71 57 56 53 49 47 49 42 50 45 31 34
13 11 12 12 11 11 11 13 15 18 20 20 23 25 31 41 47 50 48 53 63 78 83 74 56 61 61 58 55 51 56 54 52 55 49 46 40 40 35 35 27 25 26
15 12 13 13 12 12 12 13 16 18 21 24 25 29 36 44 49 53 48 54 72 91 92 95 83 71 69 59 50 44 43 50 60 63 59 40 33 29 27 27 29 32 30
17 13 13 14 14 13 13 13 14 17 21 23 28 32 36 42 49 52 50 53 50 57 92 90 96 86 74 61 50 44 41 53 61 67 68 45 30 32 34 36 32 35 33
18 14 14 15 16 15 15 15 15 16 18 22 25 28 35 41 48 43 45 49 43 43 50 66 89 90 71 60 51 43 46 54 58 88 60 44 36 41 43 32 28 31 30
19 16 14 15 17 17 16 17 18 18 19 20 23 28 37 41 46 46 41 41 44 36 39 58 81 83 72 63 55 41 46 59 54 86 55 38 37 41 39 29 28 27 30
22 16 16 16 17 18 18 19 20 20 21 22 22 26 34 42 45 48 42 41 43 40 43 47 72 79 76 66 56 39 42 55 57 71 49 42 36 33 30 31 28 25 25
24 20 16 16 17 18 18 20 21 22 23 24 24 25 29 33 40 44 43 43 42 43 49 48 68 78 82 84 69 46 38 48 57 69 43 45 41 29 30 29 27 24 25
28 23 18 17 17 17 19 20 22 23 25 26 26 26 30 34 37 46 51 50 51 53 54 58 73 76 79 85 82 54 36 45 57 61 44 47 35 25 30 27 25 25 27
25 24 20 18 19 19 18 20 21 23 25 28 29 29 31 37 42 48 56 66 66 64 63 65 70 79 87 85 83 54 36 43 58 56 42 41 40 28 34 31 30 29 29
26 23 20 20 20 20 19 20 21 23 25 28 32 35 36 40 47 54 61 60 61 70 72 71 76 84 89 77 69 51 39 40 50 49 48 36 34 27 37 37 34 32 26
33 29 24 22 22 22 21 21 21 22 24 26 31 37 42 45 48 51 49 50 65 81 72 65 77 83 88 89 62 49 43 50 45 51 44 36 31 33 40 33 27 24 29
25 31 32 27 24 24 25 21 21 23 24 26 30 35 42 49 49 51 52 51 69 83 82 80 81 84 88 87 83 51 44 48 49 45 45 43 36 35 36 33 32 33 31
25 27 33 32 27 26 24 24 22 23 26 29 32 35 42 48 50 49 55 56 68 83 88 86 84 88 91 92 98 58 52 52 50 44 47 41 37 31 31 31 34 33 31
24 25 28 30 28 28 26 27 25 24 29 28 33 37 42 50 53 50 54 58 60 83 91 92 95 95 92 96 95 71 60 58 52 44 44 36 37 37 37 42 35 36 37
27 27 32 30 26 26 24 25 24 22 26 32 32 39 42 50 54 53 56 58 54 64 84 92 94 93 95 96 96 89 79 57 47 49 48 39 35 39 45 38 39 40 45
29 32 32 30 28 27 24 23 22 23 22 25 35 39 46 52 53 54 58 59 54 52 68 85 95 93 96 98 96 93 82 60 50 52 52 48 42 41 39 39 41 39 38
27 24 23 25 25 25 26 26 23 22 23 22 28 40 45 53 53 54 56 59 56 50 58 77 87 91 92 98 97 85 83 80 58 57 53 52 49 46 41 34 36 39 39
26 23 23 20 19 17 19 22 22 23 15 20 23 37 46 55 54 55 54 57 55 46 53 76 81 93 88 97 98 84 88 84 62 59 61 58 54 50 45 38 37 37 41
27 28 26 22 20 17 15 13 16 18 23 19 26 38 50 57 57 55 55 53 49 45 51 68 76 91 91 93 98 84 92 90 74 69 66 63 57 57 50 43 45 37 43
33 31 27 25 21 22 20 21 23 25 29 28 34 43 50 59 60 60 56 53 43 39 50 59 73 84 87 90 98 84 89 88 81 77 69 60 59 57 56 50 46 42 46
38 30 27 27 28 29 25 27 28 25 28 30 37 46 56 61 59 61 57 52 39 42 46 57 73 80 94 93 98 93 84 82 80 77 69 60 61 59 54 53 51 45 55
35 26 23 24 31 34 29 30 34 32 34 39 43 48 54 63 63 62 59 50 38 40 44 56 68 81 95 96 94 97 91 80 75 69 64 57 65 60 56 56 54 47 53
37 28 25 25 24 25 28 32 35 36 40 42 45 49 55 64 65 65 61 45 39 44 50 60 70 87 96 97 97 97 94 87 77 67 57 57 60 62 62 60 58 52 54

GFSSE_prec_cthk_129.txt.gz
RH
27 19 11 10 11 11 11 11 14 18 20 22 21 23 25 29 37 36 36 38 40 41 47 53 58 65 72 75 67 69 75 74 74 72 70 64 64 57 52 51 47 43 46
23 19 14 9 7 7 8 8 10 13 18 19 19 22 23 29 37 42 43 43 45 47 51 59 62 68 77 76 77 64 64 63 60 62 63 61 57 54 53 55 52 51 52
24 19 10 8 8 8 9 10 12 14 17 18 20 21 23 30 39 44 44 46 47 53 66 76 74 68 74 68 68 68 74 70 66 60 56 52 48 51 50 57 56 45 38
16 10 9 9 9 9 10 11 13 15 17 19 21 24 26 32 38 42 42 48 53 59 68 78 84 80 78 72 62 59 62 66 59 56 51 51 47 53 45 47 41 30 32
11 10 9 10 9 9 10 11 13 16 18 19 22 24 29 34 40 42 44 50 50 53 57 74 79 82 82 72 58 52 50 59 68 64 55 48 43 37 32 33 30 31 27
12 11 10 11 11 10 11 11 13 15 17 19 22 27 32 35 38 41 44 44 43 47 49 70 79 83 74 74 60 54 54 58 68 79 67 48 34 32 31 34 38 36 30
14 13 12 12 12 12 12 12 14 14 16 18 21 25 31 35 41 41 38 43 44 38 37 38 55 69 75 77 63 57 61 58 58 73 71 52 40 38 45 39 37 36 29
15 14 13 14 14 14 14 13 14 16 17 18 20 23 29 35 39 39 41 39 41 36 36 37 43 66 76 78 62 60 62 60 69 91 79 55 44 45 55 36 28 27 28
18 16 15 15 15 16 16 15 15 16 18 18 19 22 27 32 36 41 41 38 39 40 40 41 50 58 68 78 62 59 67 64 55 71 72 60 40 40 43 33 27 26 28
20 18 17 16 16 16 17 17 16 16 19 19 20 21 25 28 32 35 39 41 42 46 49 51 51 61 82 81 70 60 69 74 59 62 71 52 39 32 31 31 27 26 26
25 20 19 18 17 17 17 18 18 18 19 21 21 22 24 27 32 35 41 48 53 57 61 62 57 63 85 88 85 69 77 74 56 53 73 52 40 31 27 26 24 25 25
26 21 16 18 18 17 17 17 18 19 19 22 23 23 25 28 34 39 47 54 62 57 60 70 72 65 69 83 86 77 75 67 55 51 59 49 41 32 24 23 25 23 25
23 23 17 17 18 18 18 18 18 19 19 21 23 26 28 30 35 40 47 47 46 46 61 74 71 70 78 86 88 77 62 61 53 51 50 44 41 38 27 24 24 26 29
26 25 21 19 18 19 19 19 19 19 20 20 22 25 28 31 36 40 47 48 48 48 63 78 75 66 75 84 75 69 60 55 51 49 46 47 42 33 29 30 33 31 25
26 27 26 24 23 22 20 20 21 20 20 21 23 25 27 30 34 40 47 49 51 54 67 82 78 74 77 86 85 75 58 51 48 44 47 50 42 33 30 33 30 24 25
24 26 28 30 29 26 25 22 21 23 21 22 23 25 26 30 34 39 47 51 52 55 58 82 92 88 86 87 89 91 74 56 50 44 45 46 42 34 30 27 25 32 36
28 27 27 33 34 29 24 27 26 25 24 23 25 27 28 29 36 41 49 52 55 56 52 66 89 88 91 90 97 93 86 64 53 50 46 49 45 36 31 25 28 34 36
30 29 26 29 31 29 25 27 26 24 25 25 32 30 31 33 37 43 51 55 57 60 56 54 75 90 89 93 95 90 87 72 63 45 44 45 39 38 33 33 35 45 38
32 32 30 32 33 35 36 32 27 26 24 26 32 35 33 34 42 45 53 57 60 61 59 52 58 77 88 93 95 97 91 85 79 63 47 46 37 38 35 39 38 36 35
36 34 35 40 42 40 34 35 35 31 27 26 27 31 37 37 43 51 56 57 59 60 63 54 56 71 84 90 94 98 93 93 91 65 46 49 44 41 41 39 35 35 37
34 34 36 35 33 31 31 35 37 30 27 22 24 32 33 38 47 52 59 60 58 63 57 56 51 67 77 80 90 98 97 96 92 76 55 56 52 46 45 41 38 34 35
31 32 33 31 30 32 32 28 25 25 19 15 18 21 30 33 48 53 61 62 59 60 59 53 49 59 73 79 84 95 98 97 92 88 71 60 55 52 50 42 42 37 37
32 31 28 27 27 26 25 21 21 23 24 22 22 23 28 32 42 55 61 63 62 62 58 49 48 52 67 74 82 87 86 92 91 90 77 64 59 56 54 47 50 41 39
39 33 28 30 22 21 22 25 28 25 26 24 21 25 38 40 45 53 61 65 68 66 60 47 44 52 62 71 84 85 84 85 90 95 86 73 68 62 57 54 53 44 38
50 43 36 23 24 27 31 32 32 32 30 31 28 37 46 43 49 51 66 66 69 66 58 46 42 54 57 69 78 86 89 90 89 88 88 76 71 67 59 60 58 51 44
51 45 32 24 25 27 30 35 44 40 36 36 38 43 48 48 48 52 63 66 68 65 57 40 45 50 60 74 83 85 91 89 86 85 86 81 69 65 61 65 61 58 53

GFSSE_prec_cthk_132.txt.gz
RH
23 17 17 16 11 10 11 13 15 17 19 20 23 23 24 25 28 31 32 32 37 41 46 50 57 63 59 62 69 77 89 91 82 76 75 68 66 66 62 56 55 47 48
23 21 20 16 8 8 7 8 10 14 17 21 22 23 23 25 29 31 33 35 37 42 47 52 59 64 67 61 66 76 81 81 77 77 69 66 64 61 60 54 51 51 52
26 21 16 9 9 8 8 9 10 13 16 18 19 21 23 26 30 33 36 37 39 43 46 51 59 68 74 68 67 73 77 74 73 71 67 70 64 61 64 70 66 57 52
22 16 10 9 9 8 8 10 10 12 15 17 19 21 23 27 32 34 38 40 43 44 47 54 60 64 68 73 66 62 68 75 77 73 65 63 58 56 61 58 57 47 41
19 15 10 9 9 9 9 10 11 13 15 17 20 22 24 29 33 36 36 38 42 43 45 51 55 61 71 72 65 65 59 61 68 68 63 60 56 49 49 42 43 39 34
19 16 10 10 10 10 10 11 12 14 16 18 20 23 26 30 34 35 36 38 37 41 48 46 56 67 72 73 65 68 59 52 60 69 70 66 52 40 37 33 36 38 34
15 12 11 11 11 11 11 12 13 14 16 18 21 24 26 30 35 36 32 30 36 40 38 35 38 51 54 57 68 70 63 56 57 69 70 63 48 39 40 41 42 44 34
15 15 13 12 12 12 12 13 14 15 17 19 20 23 26 29 34 35 31 31 33 32 35 34 38 52 51 61 71 70 66 64 59 72 76 66 51 46 55 46 41 36 30
16 16 16 14 14 14 13 13 14 15 17 19 20 22 25 28 32 33 34 32 33 33 35 40 46 54 55 59 68 71 69 68 66 85 79 60 44 50 53 41 30 29 29
19 16 16 16 15 15 16 15 15 16 17 18 19 20 24 27 29 33 35 33 36 39 45 53 59 58 59 70 78 75 72 72 60 66 79 72 64 54 43 37 29 26 27
22 19 18 18 16 16 17 17 17 17 18 20 20 20 21 25 27 30 34 36 42 47 49 54 57 62 69 65 84 77 75 76 83 65 68 80 54 47 38 31 29 25 24
24 22 22 19 18 16 17 18 18 19 19 20 22 22 21 25 28 31 37 40 42 43 42 49 57 64 69 68 76 82 81 82 80 70 58 64 55 40 32 32 28 23 23
26 25 23 21 19 17 17 18 19 20 20 20 21 23 25 27 30 33 39 41 43 45 44 48 63 67 69 71 81 91 87 85 83 59 56 56 50 45 36 30 27 24 22
27 24 24 24 21 20 18 19 20 21 22 22 23 24 25 27 31 34 39 42 46 48 48 52 69 74 68 66 79 89 89 82 77 55 53 50 46 46 39 32 30 24 28
26 26 27 26 26 24 21 22 22 22 23 24 24 24 25 26 29 34 39 42 46 50 50 50 65 80 73 76 83 78 79 71 61 51 49 49 48 47 37 33 36 35 28
29 29 28 29 28 28 28 27 25 25 25 26 26 25 27 27 29 32 37 42 46 52 54 52 54 76 89 90 89 89 87 74 63 53 44 45 48 49 42 38 39 31 27
33 33 30 29 29 30 30 32 33 33 29 28 28 28 28 29 30 33 37 42 47 54 57 60 54 58 83 89 90 92 93 87 72 56 43 44 49 47 43 33 37 33 29
35 33 31 32 32 32 29 31 32 33 33 32 30 30 30 32 35 35 38 42 48 57 60 64 61 53 63 83 91 93 95 93 89 60 49 43 48 51 45 34 34 35 34
36 35 34 32 34 34 33 30 36 37 35 34 31 30 32 36 38 38 39 45 50 58 61 65 65 53 57 70 83 93 95 95 94 70 54 47 48 49 42 36 36 38 41
37 36 36 36 36 39 39 43 58 51 44 38 34 32 32 36 40 43 40 49 53 58 63 64 68 57 54 70 85 89 93 91 91 78 64 54 47 46 37 39 41 41 41
41 38 38 39 40 47 56 47 50 43 46 41 40 35 32 34 40 41 53 70 64 59 64 68 69 58 51 66 77 86 90 95 96 93 90 64 46 45 38 39 42 39 37
46 46 45 46 45 46 49 46 49 44 36 38 39 32 30 29 33 39 54 65 69 67 64 68 68 63 51 58 68 78 89 93 97 94 92 80 55 50 43 46 46 41 40
52 51 49 49 45 42 44 42 38 37 34 33 30 27 22 22 28 33 46 58 64 66 65 67 72 63 52 50 62 71 81 89 97 96 96 90 67 57 51 47 47 44 43
53 52 50 50 44 37 40 42 42 38 35 29 23 18 20 31 45 37 40 50 62 69 71 73 77 68 54 49 57 66 75 82 92 90 95 95 82 66 58 54 49 43 46
54 51 47 45 43 37 35 38 41 41 33 27 28 24 28 35 38 36 41 51 59 68 71 75 76 71 57 48 48 63 69 76 85 86 91 92 90 75 66 58 55 48 53
60 54 50 48 47 45 33 30 31 31 33 35 36 35 37 46 46 41 44 51 59 67 74 76 76 70 58 53 47 63 65 77 76 86 88 91 92 76 68 64 65 57 56